<?xml version="1.0" encoding="UTF-8" standalone="no" ?>
<gpx xmlns="http://www.topografix.com/GPX/1/1" xmlns:xsi="http://www.w3.org/2001/XMLSchema-instance" xsi:schemaLocation="http://www.topografix.com/GPX/1/1 http://www.topografix.com/GPX/1/1/gpx.xsd" version="1.1" creator="VisuGPX - https://www.visugpx.com">
  <metadata>
    <name>Mix circuits 12 &amp; 13</name>
    <desc><![CDATA[Mix circuits 12 & 13]]></desc>
  </metadata>
  <trk>
    <name><![CDATA[2015-11-28-Mix circuits 12-13]]></name>
    <trkseg>
      <trkpt lat="48.54068" lon="-2.80618">
        <ele>130.9</ele>
        <time>2015-11-28T09:47:56Z</time>
      </trkpt>
      <trkpt lat="48.54067" lon="-2.8062">
        <ele>130.9</ele>
        <time>2015-11-28T09:47:57Z</time>
      </trkpt>
      <trkpt lat="48.54059" lon="-2.80626">
        <ele>130.8</ele>
        <time>2015-11-28T09:48:02Z</time>
      </trkpt>
      <trkpt lat="48.54049" lon="-2.80631">
        <ele>130.8</ele>
        <time>2015-11-28T09:48:05Z</time>
      </trkpt>
      <trkpt lat="48.5404" lon="-2.80639">
        <ele>130.7</ele>
        <time>2015-11-28T09:48:08Z</time>
      </trkpt>
      <trkpt lat="48.54034" lon="-2.8065">
        <ele>130.7</ele>
        <time>2015-11-28T09:48:11Z</time>
      </trkpt>
      <trkpt lat="48.54028" lon="-2.80662">
        <ele>130.6</ele>
        <time>2015-11-28T09:48:14Z</time>
      </trkpt>
      <trkpt lat="48.54021" lon="-2.80676">
        <ele>130.6</ele>
        <time>2015-11-28T09:48:17Z</time>
      </trkpt>
      <trkpt lat="48.54014" lon="-2.8069">
        <ele>130.6</ele>
        <time>2015-11-28T09:48:20Z</time>
      </trkpt>
      <trkpt lat="48.54005" lon="-2.80705">
        <ele>130.6</ele>
        <time>2015-11-28T09:48:23Z</time>
      </trkpt>
      <trkpt lat="48.53997" lon="-2.8072">
        <ele>130.5</ele>
        <time>2015-11-28T09:48:26Z</time>
      </trkpt>
      <trkpt lat="48.53989" lon="-2.80735">
        <ele>130.5</ele>
        <time>2015-11-28T09:48:29Z</time>
      </trkpt>
      <trkpt lat="48.5398" lon="-2.8075">
        <ele>130.5</ele>
        <time>2015-11-28T09:48:32Z</time>
      </trkpt>
      <trkpt lat="48.53974" lon="-2.80761">
        <ele>130.5</ele>
        <time>2015-11-28T09:48:34Z</time>
      </trkpt>
      <trkpt lat="48.53968" lon="-2.80772">
        <ele>130.5</ele>
        <time>2015-11-28T09:48:36Z</time>
      </trkpt>
      <trkpt lat="48.5396" lon="-2.80787">
        <ele>130.4</ele>
        <time>2015-11-28T09:48:39Z</time>
      </trkpt>
      <trkpt lat="48.53953" lon="-2.80802">
        <ele>130.3</ele>
        <time>2015-11-28T09:48:42Z</time>
      </trkpt>
      <trkpt lat="48.53944" lon="-2.80818">
        <ele>130.2</ele>
        <time>2015-11-28T09:48:45Z</time>
      </trkpt>
      <trkpt lat="48.53935" lon="-2.80831">
        <ele>130.1</ele>
        <time>2015-11-28T09:48:48Z</time>
      </trkpt>
      <trkpt lat="48.53925" lon="-2.80843">
        <ele>130</ele>
        <time>2015-11-28T09:48:51Z</time>
      </trkpt>
      <trkpt lat="48.53914" lon="-2.80852">
        <ele>130</ele>
        <time>2015-11-28T09:48:54Z</time>
      </trkpt>
      <trkpt lat="48.53902" lon="-2.80856">
        <ele>129.9</ele>
        <time>2015-11-28T09:48:57Z</time>
      </trkpt>
      <trkpt lat="48.53891" lon="-2.80846">
        <ele>129.9</ele>
        <time>2015-11-28T09:49:00Z</time>
      </trkpt>
      <trkpt lat="48.53881" lon="-2.80833">
        <ele>129.9</ele>
        <time>2015-11-28T09:49:03Z</time>
      </trkpt>
      <trkpt lat="48.53872" lon="-2.80822">
        <ele>129.8</ele>
        <time>2015-11-28T09:49:06Z</time>
      </trkpt>
      <trkpt lat="48.53864" lon="-2.80812">
        <ele>129.9</ele>
        <time>2015-11-28T09:49:09Z</time>
      </trkpt>
      <trkpt lat="48.53855" lon="-2.80802">
        <ele>130</ele>
        <time>2015-11-28T09:49:12Z</time>
      </trkpt>
      <trkpt lat="48.53847" lon="-2.80792">
        <ele>130.1</ele>
        <time>2015-11-28T09:49:15Z</time>
      </trkpt>
      <trkpt lat="48.53838" lon="-2.80783">
        <ele>130.2</ele>
        <time>2015-11-28T09:49:18Z</time>
      </trkpt>
      <trkpt lat="48.53829" lon="-2.80773">
        <ele>130.3</ele>
        <time>2015-11-28T09:49:21Z</time>
      </trkpt>
      <trkpt lat="48.53818" lon="-2.80763">
        <ele>130.3</ele>
        <time>2015-11-28T09:49:24Z</time>
      </trkpt>
      <trkpt lat="48.53807" lon="-2.80752">
        <ele>130.4</ele>
        <time>2015-11-28T09:49:27Z</time>
      </trkpt>
      <trkpt lat="48.538" lon="-2.80745">
        <ele>130.4</ele>
        <time>2015-11-28T09:49:29Z</time>
      </trkpt>
      <trkpt lat="48.53791" lon="-2.80737">
        <ele>130.3</ele>
        <time>2015-11-28T09:49:31Z</time>
      </trkpt>
      <trkpt lat="48.53782" lon="-2.8073">
        <ele>130.2</ele>
        <time>2015-11-28T09:49:33Z</time>
      </trkpt>
      <trkpt lat="48.53773" lon="-2.80722">
        <ele>130.1</ele>
        <time>2015-11-28T09:49:35Z</time>
      </trkpt>
      <trkpt lat="48.53765" lon="-2.80715">
        <ele>129.9</ele>
        <time>2015-11-28T09:49:37Z</time>
      </trkpt>
      <trkpt lat="48.53756" lon="-2.80707">
        <ele>129.8</ele>
        <time>2015-11-28T09:49:39Z</time>
      </trkpt>
      <trkpt lat="48.53748" lon="-2.80701">
        <ele>129.6</ele>
        <time>2015-11-28T09:49:41Z</time>
      </trkpt>
      <trkpt lat="48.5374" lon="-2.80694">
        <ele>129.5</ele>
        <time>2015-11-28T09:49:43Z</time>
      </trkpt>
      <trkpt lat="48.53728" lon="-2.80687">
        <ele>129.3</ele>
        <time>2015-11-28T09:49:46Z</time>
      </trkpt>
      <trkpt lat="48.53715" lon="-2.80681">
        <ele>129</ele>
        <time>2015-11-28T09:49:49Z</time>
      </trkpt>
      <trkpt lat="48.53706" lon="-2.80676">
        <ele>128.7</ele>
        <time>2015-11-28T09:49:51Z</time>
      </trkpt>
      <trkpt lat="48.53696" lon="-2.80671">
        <ele>128.3</ele>
        <time>2015-11-28T09:49:53Z</time>
      </trkpt>
      <trkpt lat="48.53688" lon="-2.80665">
        <ele>128</ele>
        <time>2015-11-28T09:49:55Z</time>
      </trkpt>
      <trkpt lat="48.53679" lon="-2.80658">
        <ele>127.7</ele>
        <time>2015-11-28T09:49:57Z</time>
      </trkpt>
      <trkpt lat="48.53669" lon="-2.80664">
        <ele>127</ele>
        <time>2015-11-28T09:50:00Z</time>
      </trkpt>
      <trkpt lat="48.53662" lon="-2.80674">
        <ele>126.5</ele>
        <time>2015-11-28T09:50:02Z</time>
      </trkpt>
      <trkpt lat="48.53656" lon="-2.80684">
        <ele>126</ele>
        <time>2015-11-28T09:50:04Z</time>
      </trkpt>
      <trkpt lat="48.5365" lon="-2.80696">
        <ele>125.5</ele>
        <time>2015-11-28T09:50:06Z</time>
      </trkpt>
      <trkpt lat="48.53645" lon="-2.80707">
        <ele>125</ele>
        <time>2015-11-28T09:50:08Z</time>
      </trkpt>
      <trkpt lat="48.53639" lon="-2.80723">
        <ele>124.2</ele>
        <time>2015-11-28T09:50:11Z</time>
      </trkpt>
      <trkpt lat="48.53632" lon="-2.80741">
        <ele>123.4</ele>
        <time>2015-11-28T09:50:14Z</time>
      </trkpt>
      <trkpt lat="48.53627" lon="-2.8076">
        <ele>123</ele>
        <time>2015-11-28T09:50:16Z</time>
      </trkpt>
      <trkpt lat="48.53621" lon="-2.80783">
        <ele>122.4</ele>
        <time>2015-11-28T09:50:18Z</time>
      </trkpt>
      <trkpt lat="48.53614" lon="-2.80807">
        <ele>121.8</ele>
        <time>2015-11-28T09:50:20Z</time>
      </trkpt>
      <trkpt lat="48.53606" lon="-2.80831">
        <ele>121</ele>
        <time>2015-11-28T09:50:22Z</time>
      </trkpt>
      <trkpt lat="48.536" lon="-2.80852">
        <ele>120.2</ele>
        <time>2015-11-28T09:50:24Z</time>
      </trkpt>
      <trkpt lat="48.53594" lon="-2.80871">
        <ele>119.4</ele>
        <time>2015-11-28T09:50:26Z</time>
      </trkpt>
      <trkpt lat="48.53592" lon="-2.80888">
        <ele>118.7</ele>
        <time>2015-11-28T09:50:28Z</time>
      </trkpt>
      <trkpt lat="48.53585" lon="-2.80904">
        <ele>117.9</ele>
        <time>2015-11-28T09:50:31Z</time>
      </trkpt>
      <trkpt lat="48.5358" lon="-2.80916">
        <ele>117.3</ele>
        <time>2015-11-28T09:50:33Z</time>
      </trkpt>
      <trkpt lat="48.53573" lon="-2.80932">
        <ele>116.6</ele>
        <time>2015-11-28T09:50:36Z</time>
      </trkpt>
      <trkpt lat="48.53564" lon="-2.80946">
        <ele>116</ele>
        <time>2015-11-28T09:50:39Z</time>
      </trkpt>
      <trkpt lat="48.53555" lon="-2.80956">
        <ele>115.4</ele>
        <time>2015-11-28T09:50:42Z</time>
      </trkpt>
      <trkpt lat="48.53547" lon="-2.80962">
        <ele>114.9</ele>
        <time>2015-11-28T09:50:45Z</time>
      </trkpt>
      <trkpt lat="48.53536" lon="-2.80967">
        <ele>114.4</ele>
        <time>2015-11-28T09:50:49Z</time>
      </trkpt>
      <trkpt lat="48.53526" lon="-2.80971">
        <ele>113.9</ele>
        <time>2015-11-28T09:50:53Z</time>
      </trkpt>
      <trkpt lat="48.53523" lon="-2.80987">
        <ele>113.5</ele>
        <time>2015-11-28T09:50:58Z</time>
      </trkpt>
      <trkpt lat="48.53528" lon="-2.81001">
        <ele>113.1</ele>
        <time>2015-11-28T09:51:03Z</time>
      </trkpt>
      <trkpt lat="48.53537" lon="-2.81012">
        <ele>112.9</ele>
        <time>2015-11-28T09:51:07Z</time>
      </trkpt>
      <trkpt lat="48.53544" lon="-2.81022">
        <ele>112.8</ele>
        <time>2015-11-28T09:51:10Z</time>
      </trkpt>
      <trkpt lat="48.53549" lon="-2.81034">
        <ele>112.8</ele>
        <time>2015-11-28T09:51:13Z</time>
      </trkpt>
      <trkpt lat="48.53556" lon="-2.81044">
        <ele>112.8</ele>
        <time>2015-11-28T09:51:16Z</time>
      </trkpt>
      <trkpt lat="48.53563" lon="-2.81059">
        <ele>112.8</ele>
        <time>2015-11-28T09:51:20Z</time>
      </trkpt>
      <trkpt lat="48.53564" lon="-2.81073">
        <ele>112.9</ele>
        <time>2015-11-28T09:51:23Z</time>
      </trkpt>
      <trkpt lat="48.53564" lon="-2.81087">
        <ele>113.2</ele>
        <time>2015-11-28T09:52:37Z</time>
      </trkpt>
      <trkpt lat="48.5356" lon="-2.81106">
        <ele>113.1</ele>
        <time>2015-11-28T09:55:39Z</time>
      </trkpt>
      <trkpt lat="48.53552" lon="-2.81119">
        <ele>112.7</ele>
        <time>2015-11-28T09:55:41Z</time>
      </trkpt>
      <trkpt lat="48.53543" lon="-2.8113">
        <ele>111.8</ele>
        <time>2015-11-28T09:55:43Z</time>
      </trkpt>
      <trkpt lat="48.53535" lon="-2.81146">
        <ele>110.7</ele>
        <time>2015-11-28T09:55:45Z</time>
      </trkpt>
      <trkpt lat="48.53524" lon="-2.81153">
        <ele>109.7</ele>
        <time>2015-11-28T09:55:47Z</time>
      </trkpt>
      <trkpt lat="48.53512" lon="-2.81155">
        <ele>108.8</ele>
        <time>2015-11-28T09:55:49Z</time>
      </trkpt>
      <trkpt lat="48.535" lon="-2.81159">
        <ele>107.8</ele>
        <time>2015-11-28T09:55:51Z</time>
      </trkpt>
      <trkpt lat="48.53485" lon="-2.81163">
        <ele>106.6</ele>
        <time>2015-11-28T09:55:53Z</time>
      </trkpt>
      <trkpt lat="48.5347" lon="-2.81164">
        <ele>105.4</ele>
        <time>2015-11-28T09:55:55Z</time>
      </trkpt>
      <trkpt lat="48.53455" lon="-2.81163">
        <ele>104.2</ele>
        <time>2015-11-28T09:55:57Z</time>
      </trkpt>
      <trkpt lat="48.53441" lon="-2.8116">
        <ele>103</ele>
        <time>2015-11-28T09:55:59Z</time>
      </trkpt>
      <trkpt lat="48.53425" lon="-2.81159">
        <ele>101.6</ele>
        <time>2015-11-28T09:56:01Z</time>
      </trkpt>
      <trkpt lat="48.5341" lon="-2.81168">
        <ele>100.2</ele>
        <time>2015-11-28T09:56:03Z</time>
      </trkpt>
      <trkpt lat="48.53396" lon="-2.81182">
        <ele>98.7</ele>
        <time>2015-11-28T09:56:05Z</time>
      </trkpt>
      <trkpt lat="48.53388" lon="-2.8119">
        <ele>97.9</ele>
        <time>2015-11-28T09:56:06Z</time>
      </trkpt>
      <trkpt lat="48.53381" lon="-2.81197">
        <ele>97</ele>
        <time>2015-11-28T09:56:07Z</time>
      </trkpt>
      <trkpt lat="48.53363" lon="-2.81203">
        <ele>95.4</ele>
        <time>2015-11-28T09:56:09Z</time>
      </trkpt>
      <trkpt lat="48.53354" lon="-2.81203">
        <ele>94.4</ele>
        <time>2015-11-28T09:56:10Z</time>
      </trkpt>
      <trkpt lat="48.53344" lon="-2.81204">
        <ele>93.6</ele>
        <time>2015-11-28T09:56:11Z</time>
      </trkpt>
      <trkpt lat="48.53327" lon="-2.81205">
        <ele>91.5</ele>
        <time>2015-11-28T09:56:13Z</time>
      </trkpt>
      <trkpt lat="48.53311" lon="-2.81209">
        <ele>89.4</ele>
        <time>2015-11-28T09:56:15Z</time>
      </trkpt>
      <trkpt lat="48.53297" lon="-2.81217">
        <ele>87.2</ele>
        <time>2015-11-28T09:56:17Z</time>
      </trkpt>
      <trkpt lat="48.53284" lon="-2.81226">
        <ele>84.9</ele>
        <time>2015-11-28T09:56:19Z</time>
      </trkpt>
      <trkpt lat="48.53272" lon="-2.81235">
        <ele>82.7</ele>
        <time>2015-11-28T09:56:21Z</time>
      </trkpt>
      <trkpt lat="48.53258" lon="-2.81246">
        <ele>80.1</ele>
        <time>2015-11-28T09:56:23Z</time>
      </trkpt>
      <trkpt lat="48.53243" lon="-2.8126">
        <ele>77.5</ele>
        <time>2015-11-28T09:56:25Z</time>
      </trkpt>
      <trkpt lat="48.53235" lon="-2.81267">
        <ele>76.3</ele>
        <time>2015-11-28T09:56:26Z</time>
      </trkpt>
      <trkpt lat="48.53227" lon="-2.81275">
        <ele>75.1</ele>
        <time>2015-11-28T09:56:27Z</time>
      </trkpt>
      <trkpt lat="48.53212" lon="-2.8129">
        <ele>72.6</ele>
        <time>2015-11-28T09:56:29Z</time>
      </trkpt>
      <trkpt lat="48.53199" lon="-2.81305">
        <ele>70.2</ele>
        <time>2015-11-28T09:56:31Z</time>
      </trkpt>
      <trkpt lat="48.53186" lon="-2.8132">
        <ele>67.9</ele>
        <time>2015-11-28T09:56:33Z</time>
      </trkpt>
      <trkpt lat="48.53173" lon="-2.81335">
        <ele>65.8</ele>
        <time>2015-11-28T09:56:35Z</time>
      </trkpt>
      <trkpt lat="48.53158" lon="-2.81352">
        <ele>63.7</ele>
        <time>2015-11-28T09:56:37Z</time>
      </trkpt>
      <trkpt lat="48.53151" lon="-2.8136">
        <ele>62.6</ele>
        <time>2015-11-28T09:56:38Z</time>
      </trkpt>
      <trkpt lat="48.53136" lon="-2.81374">
        <ele>60.5</ele>
        <time>2015-11-28T09:56:40Z</time>
      </trkpt>
      <trkpt lat="48.53127" lon="-2.81379">
        <ele>59.4</ele>
        <time>2015-11-28T09:56:41Z</time>
      </trkpt>
      <trkpt lat="48.53118" lon="-2.81383">
        <ele>58.2</ele>
        <time>2015-11-28T09:56:42Z</time>
      </trkpt>
      <trkpt lat="48.53108" lon="-2.81386">
        <ele>57.1</ele>
        <time>2015-11-28T09:56:43Z</time>
      </trkpt>
      <trkpt lat="48.53097" lon="-2.81389">
        <ele>55.9</ele>
        <time>2015-11-28T09:56:44Z</time>
      </trkpt>
      <trkpt lat="48.5308" lon="-2.81393">
        <ele>53.6</ele>
        <time>2015-11-28T09:56:46Z</time>
      </trkpt>
      <trkpt lat="48.53063" lon="-2.81396">
        <ele>51.3</ele>
        <time>2015-11-28T09:56:48Z</time>
      </trkpt>
      <trkpt lat="48.53048" lon="-2.81397">
        <ele>49</ele>
        <time>2015-11-28T09:56:50Z</time>
      </trkpt>
      <trkpt lat="48.53036" lon="-2.81394">
        <ele>46.8</ele>
        <time>2015-11-28T09:56:52Z</time>
      </trkpt>
      <trkpt lat="48.53026" lon="-2.8139">
        <ele>43.8</ele>
        <time>2015-11-28T09:56:55Z</time>
      </trkpt>
      <trkpt lat="48.53018" lon="-2.81395">
        <ele>36.4</ele>
        <time>2015-11-28T09:57:06Z</time>
      </trkpt>
      <trkpt lat="48.53015" lon="-2.81408">
        <ele>33.9</ele>
        <time>2015-11-28T09:57:13Z</time>
      </trkpt>
      <trkpt lat="48.53015" lon="-2.81423">
        <ele>32.6</ele>
        <time>2015-11-28T09:57:18Z</time>
      </trkpt>
      <trkpt lat="48.53013" lon="-2.8144">
        <ele>31.9</ele>
        <time>2015-11-28T09:57:22Z</time>
      </trkpt>
      <trkpt lat="48.53011" lon="-2.81457">
        <ele>31.3</ele>
        <time>2015-11-28T09:57:26Z</time>
      </trkpt>
      <trkpt lat="48.53007" lon="-2.81473">
        <ele>30.9</ele>
        <time>2015-11-28T09:57:30Z</time>
      </trkpt>
      <trkpt lat="48.53004" lon="-2.81489">
        <ele>30.5</ele>
        <time>2015-11-28T09:57:34Z</time>
      </trkpt>
      <trkpt lat="48.53001" lon="-2.81504">
        <ele>30.3</ele>
        <time>2015-11-28T09:57:37Z</time>
      </trkpt>
      <trkpt lat="48.52996" lon="-2.8152">
        <ele>30.1</ele>
        <time>2015-11-28T09:57:40Z</time>
      </trkpt>
      <trkpt lat="48.5299" lon="-2.81539">
        <ele>30</ele>
        <time>2015-11-28T09:57:43Z</time>
      </trkpt>
      <trkpt lat="48.52986" lon="-2.81552">
        <ele>29.9</ele>
        <time>2015-11-28T09:57:45Z</time>
      </trkpt>
      <trkpt lat="48.52982" lon="-2.81565">
        <ele>29.9</ele>
        <time>2015-11-28T09:57:47Z</time>
      </trkpt>
      <trkpt lat="48.52978" lon="-2.81578">
        <ele>29.8</ele>
        <time>2015-11-28T09:57:49Z</time>
      </trkpt>
      <trkpt lat="48.52974" lon="-2.81591">
        <ele>29.7</ele>
        <time>2015-11-28T09:57:51Z</time>
      </trkpt>
      <trkpt lat="48.5297" lon="-2.81604">
        <ele>29.6</ele>
        <time>2015-11-28T09:57:53Z</time>
      </trkpt>
      <trkpt lat="48.52967" lon="-2.81622">
        <ele>29.4</ele>
        <time>2015-11-28T09:57:56Z</time>
      </trkpt>
      <trkpt lat="48.52964" lon="-2.8164">
        <ele>29.3</ele>
        <time>2015-11-28T09:57:59Z</time>
      </trkpt>
      <trkpt lat="48.52961" lon="-2.81654">
        <ele>29.2</ele>
        <time>2015-11-28T09:58:01Z</time>
      </trkpt>
      <trkpt lat="48.52958" lon="-2.81674">
        <ele>29</ele>
        <time>2015-11-28T09:58:04Z</time>
      </trkpt>
      <trkpt lat="48.52956" lon="-2.81694">
        <ele>28.8</ele>
        <time>2015-11-28T09:58:07Z</time>
      </trkpt>
      <trkpt lat="48.52953" lon="-2.81707">
        <ele>28.7</ele>
        <time>2015-11-28T09:58:09Z</time>
      </trkpt>
      <trkpt lat="48.5295" lon="-2.81725">
        <ele>28.6</ele>
        <time>2015-11-28T09:58:12Z</time>
      </trkpt>
      <trkpt lat="48.52947" lon="-2.81738">
        <ele>28.5</ele>
        <time>2015-11-28T09:58:14Z</time>
      </trkpt>
      <trkpt lat="48.52942" lon="-2.81757">
        <ele>28.4</ele>
        <time>2015-11-28T09:58:17Z</time>
      </trkpt>
      <trkpt lat="48.52937" lon="-2.81776">
        <ele>28.3</ele>
        <time>2015-11-28T09:58:20Z</time>
      </trkpt>
      <trkpt lat="48.52933" lon="-2.81789">
        <ele>28.3</ele>
        <time>2015-11-28T09:58:22Z</time>
      </trkpt>
      <trkpt lat="48.5293" lon="-2.81802">
        <ele>28.2</ele>
        <time>2015-11-28T09:58:24Z</time>
      </trkpt>
      <trkpt lat="48.52926" lon="-2.81821">
        <ele>28.2</ele>
        <time>2015-11-28T09:58:27Z</time>
      </trkpt>
      <trkpt lat="48.52923" lon="-2.81838">
        <ele>28.1</ele>
        <time>2015-11-28T09:58:30Z</time>
      </trkpt>
      <trkpt lat="48.52921" lon="-2.81855">
        <ele>28.1</ele>
        <time>2015-11-28T09:58:33Z</time>
      </trkpt>
      <trkpt lat="48.5292" lon="-2.8187">
        <ele>28.1</ele>
        <time>2015-11-28T09:58:36Z</time>
      </trkpt>
      <trkpt lat="48.52919" lon="-2.81887">
        <ele>28.2</ele>
        <time>2015-11-28T09:58:39Z</time>
      </trkpt>
      <trkpt lat="48.52918" lon="-2.81905">
        <ele>28.4</ele>
        <time>2015-11-28T09:58:42Z</time>
      </trkpt>
      <trkpt lat="48.52919" lon="-2.81921">
        <ele>28.6</ele>
        <time>2015-11-28T09:58:45Z</time>
      </trkpt>
      <trkpt lat="48.52919" lon="-2.81939">
        <ele>28.9</ele>
        <time>2015-11-28T09:58:48Z</time>
      </trkpt>
      <trkpt lat="48.5292" lon="-2.81956">
        <ele>29.1</ele>
        <time>2015-11-28T09:58:51Z</time>
      </trkpt>
      <trkpt lat="48.52922" lon="-2.81973">
        <ele>29.3</ele>
        <time>2015-11-28T09:58:54Z</time>
      </trkpt>
      <trkpt lat="48.52924" lon="-2.8199">
        <ele>29.4</ele>
        <time>2015-11-28T09:58:57Z</time>
      </trkpt>
      <trkpt lat="48.52927" lon="-2.82008">
        <ele>29.7</ele>
        <time>2015-11-28T09:59:00Z</time>
      </trkpt>
      <trkpt lat="48.52931" lon="-2.82025">
        <ele>30</ele>
        <time>2015-11-28T09:59:03Z</time>
      </trkpt>
      <trkpt lat="48.52935" lon="-2.82042">
        <ele>30.3</ele>
        <time>2015-11-28T09:59:06Z</time>
      </trkpt>
      <trkpt lat="48.52939" lon="-2.82059">
        <ele>30.6</ele>
        <time>2015-11-28T09:59:09Z</time>
      </trkpt>
      <trkpt lat="48.52943" lon="-2.82076">
        <ele>30.9</ele>
        <time>2015-11-28T09:59:12Z</time>
      </trkpt>
      <trkpt lat="48.52945" lon="-2.82093">
        <ele>31.2</ele>
        <time>2015-11-28T09:59:15Z</time>
      </trkpt>
      <trkpt lat="48.52945" lon="-2.82111">
        <ele>31.5</ele>
        <time>2015-11-28T09:59:18Z</time>
      </trkpt>
      <trkpt lat="48.52946" lon="-2.82129">
        <ele>31.7</ele>
        <time>2015-11-28T09:59:21Z</time>
      </trkpt>
      <trkpt lat="48.52946" lon="-2.82148">
        <ele>31.9</ele>
        <time>2015-11-28T09:59:24Z</time>
      </trkpt>
      <trkpt lat="48.52944" lon="-2.82167">
        <ele>32</ele>
        <time>2015-11-28T09:59:27Z</time>
      </trkpt>
      <trkpt lat="48.52942" lon="-2.82187">
        <ele>32.1</ele>
        <time>2015-11-28T09:59:30Z</time>
      </trkpt>
      <trkpt lat="48.5294" lon="-2.822">
        <ele>32.1</ele>
        <time>2015-11-28T09:59:32Z</time>
      </trkpt>
      <trkpt lat="48.52938" lon="-2.8222">
        <ele>32.2</ele>
        <time>2015-11-28T09:59:35Z</time>
      </trkpt>
      <trkpt lat="48.52936" lon="-2.82239">
        <ele>32.2</ele>
        <time>2015-11-28T09:59:38Z</time>
      </trkpt>
      <trkpt lat="48.52933" lon="-2.82258">
        <ele>32.2</ele>
        <time>2015-11-28T09:59:41Z</time>
      </trkpt>
      <trkpt lat="48.52931" lon="-2.82276">
        <ele>32.2</ele>
        <time>2015-11-28T09:59:44Z</time>
      </trkpt>
      <trkpt lat="48.52929" lon="-2.82295">
        <ele>32.3</ele>
        <time>2015-11-28T09:59:47Z</time>
      </trkpt>
      <trkpt lat="48.52926" lon="-2.82312">
        <ele>32.3</ele>
        <time>2015-11-28T09:59:50Z</time>
      </trkpt>
      <trkpt lat="48.52922" lon="-2.82328">
        <ele>32.4</ele>
        <time>2015-11-28T09:59:53Z</time>
      </trkpt>
      <trkpt lat="48.52919" lon="-2.82345">
        <ele>32.6</ele>
        <time>2015-11-28T09:59:56Z</time>
      </trkpt>
      <trkpt lat="48.52914" lon="-2.8236">
        <ele>32.8</ele>
        <time>2015-11-28T09:59:59Z</time>
      </trkpt>
      <trkpt lat="48.52909" lon="-2.82376">
        <ele>33</ele>
        <time>2015-11-28T10:00:02Z</time>
      </trkpt>
      <trkpt lat="48.52903" lon="-2.82391">
        <ele>33.3</ele>
        <time>2015-11-28T10:00:05Z</time>
      </trkpt>
      <trkpt lat="48.52897" lon="-2.82406">
        <ele>33.5</ele>
        <time>2015-11-28T10:00:08Z</time>
      </trkpt>
      <trkpt lat="48.5289" lon="-2.8242">
        <ele>33.8</ele>
        <time>2015-11-28T10:00:11Z</time>
      </trkpt>
      <trkpt lat="48.52882" lon="-2.82434">
        <ele>34.1</ele>
        <time>2015-11-28T10:00:14Z</time>
      </trkpt>
      <trkpt lat="48.52873" lon="-2.82447">
        <ele>34.3</ele>
        <time>2015-11-28T10:00:17Z</time>
      </trkpt>
      <trkpt lat="48.52865" lon="-2.82461">
        <ele>34.5</ele>
        <time>2015-11-28T10:00:20Z</time>
      </trkpt>
      <trkpt lat="48.52856" lon="-2.82475">
        <ele>34.7</ele>
        <time>2015-11-28T10:00:23Z</time>
      </trkpt>
      <trkpt lat="48.52847" lon="-2.8249">
        <ele>34.8</ele>
        <time>2015-11-28T10:00:26Z</time>
      </trkpt>
      <trkpt lat="48.52841" lon="-2.825">
        <ele>34.9</ele>
        <time>2015-11-28T10:00:28Z</time>
      </trkpt>
      <trkpt lat="48.52834" lon="-2.8251">
        <ele>35</ele>
        <time>2015-11-28T10:00:30Z</time>
      </trkpt>
      <trkpt lat="48.52828" lon="-2.8252">
        <ele>35.1</ele>
        <time>2015-11-28T10:00:32Z</time>
      </trkpt>
      <trkpt lat="48.52822" lon="-2.8253">
        <ele>35.1</ele>
        <time>2015-11-28T10:00:34Z</time>
      </trkpt>
      <trkpt lat="48.52815" lon="-2.8254">
        <ele>35.2</ele>
        <time>2015-11-28T10:00:36Z</time>
      </trkpt>
      <trkpt lat="48.52806" lon="-2.82554">
        <ele>35.2</ele>
        <time>2015-11-28T10:00:39Z</time>
      </trkpt>
      <trkpt lat="48.52797" lon="-2.82568">
        <ele>35.3</ele>
        <time>2015-11-28T10:00:42Z</time>
      </trkpt>
      <trkpt lat="48.5279" lon="-2.82578">
        <ele>35.3</ele>
        <time>2015-11-28T10:00:44Z</time>
      </trkpt>
      <trkpt lat="48.52784" lon="-2.82587">
        <ele>35.4</ele>
        <time>2015-11-28T10:00:46Z</time>
      </trkpt>
      <trkpt lat="48.52774" lon="-2.826">
        <ele>35.4</ele>
        <time>2015-11-28T10:00:49Z</time>
      </trkpt>
      <trkpt lat="48.52764" lon="-2.82613">
        <ele>35.4</ele>
        <time>2015-11-28T10:00:52Z</time>
      </trkpt>
      <trkpt lat="48.52754" lon="-2.82625">
        <ele>35.5</ele>
        <time>2015-11-28T10:00:55Z</time>
      </trkpt>
      <trkpt lat="48.52745" lon="-2.82636">
        <ele>35.5</ele>
        <time>2015-11-28T10:00:58Z</time>
      </trkpt>
      <trkpt lat="48.52735" lon="-2.82646">
        <ele>35.5</ele>
        <time>2015-11-28T10:01:01Z</time>
      </trkpt>
      <trkpt lat="48.52725" lon="-2.82655">
        <ele>35.6</ele>
        <time>2015-11-28T10:01:04Z</time>
      </trkpt>
      <trkpt lat="48.52715" lon="-2.82665">
        <ele>35.8</ele>
        <time>2015-11-28T10:01:07Z</time>
      </trkpt>
      <trkpt lat="48.52706" lon="-2.82674">
        <ele>36.1</ele>
        <time>2015-11-28T10:01:10Z</time>
      </trkpt>
      <trkpt lat="48.52696" lon="-2.82683">
        <ele>36.4</ele>
        <time>2015-11-28T10:01:13Z</time>
      </trkpt>
      <trkpt lat="48.52686" lon="-2.82691">
        <ele>36.7</ele>
        <time>2015-11-28T10:01:16Z</time>
      </trkpt>
      <trkpt lat="48.52677" lon="-2.827">
        <ele>37</ele>
        <time>2015-11-28T10:01:19Z</time>
      </trkpt>
      <trkpt lat="48.52667" lon="-2.82709">
        <ele>37.4</ele>
        <time>2015-11-28T10:01:22Z</time>
      </trkpt>
      <trkpt lat="48.52657" lon="-2.82717">
        <ele>37.8</ele>
        <time>2015-11-28T10:01:25Z</time>
      </trkpt>
      <trkpt lat="48.52646" lon="-2.82724">
        <ele>38.2</ele>
        <time>2015-11-28T10:01:28Z</time>
      </trkpt>
      <trkpt lat="48.52636" lon="-2.82731">
        <ele>38.6</ele>
        <time>2015-11-28T10:01:31Z</time>
      </trkpt>
      <trkpt lat="48.52625" lon="-2.82737">
        <ele>39.1</ele>
        <time>2015-11-28T10:01:34Z</time>
      </trkpt>
      <trkpt lat="48.52614" lon="-2.82742">
        <ele>39.5</ele>
        <time>2015-11-28T10:01:37Z</time>
      </trkpt>
      <trkpt lat="48.52602" lon="-2.82745">
        <ele>39.9</ele>
        <time>2015-11-28T10:01:40Z</time>
      </trkpt>
      <trkpt lat="48.52591" lon="-2.82747">
        <ele>40.2</ele>
        <time>2015-11-28T10:01:43Z</time>
      </trkpt>
      <trkpt lat="48.5258" lon="-2.82746">
        <ele>40.6</ele>
        <time>2015-11-28T10:01:46Z</time>
      </trkpt>
      <trkpt lat="48.52568" lon="-2.82745">
        <ele>40.9</ele>
        <time>2015-11-28T10:01:49Z</time>
      </trkpt>
      <trkpt lat="48.52557" lon="-2.82742">
        <ele>41.4</ele>
        <time>2015-11-28T10:01:52Z</time>
      </trkpt>
      <trkpt lat="48.52546" lon="-2.82739">
        <ele>41.8</ele>
        <time>2015-11-28T10:01:55Z</time>
      </trkpt>
      <trkpt lat="48.52534" lon="-2.82734">
        <ele>42.1</ele>
        <time>2015-11-28T10:01:58Z</time>
      </trkpt>
      <trkpt lat="48.52523" lon="-2.8273">
        <ele>42.5</ele>
        <time>2015-11-28T10:02:01Z</time>
      </trkpt>
      <trkpt lat="48.52511" lon="-2.82726">
        <ele>42.8</ele>
        <time>2015-11-28T10:02:04Z</time>
      </trkpt>
      <trkpt lat="48.52499" lon="-2.82722">
        <ele>43.1</ele>
        <time>2015-11-28T10:02:07Z</time>
      </trkpt>
      <trkpt lat="48.52487" lon="-2.82716">
        <ele>43.4</ele>
        <time>2015-11-28T10:02:10Z</time>
      </trkpt>
      <trkpt lat="48.52476" lon="-2.82711">
        <ele>43.6</ele>
        <time>2015-11-28T10:02:13Z</time>
      </trkpt>
      <trkpt lat="48.52464" lon="-2.82706">
        <ele>44</ele>
        <time>2015-11-28T10:02:16Z</time>
      </trkpt>
      <trkpt lat="48.52452" lon="-2.82701">
        <ele>44.3</ele>
        <time>2015-11-28T10:02:19Z</time>
      </trkpt>
      <trkpt lat="48.52441" lon="-2.82697">
        <ele>44.7</ele>
        <time>2015-11-28T10:02:22Z</time>
      </trkpt>
      <trkpt lat="48.52429" lon="-2.82693">
        <ele>45</ele>
        <time>2015-11-28T10:02:25Z</time>
      </trkpt>
      <trkpt lat="48.52418" lon="-2.82688">
        <ele>45.4</ele>
        <time>2015-11-28T10:02:28Z</time>
      </trkpt>
      <trkpt lat="48.52407" lon="-2.82685">
        <ele>45.7</ele>
        <time>2015-11-28T10:02:31Z</time>
      </trkpt>
      <trkpt lat="48.52396" lon="-2.8268">
        <ele>46.1</ele>
        <time>2015-11-28T10:02:34Z</time>
      </trkpt>
      <trkpt lat="48.52386" lon="-2.82675">
        <ele>46.4</ele>
        <time>2015-11-28T10:02:37Z</time>
      </trkpt>
      <trkpt lat="48.52375" lon="-2.82671">
        <ele>46.7</ele>
        <time>2015-11-28T10:02:40Z</time>
      </trkpt>
      <trkpt lat="48.52365" lon="-2.82664">
        <ele>47</ele>
        <time>2015-11-28T10:02:43Z</time>
      </trkpt>
      <trkpt lat="48.52356" lon="-2.82659">
        <ele>47.3</ele>
        <time>2015-11-28T10:02:46Z</time>
      </trkpt>
      <trkpt lat="48.52349" lon="-2.82648">
        <ele>48.1</ele>
        <time>2015-11-28T10:02:54Z</time>
      </trkpt>
      <trkpt lat="48.52349" lon="-2.82632">
        <ele>48.4</ele>
        <time>2015-11-28T10:02:58Z</time>
      </trkpt>
      <trkpt lat="48.52354" lon="-2.82615">
        <ele>48.6</ele>
        <time>2015-11-28T10:03:01Z</time>
      </trkpt>
      <trkpt lat="48.52358" lon="-2.82598">
        <ele>48.7</ele>
        <time>2015-11-28T10:03:04Z</time>
      </trkpt>
      <trkpt lat="48.52363" lon="-2.82582">
        <ele>48.9</ele>
        <time>2015-11-28T10:03:07Z</time>
      </trkpt>
      <trkpt lat="48.52368" lon="-2.82566">
        <ele>49</ele>
        <time>2015-11-28T10:03:10Z</time>
      </trkpt>
      <trkpt lat="48.52374" lon="-2.82549">
        <ele>49</ele>
        <time>2015-11-28T10:03:13Z</time>
      </trkpt>
      <trkpt lat="48.52379" lon="-2.82532">
        <ele>49.1</ele>
        <time>2015-11-28T10:03:16Z</time>
      </trkpt>
      <trkpt lat="48.52384" lon="-2.82516">
        <ele>49.2</ele>
        <time>2015-11-28T10:03:19Z</time>
      </trkpt>
      <trkpt lat="48.52388" lon="-2.82502">
        <ele>49.2</ele>
        <time>2015-11-28T10:03:22Z</time>
      </trkpt>
      <trkpt lat="48.5238" lon="-2.82494">
        <ele>50</ele>
        <time>2015-11-28T10:03:50Z</time>
      </trkpt>
      <trkpt lat="48.52371" lon="-2.82487">
        <ele>51.8</ele>
        <time>2015-11-28T10:04:03Z</time>
      </trkpt>
      <trkpt lat="48.52364" lon="-2.82476">
        <ele>53.2</ele>
        <time>2015-11-28T10:04:09Z</time>
      </trkpt>
      <trkpt lat="48.52356" lon="-2.82468">
        <ele>54.7</ele>
        <time>2015-11-28T10:04:15Z</time>
      </trkpt>
      <trkpt lat="48.5235" lon="-2.82457">
        <ele>55.9</ele>
        <time>2015-11-28T10:04:21Z</time>
      </trkpt>
      <trkpt lat="48.52343" lon="-2.82448">
        <ele>57</ele>
        <time>2015-11-28T10:04:27Z</time>
      </trkpt>
      <trkpt lat="48.52336" lon="-2.82439">
        <ele>58.7</ele>
        <time>2015-11-28T10:04:35Z</time>
      </trkpt>
      <trkpt lat="48.52328" lon="-2.82429">
        <ele>60.8</ele>
        <time>2015-11-28T10:04:44Z</time>
      </trkpt>
      <trkpt lat="48.52319" lon="-2.82419">
        <ele>62</ele>
        <time>2015-11-28T10:04:49Z</time>
      </trkpt>
      <trkpt lat="48.52311" lon="-2.82412">
        <ele>63.5</ele>
        <time>2015-11-28T10:04:55Z</time>
      </trkpt>
      <trkpt lat="48.52303" lon="-2.82404">
        <ele>64.9</ele>
        <time>2015-11-28T10:05:01Z</time>
      </trkpt>
      <trkpt lat="48.52295" lon="-2.82395">
        <ele>66.3</ele>
        <time>2015-11-28T10:05:07Z</time>
      </trkpt>
      <trkpt lat="48.52289" lon="-2.82386">
        <ele>67.6</ele>
        <time>2015-11-28T10:05:13Z</time>
      </trkpt>
      <trkpt lat="48.52281" lon="-2.82378">
        <ele>69.3</ele>
        <time>2015-11-28T10:05:21Z</time>
      </trkpt>
      <trkpt lat="48.52272" lon="-2.82367">
        <ele>70.6</ele>
        <time>2015-11-28T10:05:28Z</time>
      </trkpt>
      <trkpt lat="48.52264" lon="-2.8236">
        <ele>71.6</ele>
        <time>2015-11-28T10:05:33Z</time>
      </trkpt>
      <trkpt lat="48.52255" lon="-2.82357">
        <ele>72.6</ele>
        <time>2015-11-28T10:05:39Z</time>
      </trkpt>
      <trkpt lat="48.52244" lon="-2.82354">
        <ele>73</ele>
        <time>2015-11-28T10:05:43Z</time>
      </trkpt>
      <trkpt lat="48.52235" lon="-2.82349">
        <ele>73.2</ele>
        <time>2015-11-28T10:05:45Z</time>
      </trkpt>
      <trkpt lat="48.52223" lon="-2.82342">
        <ele>73.1</ele>
        <time>2015-11-28T10:05:47Z</time>
      </trkpt>
      <trkpt lat="48.52207" lon="-2.82333">
        <ele>72.8</ele>
        <time>2015-11-28T10:05:49Z</time>
      </trkpt>
      <trkpt lat="48.52197" lon="-2.82329">
        <ele>72.5</ele>
        <time>2015-11-28T10:05:50Z</time>
      </trkpt>
      <trkpt lat="48.52187" lon="-2.82325">
        <ele>72</ele>
        <time>2015-11-28T10:05:51Z</time>
      </trkpt>
      <trkpt lat="48.52175" lon="-2.82323">
        <ele>71.5</ele>
        <time>2015-11-28T10:05:52Z</time>
      </trkpt>
      <trkpt lat="48.52163" lon="-2.82323">
        <ele>71.1</ele>
        <time>2015-11-28T10:05:53Z</time>
      </trkpt>
      <trkpt lat="48.52152" lon="-2.82324">
        <ele>70.7</ele>
        <time>2015-11-28T10:05:54Z</time>
      </trkpt>
      <trkpt lat="48.52143" lon="-2.82325">
        <ele>70.3</ele>
        <time>2015-11-28T10:05:55Z</time>
      </trkpt>
      <trkpt lat="48.52129" lon="-2.82318">
        <ele>70</ele>
        <time>2015-11-28T10:05:57Z</time>
      </trkpt>
      <trkpt lat="48.52118" lon="-2.82311">
        <ele>69.9</ele>
        <time>2015-11-28T10:05:59Z</time>
      </trkpt>
      <trkpt lat="48.52111" lon="-2.82303">
        <ele>70.2</ele>
        <time>2015-11-28T10:06:01Z</time>
      </trkpt>
      <trkpt lat="48.52102" lon="-2.82294">
        <ele>70.7</ele>
        <time>2015-11-28T10:06:04Z</time>
      </trkpt>
      <trkpt lat="48.52094" lon="-2.82287">
        <ele>71.4</ele>
        <time>2015-11-28T10:06:07Z</time>
      </trkpt>
      <trkpt lat="48.52086" lon="-2.82277">
        <ele>72.4</ele>
        <time>2015-11-28T10:06:11Z</time>
      </trkpt>
      <trkpt lat="48.52077" lon="-2.82269">
        <ele>73.6</ele>
        <time>2015-11-28T10:06:16Z</time>
      </trkpt>
      <trkpt lat="48.52068" lon="-2.8226">
        <ele>74.8</ele>
        <time>2015-11-28T10:06:21Z</time>
      </trkpt>
      <trkpt lat="48.5206" lon="-2.82255">
        <ele>75.8</ele>
        <time>2015-11-28T10:06:26Z</time>
      </trkpt>
      <trkpt lat="48.52051" lon="-2.82248">
        <ele>76.8</ele>
        <time>2015-11-28T10:06:31Z</time>
      </trkpt>
      <trkpt lat="48.52042" lon="-2.82242">
        <ele>77.5</ele>
        <time>2015-11-28T10:06:36Z</time>
      </trkpt>
      <trkpt lat="48.52032" lon="-2.82236">
        <ele>78.4</ele>
        <time>2015-11-28T10:06:42Z</time>
      </trkpt>
      <trkpt lat="48.52022" lon="-2.82231">
        <ele>79.1</ele>
        <time>2015-11-28T10:06:47Z</time>
      </trkpt>
      <trkpt lat="48.52012" lon="-2.82228">
        <ele>79.7</ele>
        <time>2015-11-28T10:06:51Z</time>
      </trkpt>
      <trkpt lat="48.52003" lon="-2.82224">
        <ele>80.1</ele>
        <time>2015-11-28T10:06:54Z</time>
      </trkpt>
      <trkpt lat="48.51992" lon="-2.82219">
        <ele>80.5</ele>
        <time>2015-11-28T10:06:57Z</time>
      </trkpt>
      <trkpt lat="48.51982" lon="-2.82214">
        <ele>80.8</ele>
        <time>2015-11-28T10:07:00Z</time>
      </trkpt>
      <trkpt lat="48.51971" lon="-2.8221">
        <ele>81.1</ele>
        <time>2015-11-28T10:07:03Z</time>
      </trkpt>
      <trkpt lat="48.51959" lon="-2.82206">
        <ele>81.4</ele>
        <time>2015-11-28T10:07:06Z</time>
      </trkpt>
      <trkpt lat="48.51949" lon="-2.822">
        <ele>81.6</ele>
        <time>2015-11-28T10:07:09Z</time>
      </trkpt>
      <trkpt lat="48.51939" lon="-2.82192">
        <ele>81.8</ele>
        <time>2015-11-28T10:07:12Z</time>
      </trkpt>
      <trkpt lat="48.5193" lon="-2.82181">
        <ele>81.9</ele>
        <time>2015-11-28T10:07:15Z</time>
      </trkpt>
      <trkpt lat="48.51921" lon="-2.82169">
        <ele>82.1</ele>
        <time>2015-11-28T10:07:18Z</time>
      </trkpt>
      <trkpt lat="48.51913" lon="-2.82157">
        <ele>82.2</ele>
        <time>2015-11-28T10:07:21Z</time>
      </trkpt>
      <trkpt lat="48.51904" lon="-2.82145">
        <ele>82.3</ele>
        <time>2015-11-28T10:07:24Z</time>
      </trkpt>
      <trkpt lat="48.51894" lon="-2.82136">
        <ele>82.4</ele>
        <time>2015-11-28T10:07:27Z</time>
      </trkpt>
      <trkpt lat="48.51884" lon="-2.82127">
        <ele>82.5</ele>
        <time>2015-11-28T10:07:30Z</time>
      </trkpt>
      <trkpt lat="48.51875" lon="-2.82118">
        <ele>82.7</ele>
        <time>2015-11-28T10:07:33Z</time>
      </trkpt>
      <trkpt lat="48.51867" lon="-2.82109">
        <ele>82.9</ele>
        <time>2015-11-28T10:07:36Z</time>
      </trkpt>
      <trkpt lat="48.51858" lon="-2.82101">
        <ele>83.2</ele>
        <time>2015-11-28T10:07:39Z</time>
      </trkpt>
      <trkpt lat="48.51849" lon="-2.82093">
        <ele>83.6</ele>
        <time>2015-11-28T10:07:42Z</time>
      </trkpt>
      <trkpt lat="48.51841" lon="-2.82084">
        <ele>84</ele>
        <time>2015-11-28T10:07:45Z</time>
      </trkpt>
      <trkpt lat="48.51832" lon="-2.82075">
        <ele>84.5</ele>
        <time>2015-11-28T10:07:48Z</time>
      </trkpt>
      <trkpt lat="48.51823" lon="-2.82065">
        <ele>84.9</ele>
        <time>2015-11-28T10:07:51Z</time>
      </trkpt>
      <trkpt lat="48.51814" lon="-2.82055">
        <ele>85.2</ele>
        <time>2015-11-28T10:07:54Z</time>
      </trkpt>
      <trkpt lat="48.51804" lon="-2.82044">
        <ele>85.6</ele>
        <time>2015-11-28T10:07:57Z</time>
      </trkpt>
      <trkpt lat="48.51794" lon="-2.82033">
        <ele>85.9</ele>
        <time>2015-11-28T10:08:00Z</time>
      </trkpt>
      <trkpt lat="48.51784" lon="-2.82023">
        <ele>86.2</ele>
        <time>2015-11-28T10:08:03Z</time>
      </trkpt>
      <trkpt lat="48.51774" lon="-2.82014">
        <ele>86.4</ele>
        <time>2015-11-28T10:08:06Z</time>
      </trkpt>
      <trkpt lat="48.51763" lon="-2.82006">
        <ele>86.6</ele>
        <time>2015-11-28T10:08:09Z</time>
      </trkpt>
      <trkpt lat="48.51753" lon="-2.81997">
        <ele>86.8</ele>
        <time>2015-11-28T10:08:12Z</time>
      </trkpt>
      <trkpt lat="48.51743" lon="-2.81989">
        <ele>87</ele>
        <time>2015-11-28T10:08:15Z</time>
      </trkpt>
      <trkpt lat="48.51732" lon="-2.8198">
        <ele>87.1</ele>
        <time>2015-11-28T10:08:18Z</time>
      </trkpt>
      <trkpt lat="48.51722" lon="-2.81971">
        <ele>87.3</ele>
        <time>2015-11-28T10:08:21Z</time>
      </trkpt>
      <trkpt lat="48.51711" lon="-2.81962">
        <ele>87.4</ele>
        <time>2015-11-28T10:08:24Z</time>
      </trkpt>
      <trkpt lat="48.51701" lon="-2.81955">
        <ele>87.6</ele>
        <time>2015-11-28T10:08:27Z</time>
      </trkpt>
      <trkpt lat="48.5169" lon="-2.81952">
        <ele>87.7</ele>
        <time>2015-11-28T10:08:30Z</time>
      </trkpt>
      <trkpt lat="48.5168" lon="-2.81953">
        <ele>87.8</ele>
        <time>2015-11-28T10:08:33Z</time>
      </trkpt>
      <trkpt lat="48.51676" lon="-2.81939">
        <ele>87.8</ele>
        <time>2015-11-28T10:08:39Z</time>
      </trkpt>
      <trkpt lat="48.51676" lon="-2.81924">
        <ele>87.8</ele>
        <time>2015-11-28T10:08:43Z</time>
      </trkpt>
      <trkpt lat="48.51677" lon="-2.81908">
        <ele>87.8</ele>
        <time>2015-11-28T10:08:47Z</time>
      </trkpt>
      <trkpt lat="48.51677" lon="-2.81892">
        <ele>88</ele>
        <time>2015-11-28T10:08:51Z</time>
      </trkpt>
      <trkpt lat="48.51677" lon="-2.81876">
        <ele>88.5</ele>
        <time>2015-11-28T10:08:55Z</time>
      </trkpt>
      <trkpt lat="48.51676" lon="-2.81859">
        <ele>89</ele>
        <time>2015-11-28T10:08:59Z</time>
      </trkpt>
      <trkpt lat="48.51676" lon="-2.81842">
        <ele>89.5</ele>
        <time>2015-11-28T10:09:03Z</time>
      </trkpt>
      <trkpt lat="48.51675" lon="-2.81824">
        <ele>90.1</ele>
        <time>2015-11-28T10:09:07Z</time>
      </trkpt>
      <trkpt lat="48.51674" lon="-2.81807">
        <ele>90.8</ele>
        <time>2015-11-28T10:09:11Z</time>
      </trkpt>
      <trkpt lat="48.51673" lon="-2.81789">
        <ele>91.3</ele>
        <time>2015-11-28T10:09:15Z</time>
      </trkpt>
      <trkpt lat="48.51673" lon="-2.81774">
        <ele>91.7</ele>
        <time>2015-11-28T10:09:18Z</time>
      </trkpt>
      <trkpt lat="48.51673" lon="-2.8176">
        <ele>92.1</ele>
        <time>2015-11-28T10:09:21Z</time>
      </trkpt>
      <trkpt lat="48.51673" lon="-2.81746">
        <ele>92.5</ele>
        <time>2015-11-28T10:09:24Z</time>
      </trkpt>
      <trkpt lat="48.51672" lon="-2.81731">
        <ele>92.9</ele>
        <time>2015-11-28T10:09:27Z</time>
      </trkpt>
      <trkpt lat="48.51672" lon="-2.81716">
        <ele>93.4</ele>
        <time>2015-11-28T10:09:30Z</time>
      </trkpt>
      <trkpt lat="48.51671" lon="-2.81701">
        <ele>93.8</ele>
        <time>2015-11-28T10:09:33Z</time>
      </trkpt>
      <trkpt lat="48.51671" lon="-2.81687">
        <ele>94.2</ele>
        <time>2015-11-28T10:09:36Z</time>
      </trkpt>
      <trkpt lat="48.5167" lon="-2.81672">
        <ele>94.6</ele>
        <time>2015-11-28T10:09:39Z</time>
      </trkpt>
      <trkpt lat="48.5167" lon="-2.81657">
        <ele>95</ele>
        <time>2015-11-28T10:09:42Z</time>
      </trkpt>
      <trkpt lat="48.51669" lon="-2.81643">
        <ele>95.3</ele>
        <time>2015-11-28T10:09:45Z</time>
      </trkpt>
      <trkpt lat="48.51669" lon="-2.81628">
        <ele>95.7</ele>
        <time>2015-11-28T10:09:48Z</time>
      </trkpt>
      <trkpt lat="48.51668" lon="-2.81614">
        <ele>96.2</ele>
        <time>2015-11-28T10:09:51Z</time>
      </trkpt>
      <trkpt lat="48.51668" lon="-2.816">
        <ele>96.6</ele>
        <time>2015-11-28T10:09:54Z</time>
      </trkpt>
      <trkpt lat="48.51667" lon="-2.81585">
        <ele>97</ele>
        <time>2015-11-28T10:09:57Z</time>
      </trkpt>
      <trkpt lat="48.51666" lon="-2.81571">
        <ele>97.4</ele>
        <time>2015-11-28T10:10:00Z</time>
      </trkpt>
      <trkpt lat="48.51666" lon="-2.81557">
        <ele>97.8</ele>
        <time>2015-11-28T10:10:03Z</time>
      </trkpt>
      <trkpt lat="48.51666" lon="-2.81543">
        <ele>98.3</ele>
        <time>2015-11-28T10:10:06Z</time>
      </trkpt>
      <trkpt lat="48.51665" lon="-2.81525">
        <ele>98.9</ele>
        <time>2015-11-28T10:10:10Z</time>
      </trkpt>
      <trkpt lat="48.51664" lon="-2.81512">
        <ele>99.4</ele>
        <time>2015-11-28T10:10:13Z</time>
      </trkpt>
      <trkpt lat="48.51663" lon="-2.81498">
        <ele>100</ele>
        <time>2015-11-28T10:10:16Z</time>
      </trkpt>
      <trkpt lat="48.51662" lon="-2.81484">
        <ele>100.5</ele>
        <time>2015-11-28T10:10:19Z</time>
      </trkpt>
      <trkpt lat="48.51661" lon="-2.8147">
        <ele>101.1</ele>
        <time>2015-11-28T10:10:22Z</time>
      </trkpt>
      <trkpt lat="48.51659" lon="-2.81453">
        <ele>101.9</ele>
        <time>2015-11-28T10:10:26Z</time>
      </trkpt>
      <trkpt lat="48.51657" lon="-2.81436">
        <ele>102.8</ele>
        <time>2015-11-28T10:10:30Z</time>
      </trkpt>
      <trkpt lat="48.51654" lon="-2.81419">
        <ele>103.7</ele>
        <time>2015-11-28T10:10:34Z</time>
      </trkpt>
      <trkpt lat="48.51651" lon="-2.81403">
        <ele>104.5</ele>
        <time>2015-11-28T10:10:38Z</time>
      </trkpt>
      <trkpt lat="48.51647" lon="-2.81386">
        <ele>105.2</ele>
        <time>2015-11-28T10:10:42Z</time>
      </trkpt>
      <trkpt lat="48.51644" lon="-2.8137">
        <ele>105.8</ele>
        <time>2015-11-28T10:10:46Z</time>
      </trkpt>
      <trkpt lat="48.5164" lon="-2.81353">
        <ele>106.6</ele>
        <time>2015-11-28T10:10:50Z</time>
      </trkpt>
      <trkpt lat="48.51637" lon="-2.8134">
        <ele>107.1</ele>
        <time>2015-11-28T10:10:53Z</time>
      </trkpt>
      <trkpt lat="48.51634" lon="-2.81327">
        <ele>107.6</ele>
        <time>2015-11-28T10:10:56Z</time>
      </trkpt>
      <trkpt lat="48.5163" lon="-2.81313">
        <ele>108</ele>
        <time>2015-11-28T10:10:59Z</time>
      </trkpt>
      <trkpt lat="48.51627" lon="-2.81299">
        <ele>108.5</ele>
        <time>2015-11-28T10:11:02Z</time>
      </trkpt>
      <trkpt lat="48.51623" lon="-2.81285">
        <ele>108.8</ele>
        <time>2015-11-28T10:11:05Z</time>
      </trkpt>
      <trkpt lat="48.51619" lon="-2.8127">
        <ele>109.2</ele>
        <time>2015-11-28T10:11:08Z</time>
      </trkpt>
      <trkpt lat="48.51614" lon="-2.81254">
        <ele>109.4</ele>
        <time>2015-11-28T10:11:11Z</time>
      </trkpt>
      <trkpt lat="48.5161" lon="-2.81237">
        <ele>109.7</ele>
        <time>2015-11-28T10:11:14Z</time>
      </trkpt>
      <trkpt lat="48.51605" lon="-2.81222">
        <ele>109.8</ele>
        <time>2015-11-28T10:11:17Z</time>
      </trkpt>
      <trkpt lat="48.516" lon="-2.81205">
        <ele>110</ele>
        <time>2015-11-28T10:11:20Z</time>
      </trkpt>
      <trkpt lat="48.51594" lon="-2.81189">
        <ele>110.1</ele>
        <time>2015-11-28T10:11:23Z</time>
      </trkpt>
      <trkpt lat="48.51589" lon="-2.81176">
        <ele>110.2</ele>
        <time>2015-11-28T10:11:25Z</time>
      </trkpt>
      <trkpt lat="48.51585" lon="-2.81161">
        <ele>110.3</ele>
        <time>2015-11-28T10:11:27Z</time>
      </trkpt>
      <trkpt lat="48.51582" lon="-2.81144">
        <ele>110.3</ele>
        <time>2015-11-28T10:11:29Z</time>
      </trkpt>
      <trkpt lat="48.51582" lon="-2.81126">
        <ele>110.4</ele>
        <time>2015-11-28T10:11:31Z</time>
      </trkpt>
      <trkpt lat="48.51583" lon="-2.81109">
        <ele>110.4</ele>
        <time>2015-11-28T10:11:33Z</time>
      </trkpt>
      <trkpt lat="48.51586" lon="-2.81092">
        <ele>110.3</ele>
        <time>2015-11-28T10:11:35Z</time>
      </trkpt>
      <trkpt lat="48.5159" lon="-2.81075">
        <ele>110.3</ele>
        <time>2015-11-28T10:11:37Z</time>
      </trkpt>
      <trkpt lat="48.51596" lon="-2.81058">
        <ele>110.2</ele>
        <time>2015-11-28T10:11:39Z</time>
      </trkpt>
      <trkpt lat="48.51603" lon="-2.81041">
        <ele>110</ele>
        <time>2015-11-28T10:11:41Z</time>
      </trkpt>
      <trkpt lat="48.5161" lon="-2.81025">
        <ele>109.8</ele>
        <time>2015-11-28T10:11:43Z</time>
      </trkpt>
      <trkpt lat="48.51617" lon="-2.81011">
        <ele>109.6</ele>
        <time>2015-11-28T10:11:45Z</time>
      </trkpt>
      <trkpt lat="48.51624" lon="-2.80997">
        <ele>109.4</ele>
        <time>2015-11-28T10:11:47Z</time>
      </trkpt>
      <trkpt lat="48.51631" lon="-2.80986">
        <ele>109.3</ele>
        <time>2015-11-28T10:11:49Z</time>
      </trkpt>
      <trkpt lat="48.51638" lon="-2.80975">
        <ele>109.1</ele>
        <time>2015-11-28T10:11:51Z</time>
      </trkpt>
      <trkpt lat="48.51645" lon="-2.80964">
        <ele>109</ele>
        <time>2015-11-28T10:11:53Z</time>
      </trkpt>
      <trkpt lat="48.51652" lon="-2.80955">
        <ele>108.9</ele>
        <time>2015-11-28T10:11:55Z</time>
      </trkpt>
      <trkpt lat="48.5166" lon="-2.80946">
        <ele>108.9</ele>
        <time>2015-11-28T10:11:57Z</time>
      </trkpt>
      <trkpt lat="48.51667" lon="-2.80936">
        <ele>109</ele>
        <time>2015-11-28T10:11:59Z</time>
      </trkpt>
      <trkpt lat="48.51674" lon="-2.80926">
        <ele>109</ele>
        <time>2015-11-28T10:12:01Z</time>
      </trkpt>
      <trkpt lat="48.5168" lon="-2.80915">
        <ele>109.1</ele>
        <time>2015-11-28T10:12:03Z</time>
      </trkpt>
      <trkpt lat="48.51686" lon="-2.80905">
        <ele>109.1</ele>
        <time>2015-11-28T10:12:05Z</time>
      </trkpt>
      <trkpt lat="48.51695" lon="-2.80889">
        <ele>109.2</ele>
        <time>2015-11-28T10:12:08Z</time>
      </trkpt>
      <trkpt lat="48.51702" lon="-2.80873">
        <ele>109.2</ele>
        <time>2015-11-28T10:12:11Z</time>
      </trkpt>
      <trkpt lat="48.51707" lon="-2.80861">
        <ele>109.3</ele>
        <time>2015-11-28T10:12:13Z</time>
      </trkpt>
      <trkpt lat="48.51711" lon="-2.80849">
        <ele>109.3</ele>
        <time>2015-11-28T10:12:15Z</time>
      </trkpt>
      <trkpt lat="48.51717" lon="-2.80838">
        <ele>109.4</ele>
        <time>2015-11-28T10:12:17Z</time>
      </trkpt>
      <trkpt lat="48.51721" lon="-2.80826">
        <ele>109.5</ele>
        <time>2015-11-28T10:12:19Z</time>
      </trkpt>
      <trkpt lat="48.51725" lon="-2.80813">
        <ele>109.5</ele>
        <time>2015-11-28T10:12:21Z</time>
      </trkpt>
      <trkpt lat="48.51729" lon="-2.80801">
        <ele>109.6</ele>
        <time>2015-11-28T10:12:23Z</time>
      </trkpt>
      <trkpt lat="48.51734" lon="-2.80788">
        <ele>109.7</ele>
        <time>2015-11-28T10:12:25Z</time>
      </trkpt>
      <trkpt lat="48.51737" lon="-2.80775">
        <ele>109.8</ele>
        <time>2015-11-28T10:12:27Z</time>
      </trkpt>
      <trkpt lat="48.51741" lon="-2.80762">
        <ele>109.8</ele>
        <time>2015-11-28T10:12:29Z</time>
      </trkpt>
      <trkpt lat="48.51744" lon="-2.80749">
        <ele>109.9</ele>
        <time>2015-11-28T10:12:31Z</time>
      </trkpt>
      <trkpt lat="48.51747" lon="-2.8073">
        <ele>110.1</ele>
        <time>2015-11-28T10:12:34Z</time>
      </trkpt>
      <trkpt lat="48.51751" lon="-2.80711">
        <ele>110.2</ele>
        <time>2015-11-28T10:12:37Z</time>
      </trkpt>
      <trkpt lat="48.51755" lon="-2.80691">
        <ele>110.4</ele>
        <time>2015-11-28T10:12:40Z</time>
      </trkpt>
      <trkpt lat="48.51757" lon="-2.80672">
        <ele>110.5</ele>
        <time>2015-11-28T10:12:43Z</time>
      </trkpt>
      <trkpt lat="48.51758" lon="-2.80654">
        <ele>110.7</ele>
        <time>2015-11-28T10:12:46Z</time>
      </trkpt>
      <trkpt lat="48.51759" lon="-2.80634">
        <ele>110.8</ele>
        <time>2015-11-28T10:12:49Z</time>
      </trkpt>
      <trkpt lat="48.5176" lon="-2.80616">
        <ele>110.9</ele>
        <time>2015-11-28T10:12:52Z</time>
      </trkpt>
      <trkpt lat="48.51757" lon="-2.80602">
        <ele>111</ele>
        <time>2015-11-28T10:12:55Z</time>
      </trkpt>
      <trkpt lat="48.51752" lon="-2.80588">
        <ele>111.1</ele>
        <time>2015-11-28T10:12:58Z</time>
      </trkpt>
      <trkpt lat="48.51751" lon="-2.80573">
        <ele>111.1</ele>
        <time>2015-11-28T10:13:00Z</time>
      </trkpt>
      <trkpt lat="48.51757" lon="-2.80557">
        <ele>111.2</ele>
        <time>2015-11-28T10:13:02Z</time>
      </trkpt>
      <trkpt lat="48.51766" lon="-2.80545">
        <ele>111.2</ele>
        <time>2015-11-28T10:13:04Z</time>
      </trkpt>
      <trkpt lat="48.51773" lon="-2.80532">
        <ele>111.3</ele>
        <time>2015-11-28T10:13:06Z</time>
      </trkpt>
      <trkpt lat="48.51777" lon="-2.80515">
        <ele>111.4</ele>
        <time>2015-11-28T10:13:08Z</time>
      </trkpt>
      <trkpt lat="48.5178" lon="-2.80499">
        <ele>111.4</ele>
        <time>2015-11-28T10:13:10Z</time>
      </trkpt>
      <trkpt lat="48.51781" lon="-2.80483">
        <ele>111.4</ele>
        <time>2015-11-28T10:13:12Z</time>
      </trkpt>
      <trkpt lat="48.51782" lon="-2.80468">
        <ele>111.5</ele>
        <time>2015-11-28T10:13:14Z</time>
      </trkpt>
      <trkpt lat="48.51784" lon="-2.80452">
        <ele>111.5</ele>
        <time>2015-11-28T10:13:16Z</time>
      </trkpt>
      <trkpt lat="48.51786" lon="-2.80436">
        <ele>111.5</ele>
        <time>2015-11-28T10:13:18Z</time>
      </trkpt>
      <trkpt lat="48.5179" lon="-2.80421">
        <ele>111.5</ele>
        <time>2015-11-28T10:13:20Z</time>
      </trkpt>
      <trkpt lat="48.51792" lon="-2.80405">
        <ele>111.6</ele>
        <time>2015-11-28T10:13:22Z</time>
      </trkpt>
      <trkpt lat="48.51792" lon="-2.80389">
        <ele>111.6</ele>
        <time>2015-11-28T10:13:24Z</time>
      </trkpt>
      <trkpt lat="48.51794" lon="-2.80373">
        <ele>111.6</ele>
        <time>2015-11-28T10:13:26Z</time>
      </trkpt>
      <trkpt lat="48.51795" lon="-2.80357">
        <ele>111.6</ele>
        <time>2015-11-28T10:13:28Z</time>
      </trkpt>
      <trkpt lat="48.51796" lon="-2.8034">
        <ele>111.6</ele>
        <time>2015-11-28T10:13:30Z</time>
      </trkpt>
      <trkpt lat="48.51796" lon="-2.80324">
        <ele>111.6</ele>
        <time>2015-11-28T10:13:32Z</time>
      </trkpt>
      <trkpt lat="48.51796" lon="-2.80309">
        <ele>111.6</ele>
        <time>2015-11-28T10:13:34Z</time>
      </trkpt>
      <trkpt lat="48.51795" lon="-2.80293">
        <ele>111.7</ele>
        <time>2015-11-28T10:13:36Z</time>
      </trkpt>
      <trkpt lat="48.51795" lon="-2.80277">
        <ele>111.7</ele>
        <time>2015-11-28T10:13:38Z</time>
      </trkpt>
      <trkpt lat="48.51796" lon="-2.80262">
        <ele>111.7</ele>
        <time>2015-11-28T10:13:40Z</time>
      </trkpt>
      <trkpt lat="48.51796" lon="-2.80247">
        <ele>111.7</ele>
        <time>2015-11-28T10:13:42Z</time>
      </trkpt>
      <trkpt lat="48.51797" lon="-2.80232">
        <ele>111.7</ele>
        <time>2015-11-28T10:13:44Z</time>
      </trkpt>
      <trkpt lat="48.51797" lon="-2.80217">
        <ele>111.7</ele>
        <time>2015-11-28T10:13:46Z</time>
      </trkpt>
      <trkpt lat="48.51798" lon="-2.80202">
        <ele>111.7</ele>
        <time>2015-11-28T10:13:48Z</time>
      </trkpt>
      <trkpt lat="48.51798" lon="-2.80187">
        <ele>111.7</ele>
        <time>2015-11-28T10:13:50Z</time>
      </trkpt>
      <trkpt lat="48.51799" lon="-2.80172">
        <ele>111.7</ele>
        <time>2015-11-28T10:13:52Z</time>
      </trkpt>
      <trkpt lat="48.51799" lon="-2.80158">
        <ele>111.8</ele>
        <time>2015-11-28T10:13:54Z</time>
      </trkpt>
      <trkpt lat="48.518" lon="-2.80143">
        <ele>111.8</ele>
        <time>2015-11-28T10:13:56Z</time>
      </trkpt>
      <trkpt lat="48.518" lon="-2.80128">
        <ele>111.9</ele>
        <time>2015-11-28T10:13:58Z</time>
      </trkpt>
      <trkpt lat="48.51801" lon="-2.80113">
        <ele>111.9</ele>
        <time>2015-11-28T10:14:00Z</time>
      </trkpt>
      <trkpt lat="48.51801" lon="-2.80098">
        <ele>112</ele>
        <time>2015-11-28T10:14:02Z</time>
      </trkpt>
      <trkpt lat="48.51802" lon="-2.80083">
        <ele>112</ele>
        <time>2015-11-28T10:14:04Z</time>
      </trkpt>
      <trkpt lat="48.51802" lon="-2.80068">
        <ele>112</ele>
        <time>2015-11-28T10:14:06Z</time>
      </trkpt>
      <trkpt lat="48.51803" lon="-2.80053">
        <ele>112</ele>
        <time>2015-11-28T10:14:08Z</time>
      </trkpt>
      <trkpt lat="48.51804" lon="-2.80039">
        <ele>112.1</ele>
        <time>2015-11-28T10:14:10Z</time>
      </trkpt>
      <trkpt lat="48.51805" lon="-2.80024">
        <ele>112.1</ele>
        <time>2015-11-28T10:14:12Z</time>
      </trkpt>
      <trkpt lat="48.51806" lon="-2.8001">
        <ele>112.1</ele>
        <time>2015-11-28T10:14:14Z</time>
      </trkpt>
      <trkpt lat="48.51807" lon="-2.79996">
        <ele>112.2</ele>
        <time>2015-11-28T10:14:16Z</time>
      </trkpt>
      <trkpt lat="48.5181" lon="-2.79983">
        <ele>112.2</ele>
        <time>2015-11-28T10:14:18Z</time>
      </trkpt>
      <trkpt lat="48.51818" lon="-2.7997">
        <ele>112.3</ele>
        <time>2015-11-28T10:14:21Z</time>
      </trkpt>
      <trkpt lat="48.51829" lon="-2.79967">
        <ele>112.4</ele>
        <time>2015-11-28T10:14:24Z</time>
      </trkpt>
      <trkpt lat="48.51842" lon="-2.79974">
        <ele>112.5</ele>
        <time>2015-11-28T10:14:27Z</time>
      </trkpt>
      <trkpt lat="48.51851" lon="-2.79979">
        <ele>112.5</ele>
        <time>2015-11-28T10:14:29Z</time>
      </trkpt>
      <trkpt lat="48.5186" lon="-2.79986">
        <ele>112.6</ele>
        <time>2015-11-28T10:14:31Z</time>
      </trkpt>
      <trkpt lat="48.51869" lon="-2.79992">
        <ele>112.6</ele>
        <time>2015-11-28T10:14:33Z</time>
      </trkpt>
      <trkpt lat="48.51879" lon="-2.79998">
        <ele>112.7</ele>
        <time>2015-11-28T10:14:35Z</time>
      </trkpt>
      <trkpt lat="48.51888" lon="-2.80005">
        <ele>112.7</ele>
        <time>2015-11-28T10:14:37Z</time>
      </trkpt>
      <trkpt lat="48.51897" lon="-2.80011">
        <ele>112.7</ele>
        <time>2015-11-28T10:14:39Z</time>
      </trkpt>
      <trkpt lat="48.51906" lon="-2.80017">
        <ele>112.8</ele>
        <time>2015-11-28T10:14:41Z</time>
      </trkpt>
      <trkpt lat="48.51915" lon="-2.80023">
        <ele>112.8</ele>
        <time>2015-11-28T10:14:43Z</time>
      </trkpt>
      <trkpt lat="48.51924" lon="-2.8003">
        <ele>112.8</ele>
        <time>2015-11-28T10:14:45Z</time>
      </trkpt>
      <trkpt lat="48.51933" lon="-2.80035">
        <ele>112.8</ele>
        <time>2015-11-28T10:14:47Z</time>
      </trkpt>
      <trkpt lat="48.51943" lon="-2.80043">
        <ele>112.9</ele>
        <time>2015-11-28T10:14:50Z</time>
      </trkpt>
      <trkpt lat="48.51953" lon="-2.80049">
        <ele>112.9</ele>
        <time>2015-11-28T10:14:53Z</time>
      </trkpt>
      <trkpt lat="48.51964" lon="-2.80056">
        <ele>112.9</ele>
        <time>2015-11-28T10:14:56Z</time>
      </trkpt>
      <trkpt lat="48.51976" lon="-2.80057">
        <ele>112.9</ele>
        <time>2015-11-28T10:14:59Z</time>
      </trkpt>
      <trkpt lat="48.51987" lon="-2.8005">
        <ele>112.8</ele>
        <time>2015-11-28T10:15:02Z</time>
      </trkpt>
      <trkpt lat="48.51999" lon="-2.80042">
        <ele>112.8</ele>
        <time>2015-11-28T10:15:05Z</time>
      </trkpt>
      <trkpt lat="48.52009" lon="-2.80031">
        <ele>112.7</ele>
        <time>2015-11-28T10:15:08Z</time>
      </trkpt>
      <trkpt lat="48.52019" lon="-2.8002">
        <ele>112.6</ele>
        <time>2015-11-28T10:15:11Z</time>
      </trkpt>
      <trkpt lat="48.52026" lon="-2.80012">
        <ele>112.5</ele>
        <time>2015-11-28T10:15:13Z</time>
      </trkpt>
      <trkpt lat="48.52034" lon="-2.80004">
        <ele>112.4</ele>
        <time>2015-11-28T10:15:15Z</time>
      </trkpt>
      <trkpt lat="48.52042" lon="-2.79997">
        <ele>112.3</ele>
        <time>2015-11-28T10:15:17Z</time>
      </trkpt>
      <trkpt lat="48.52049" lon="-2.79989">
        <ele>112.3</ele>
        <time>2015-11-28T10:15:19Z</time>
      </trkpt>
      <trkpt lat="48.52057" lon="-2.79981">
        <ele>112.2</ele>
        <time>2015-11-28T10:15:21Z</time>
      </trkpt>
      <trkpt lat="48.52068" lon="-2.79972">
        <ele>112.1</ele>
        <time>2015-11-28T10:15:24Z</time>
      </trkpt>
      <trkpt lat="48.52077" lon="-2.79965">
        <ele>112.1</ele>
        <time>2015-11-28T10:15:27Z</time>
      </trkpt>
      <trkpt lat="48.52076" lon="-2.79951">
        <ele>112.1</ele>
        <time>2015-11-28T10:15:42Z</time>
      </trkpt>
      <trkpt lat="48.52086" lon="-2.79949">
        <ele>112.3</ele>
        <time>2015-11-28T10:15:54Z</time>
      </trkpt>
      <trkpt lat="48.52096" lon="-2.79947">
        <ele>112.7</ele>
        <time>2015-11-28T10:16:01Z</time>
      </trkpt>
      <trkpt lat="48.52105" lon="-2.79938">
        <ele>112.9</ele>
        <time>2015-11-28T10:16:05Z</time>
      </trkpt>
      <trkpt lat="48.5211" lon="-2.79923">
        <ele>113.1</ele>
        <time>2015-11-28T10:16:08Z</time>
      </trkpt>
      <trkpt lat="48.52116" lon="-2.79909">
        <ele>113.2</ele>
        <time>2015-11-28T10:16:11Z</time>
      </trkpt>
      <trkpt lat="48.52122" lon="-2.79894">
        <ele>113.3</ele>
        <time>2015-11-28T10:16:14Z</time>
      </trkpt>
      <trkpt lat="48.52127" lon="-2.79878">
        <ele>113.4</ele>
        <time>2015-11-28T10:16:17Z</time>
      </trkpt>
      <trkpt lat="48.52132" lon="-2.79863">
        <ele>113.5</ele>
        <time>2015-11-28T10:16:20Z</time>
      </trkpt>
      <trkpt lat="48.52138" lon="-2.79848">
        <ele>113.6</ele>
        <time>2015-11-28T10:16:23Z</time>
      </trkpt>
      <trkpt lat="48.52143" lon="-2.79833">
        <ele>113.8</ele>
        <time>2015-11-28T10:16:26Z</time>
      </trkpt>
      <trkpt lat="48.52148" lon="-2.7982">
        <ele>113.9</ele>
        <time>2015-11-28T10:16:29Z</time>
      </trkpt>
      <trkpt lat="48.52159" lon="-2.79822">
        <ele>114</ele>
        <time>2015-11-28T10:16:34Z</time>
      </trkpt>
      <trkpt lat="48.52168" lon="-2.79828">
        <ele>114.1</ele>
        <time>2015-11-28T10:16:37Z</time>
      </trkpt>
      <trkpt lat="48.52176" lon="-2.79835">
        <ele>114.1</ele>
        <time>2015-11-28T10:16:40Z</time>
      </trkpt>
      <trkpt lat="48.52185" lon="-2.79843">
        <ele>114.2</ele>
        <time>2015-11-28T10:16:43Z</time>
      </trkpt>
      <trkpt lat="48.52193" lon="-2.7985">
        <ele>114.2</ele>
        <time>2015-11-28T10:16:46Z</time>
      </trkpt>
      <trkpt lat="48.52201" lon="-2.79857">
        <ele>114.2</ele>
        <time>2015-11-28T10:16:49Z</time>
      </trkpt>
      <trkpt lat="48.5221" lon="-2.79864">
        <ele>114.3</ele>
        <time>2015-11-28T10:16:52Z</time>
      </trkpt>
      <trkpt lat="48.5222" lon="-2.79859">
        <ele>114.3</ele>
        <time>2015-11-28T10:16:56Z</time>
      </trkpt>
      <trkpt lat="48.52227" lon="-2.79846">
        <ele>114.3</ele>
        <time>2015-11-28T10:17:00Z</time>
      </trkpt>
      <trkpt lat="48.52236" lon="-2.79839">
        <ele>114.3</ele>
        <time>2015-11-28T10:17:05Z</time>
      </trkpt>
      <trkpt lat="48.52245" lon="-2.79828">
        <ele>114.4</ele>
        <time>2015-11-28T10:17:08Z</time>
      </trkpt>
      <trkpt lat="48.52252" lon="-2.79815">
        <ele>114.4</ele>
        <time>2015-11-28T10:17:11Z</time>
      </trkpt>
      <trkpt lat="48.52247" lon="-2.79797">
        <ele>114.6</ele>
        <time>2015-11-28T10:17:14Z</time>
      </trkpt>
      <trkpt lat="48.52241" lon="-2.79785">
        <ele>114.7</ele>
        <time>2015-11-28T10:17:16Z</time>
      </trkpt>
      <trkpt lat="48.52234" lon="-2.79774">
        <ele>114.8</ele>
        <time>2015-11-28T10:17:18Z</time>
      </trkpt>
      <trkpt lat="48.52228" lon="-2.79762">
        <ele>114.8</ele>
        <time>2015-11-28T10:17:20Z</time>
      </trkpt>
      <trkpt lat="48.52222" lon="-2.79751">
        <ele>114.8</ele>
        <time>2015-11-28T10:17:22Z</time>
      </trkpt>
      <trkpt lat="48.52215" lon="-2.7974">
        <ele>114.8</ele>
        <time>2015-11-28T10:17:24Z</time>
      </trkpt>
      <trkpt lat="48.52208" lon="-2.79729">
        <ele>114.7</ele>
        <time>2015-11-28T10:17:26Z</time>
      </trkpt>
      <trkpt lat="48.522" lon="-2.79718">
        <ele>114.6</ele>
        <time>2015-11-28T10:17:28Z</time>
      </trkpt>
      <trkpt lat="48.5219" lon="-2.79706">
        <ele>114.5</ele>
        <time>2015-11-28T10:17:30Z</time>
      </trkpt>
      <trkpt lat="48.52179" lon="-2.79694">
        <ele>114.2</ele>
        <time>2015-11-28T10:17:32Z</time>
      </trkpt>
      <trkpt lat="48.52167" lon="-2.79683">
        <ele>113.9</ele>
        <time>2015-11-28T10:17:34Z</time>
      </trkpt>
      <trkpt lat="48.52155" lon="-2.79672">
        <ele>113.6</ele>
        <time>2015-11-28T10:17:36Z</time>
      </trkpt>
      <trkpt lat="48.52144" lon="-2.7966">
        <ele>113.3</ele>
        <time>2015-11-28T10:17:38Z</time>
      </trkpt>
      <trkpt lat="48.52133" lon="-2.7965">
        <ele>113</ele>
        <time>2015-11-28T10:17:40Z</time>
      </trkpt>
      <trkpt lat="48.52122" lon="-2.79641">
        <ele>112.7</ele>
        <time>2015-11-28T10:17:42Z</time>
      </trkpt>
      <trkpt lat="48.52113" lon="-2.7963">
        <ele>112.4</ele>
        <time>2015-11-28T10:17:44Z</time>
      </trkpt>
      <trkpt lat="48.52104" lon="-2.79619">
        <ele>112.1</ele>
        <time>2015-11-28T10:17:46Z</time>
      </trkpt>
      <trkpt lat="48.52097" lon="-2.79607">
        <ele>111.9</ele>
        <time>2015-11-28T10:17:48Z</time>
      </trkpt>
      <trkpt lat="48.52091" lon="-2.79592">
        <ele>111.7</ele>
        <time>2015-11-28T10:17:50Z</time>
      </trkpt>
      <trkpt lat="48.52085" lon="-2.79577">
        <ele>111.4</ele>
        <time>2015-11-28T10:17:52Z</time>
      </trkpt>
      <trkpt lat="48.52081" lon="-2.79562">
        <ele>111.1</ele>
        <time>2015-11-28T10:17:54Z</time>
      </trkpt>
      <trkpt lat="48.52076" lon="-2.79547">
        <ele>110.9</ele>
        <time>2015-11-28T10:17:56Z</time>
      </trkpt>
      <trkpt lat="48.52071" lon="-2.79532">
        <ele>110.7</ele>
        <time>2015-11-28T10:17:58Z</time>
      </trkpt>
      <trkpt lat="48.52064" lon="-2.79518">
        <ele>110.5</ele>
        <time>2015-11-28T10:18:00Z</time>
      </trkpt>
      <trkpt lat="48.52056" lon="-2.79506">
        <ele>110.3</ele>
        <time>2015-11-28T10:18:02Z</time>
      </trkpt>
      <trkpt lat="48.52048" lon="-2.79495">
        <ele>110.1</ele>
        <time>2015-11-28T10:18:04Z</time>
      </trkpt>
      <trkpt lat="48.52039" lon="-2.79485">
        <ele>109.9</ele>
        <time>2015-11-28T10:18:06Z</time>
      </trkpt>
      <trkpt lat="48.52036" lon="-2.79472">
        <ele>109.7</ele>
        <time>2015-11-28T10:18:08Z</time>
      </trkpt>
      <trkpt lat="48.5204" lon="-2.79459">
        <ele>109.5</ele>
        <time>2015-11-28T10:18:10Z</time>
      </trkpt>
      <trkpt lat="48.52042" lon="-2.79444">
        <ele>109.3</ele>
        <time>2015-11-28T10:18:12Z</time>
      </trkpt>
      <trkpt lat="48.52042" lon="-2.79428">
        <ele>109.1</ele>
        <time>2015-11-28T10:18:14Z</time>
      </trkpt>
      <trkpt lat="48.52042" lon="-2.79411">
        <ele>108.8</ele>
        <time>2015-11-28T10:18:16Z</time>
      </trkpt>
      <trkpt lat="48.52047" lon="-2.79397">
        <ele>108.6</ele>
        <time>2015-11-28T10:18:18Z</time>
      </trkpt>
      <trkpt lat="48.52057" lon="-2.79396">
        <ele>108.4</ele>
        <time>2015-11-28T10:18:20Z</time>
      </trkpt>
      <trkpt lat="48.52066" lon="-2.79396">
        <ele>108.2</ele>
        <time>2015-11-28T10:18:22Z</time>
      </trkpt>
      <trkpt lat="48.52072" lon="-2.79383">
        <ele>107.7</ele>
        <time>2015-11-28T10:18:27Z</time>
      </trkpt>
      <trkpt lat="48.52073" lon="-2.79368">
        <ele>107.5</ele>
        <time>2015-11-28T10:18:30Z</time>
      </trkpt>
      <trkpt lat="48.52073" lon="-2.79351">
        <ele>107.2</ele>
        <time>2015-11-28T10:18:33Z</time>
      </trkpt>
      <trkpt lat="48.52079" lon="-2.79339">
        <ele>107</ele>
        <time>2015-11-28T10:18:36Z</time>
      </trkpt>
      <trkpt lat="48.52089" lon="-2.79339">
        <ele>106.8</ele>
        <time>2015-11-28T10:18:39Z</time>
      </trkpt>
      <trkpt lat="48.52095" lon="-2.79328">
        <ele>106.5</ele>
        <time>2015-11-28T10:18:43Z</time>
      </trkpt>
      <trkpt lat="48.52096" lon="-2.79314">
        <ele>106.4</ele>
        <time>2015-11-28T10:18:47Z</time>
      </trkpt>
      <trkpt lat="48.521" lon="-2.793">
        <ele>106.2</ele>
        <time>2015-11-28T10:18:50Z</time>
      </trkpt>
      <trkpt lat="48.52104" lon="-2.79285">
        <ele>106.1</ele>
        <time>2015-11-28T10:18:52Z</time>
      </trkpt>
      <trkpt lat="48.52109" lon="-2.79269">
        <ele>105.9</ele>
        <time>2015-11-28T10:18:55Z</time>
      </trkpt>
      <trkpt lat="48.52111" lon="-2.79253">
        <ele>105.7</ele>
        <time>2015-11-28T10:18:59Z</time>
      </trkpt>
      <trkpt lat="48.52115" lon="-2.79236">
        <ele>105.5</ele>
        <time>2015-11-28T10:19:02Z</time>
      </trkpt>
      <trkpt lat="48.5212" lon="-2.79222">
        <ele>105.4</ele>
        <time>2015-11-28T10:19:04Z</time>
      </trkpt>
      <trkpt lat="48.52128" lon="-2.79207">
        <ele>105.2</ele>
        <time>2015-11-28T10:19:06Z</time>
      </trkpt>
      <trkpt lat="48.52135" lon="-2.79189">
        <ele>105</ele>
        <time>2015-11-28T10:19:09Z</time>
      </trkpt>
      <trkpt lat="48.52141" lon="-2.79172">
        <ele>104.8</ele>
        <time>2015-11-28T10:19:11Z</time>
      </trkpt>
      <trkpt lat="48.52145" lon="-2.79159">
        <ele>104.7</ele>
        <time>2015-11-28T10:19:13Z</time>
      </trkpt>
      <trkpt lat="48.5215" lon="-2.79146">
        <ele>104.6</ele>
        <time>2015-11-28T10:19:15Z</time>
      </trkpt>
      <trkpt lat="48.52157" lon="-2.79126">
        <ele>104.3</ele>
        <time>2015-11-28T10:19:18Z</time>
      </trkpt>
      <trkpt lat="48.52161" lon="-2.79113">
        <ele>104.2</ele>
        <time>2015-11-28T10:19:20Z</time>
      </trkpt>
      <trkpt lat="48.52168" lon="-2.79099">
        <ele>104</ele>
        <time>2015-11-28T10:19:22Z</time>
      </trkpt>
      <trkpt lat="48.52173" lon="-2.79086">
        <ele>103.8</ele>
        <time>2015-11-28T10:19:24Z</time>
      </trkpt>
      <trkpt lat="48.52179" lon="-2.79072">
        <ele>103.6</ele>
        <time>2015-11-28T10:19:26Z</time>
      </trkpt>
      <trkpt lat="48.52186" lon="-2.79056">
        <ele>103.4</ele>
        <time>2015-11-28T10:19:29Z</time>
      </trkpt>
      <trkpt lat="48.52193" lon="-2.79046">
        <ele>103.3</ele>
        <time>2015-11-28T10:19:31Z</time>
      </trkpt>
      <trkpt lat="48.522" lon="-2.79037">
        <ele>103.2</ele>
        <time>2015-11-28T10:19:33Z</time>
      </trkpt>
      <trkpt lat="48.52208" lon="-2.79027">
        <ele>103</ele>
        <time>2015-11-28T10:19:35Z</time>
      </trkpt>
      <trkpt lat="48.52217" lon="-2.7902">
        <ele>102.9</ele>
        <time>2015-11-28T10:19:37Z</time>
      </trkpt>
      <trkpt lat="48.52226" lon="-2.79006">
        <ele>102.8</ele>
        <time>2015-11-28T10:19:40Z</time>
      </trkpt>
      <trkpt lat="48.52233" lon="-2.78993">
        <ele>102.8</ele>
        <time>2015-11-28T10:19:43Z</time>
      </trkpt>
      <trkpt lat="48.52239" lon="-2.78981">
        <ele>102.8</ele>
        <time>2015-11-28T10:19:46Z</time>
      </trkpt>
      <trkpt lat="48.52242" lon="-2.78966">
        <ele>102.7</ele>
        <time>2015-11-28T10:19:49Z</time>
      </trkpt>
      <trkpt lat="48.52251" lon="-2.78955">
        <ele>102.6</ele>
        <time>2015-11-28T10:19:53Z</time>
      </trkpt>
      <trkpt lat="48.52259" lon="-2.78944">
        <ele>102.5</ele>
        <time>2015-11-28T10:19:56Z</time>
      </trkpt>
      <trkpt lat="48.52267" lon="-2.78931">
        <ele>102.5</ele>
        <time>2015-11-28T10:19:59Z</time>
      </trkpt>
      <trkpt lat="48.52276" lon="-2.78917">
        <ele>102.4</ele>
        <time>2015-11-28T10:20:02Z</time>
      </trkpt>
      <trkpt lat="48.52286" lon="-2.78903">
        <ele>102.3</ele>
        <time>2015-11-28T10:20:05Z</time>
      </trkpt>
      <trkpt lat="48.52295" lon="-2.78888">
        <ele>102.3</ele>
        <time>2015-11-28T10:20:08Z</time>
      </trkpt>
      <trkpt lat="48.52301" lon="-2.78878">
        <ele>102.3</ele>
        <time>2015-11-28T10:20:10Z</time>
      </trkpt>
      <trkpt lat="48.52307" lon="-2.78867">
        <ele>102.3</ele>
        <time>2015-11-28T10:20:12Z</time>
      </trkpt>
      <trkpt lat="48.52313" lon="-2.78856">
        <ele>102.2</ele>
        <time>2015-11-28T10:20:14Z</time>
      </trkpt>
      <trkpt lat="48.52322" lon="-2.78842">
        <ele>102.2</ele>
        <time>2015-11-28T10:20:17Z</time>
      </trkpt>
      <trkpt lat="48.52331" lon="-2.78827">
        <ele>102.2</ele>
        <time>2015-11-28T10:20:20Z</time>
      </trkpt>
      <trkpt lat="48.52338" lon="-2.78817">
        <ele>102.2</ele>
        <time>2015-11-28T10:20:22Z</time>
      </trkpt>
      <trkpt lat="48.52345" lon="-2.78808">
        <ele>102.2</ele>
        <time>2015-11-28T10:20:24Z</time>
      </trkpt>
      <trkpt lat="48.52352" lon="-2.78799">
        <ele>102.1</ele>
        <time>2015-11-28T10:20:26Z</time>
      </trkpt>
      <trkpt lat="48.52364" lon="-2.78788">
        <ele>102.1</ele>
        <time>2015-11-28T10:20:29Z</time>
      </trkpt>
      <trkpt lat="48.52372" lon="-2.78779">
        <ele>102</ele>
        <time>2015-11-28T10:20:31Z</time>
      </trkpt>
      <trkpt lat="48.52379" lon="-2.78771">
        <ele>101.9</ele>
        <time>2015-11-28T10:20:33Z</time>
      </trkpt>
      <trkpt lat="48.52387" lon="-2.78763">
        <ele>101.8</ele>
        <time>2015-11-28T10:20:35Z</time>
      </trkpt>
      <trkpt lat="48.52395" lon="-2.78752">
        <ele>101.6</ele>
        <time>2015-11-28T10:20:39Z</time>
      </trkpt>
      <trkpt lat="48.52397" lon="-2.78737">
        <ele>101.5</ele>
        <time>2015-11-28T10:20:43Z</time>
      </trkpt>
      <trkpt lat="48.52403" lon="-2.78724">
        <ele>101.4</ele>
        <time>2015-11-28T10:20:46Z</time>
      </trkpt>
      <trkpt lat="48.5241" lon="-2.78712">
        <ele>101.4</ele>
        <time>2015-11-28T10:20:49Z</time>
      </trkpt>
      <trkpt lat="48.52419" lon="-2.787">
        <ele>101.3</ele>
        <time>2015-11-28T10:20:52Z</time>
      </trkpt>
      <trkpt lat="48.52428" lon="-2.78687">
        <ele>101.3</ele>
        <time>2015-11-28T10:20:55Z</time>
      </trkpt>
      <trkpt lat="48.52437" lon="-2.78676">
        <ele>101.3</ele>
        <time>2015-11-28T10:20:58Z</time>
      </trkpt>
      <trkpt lat="48.52448" lon="-2.78663">
        <ele>101.2</ele>
        <time>2015-11-28T10:21:01Z</time>
      </trkpt>
      <trkpt lat="48.52455" lon="-2.78654">
        <ele>101.2</ele>
        <time>2015-11-28T10:21:03Z</time>
      </trkpt>
      <trkpt lat="48.52464" lon="-2.78644">
        <ele>101.2</ele>
        <time>2015-11-28T10:21:05Z</time>
      </trkpt>
      <trkpt lat="48.52473" lon="-2.78635">
        <ele>101</ele>
        <time>2015-11-28T10:21:07Z</time>
      </trkpt>
      <trkpt lat="48.52482" lon="-2.78624">
        <ele>100.9</ele>
        <time>2015-11-28T10:21:09Z</time>
      </trkpt>
      <trkpt lat="48.52491" lon="-2.78614">
        <ele>100.7</ele>
        <time>2015-11-28T10:21:11Z</time>
      </trkpt>
      <trkpt lat="48.52499" lon="-2.78603">
        <ele>100.5</ele>
        <time>2015-11-28T10:21:13Z</time>
      </trkpt>
      <trkpt lat="48.52505" lon="-2.78589">
        <ele>100.3</ele>
        <time>2015-11-28T10:21:15Z</time>
      </trkpt>
      <trkpt lat="48.52508" lon="-2.78574">
        <ele>100.1</ele>
        <time>2015-11-28T10:21:17Z</time>
      </trkpt>
      <trkpt lat="48.52512" lon="-2.78559">
        <ele>100</ele>
        <time>2015-11-28T10:21:19Z</time>
      </trkpt>
      <trkpt lat="48.52515" lon="-2.78544">
        <ele>99.8</ele>
        <time>2015-11-28T10:21:21Z</time>
      </trkpt>
      <trkpt lat="48.52518" lon="-2.78529">
        <ele>99.7</ele>
        <time>2015-11-28T10:21:23Z</time>
      </trkpt>
      <trkpt lat="48.52521" lon="-2.78514">
        <ele>99.5</ele>
        <time>2015-11-28T10:21:25Z</time>
      </trkpt>
      <trkpt lat="48.52523" lon="-2.78499">
        <ele>99.4</ele>
        <time>2015-11-28T10:21:27Z</time>
      </trkpt>
      <trkpt lat="48.52524" lon="-2.78483">
        <ele>99.3</ele>
        <time>2015-11-28T10:21:29Z</time>
      </trkpt>
      <trkpt lat="48.52523" lon="-2.78465">
        <ele>99.1</ele>
        <time>2015-11-28T10:21:31Z</time>
      </trkpt>
      <trkpt lat="48.52523" lon="-2.78445">
        <ele>98.7</ele>
        <time>2015-11-28T10:21:33Z</time>
      </trkpt>
      <trkpt lat="48.52524" lon="-2.78428">
        <ele>98.4</ele>
        <time>2015-11-28T10:21:35Z</time>
      </trkpt>
      <trkpt lat="48.52522" lon="-2.7841">
        <ele>98</ele>
        <time>2015-11-28T10:21:38Z</time>
      </trkpt>
      <trkpt lat="48.52525" lon="-2.78394">
        <ele>97.8</ele>
        <time>2015-11-28T10:21:40Z</time>
      </trkpt>
      <trkpt lat="48.52527" lon="-2.78379">
        <ele>97.6</ele>
        <time>2015-11-28T10:21:42Z</time>
      </trkpt>
      <trkpt lat="48.52529" lon="-2.78358">
        <ele>97.3</ele>
        <time>2015-11-28T10:21:45Z</time>
      </trkpt>
      <trkpt lat="48.5253" lon="-2.78343">
        <ele>97.2</ele>
        <time>2015-11-28T10:21:47Z</time>
      </trkpt>
      <trkpt lat="48.5253" lon="-2.78328">
        <ele>97</ele>
        <time>2015-11-28T10:21:49Z</time>
      </trkpt>
      <trkpt lat="48.52531" lon="-2.78311">
        <ele>96.9</ele>
        <time>2015-11-28T10:21:52Z</time>
      </trkpt>
      <trkpt lat="48.52532" lon="-2.78296">
        <ele>96.8</ele>
        <time>2015-11-28T10:21:56Z</time>
      </trkpt>
      <trkpt lat="48.52533" lon="-2.78282">
        <ele>96.6</ele>
        <time>2015-11-28T10:22:16Z</time>
      </trkpt>
      <trkpt lat="48.52534" lon="-2.78268">
        <ele>96.6</ele>
        <time>2015-11-28T10:22:19Z</time>
      </trkpt>
      <trkpt lat="48.52535" lon="-2.78252">
        <ele>96.6</ele>
        <time>2015-11-28T10:22:22Z</time>
      </trkpt>
      <trkpt lat="48.52537" lon="-2.78231">
        <ele>96.3</ele>
        <time>2015-11-28T10:22:25Z</time>
      </trkpt>
      <trkpt lat="48.52538" lon="-2.78214">
        <ele>95.9</ele>
        <time>2015-11-28T10:22:27Z</time>
      </trkpt>
      <trkpt lat="48.5254" lon="-2.78194">
        <ele>95.4</ele>
        <time>2015-11-28T10:22:29Z</time>
      </trkpt>
      <trkpt lat="48.52541" lon="-2.78173">
        <ele>95</ele>
        <time>2015-11-28T10:22:31Z</time>
      </trkpt>
      <trkpt lat="48.52539" lon="-2.78155">
        <ele>94.4</ele>
        <time>2015-11-28T10:22:33Z</time>
      </trkpt>
      <trkpt lat="48.52534" lon="-2.78138">
        <ele>93.8</ele>
        <time>2015-11-28T10:22:35Z</time>
      </trkpt>
      <trkpt lat="48.52529" lon="-2.78119">
        <ele>93</ele>
        <time>2015-11-28T10:22:37Z</time>
      </trkpt>
      <trkpt lat="48.52526" lon="-2.781">
        <ele>92.2</ele>
        <time>2015-11-28T10:22:39Z</time>
      </trkpt>
      <trkpt lat="48.5252" lon="-2.78081">
        <ele>91.1</ele>
        <time>2015-11-28T10:22:41Z</time>
      </trkpt>
      <trkpt lat="48.52516" lon="-2.78064">
        <ele>90.1</ele>
        <time>2015-11-28T10:22:43Z</time>
      </trkpt>
      <trkpt lat="48.52514" lon="-2.78046">
        <ele>89.2</ele>
        <time>2015-11-28T10:22:45Z</time>
      </trkpt>
      <trkpt lat="48.52509" lon="-2.78025">
        <ele>88.4</ele>
        <time>2015-11-28T10:22:47Z</time>
      </trkpt>
      <trkpt lat="48.52506" lon="-2.78002">
        <ele>87.4</ele>
        <time>2015-11-28T10:22:49Z</time>
      </trkpt>
      <trkpt lat="48.52507" lon="-2.77987">
        <ele>86.4</ele>
        <time>2015-11-28T10:22:51Z</time>
      </trkpt>
      <trkpt lat="48.52505" lon="-2.77972">
        <ele>85.2</ele>
        <time>2015-11-28T10:22:53Z</time>
      </trkpt>
      <trkpt lat="48.52502" lon="-2.77949">
        <ele>83.9</ele>
        <time>2015-11-28T10:22:55Z</time>
      </trkpt>
      <trkpt lat="48.52504" lon="-2.77925">
        <ele>82.8</ele>
        <time>2015-11-28T10:22:57Z</time>
      </trkpt>
      <trkpt lat="48.52511" lon="-2.77902">
        <ele>81.6</ele>
        <time>2015-11-28T10:22:59Z</time>
      </trkpt>
      <trkpt lat="48.52519" lon="-2.77882">
        <ele>80.4</ele>
        <time>2015-11-28T10:23:01Z</time>
      </trkpt>
      <trkpt lat="48.52523" lon="-2.77862">
        <ele>79.4</ele>
        <time>2015-11-28T10:23:03Z</time>
      </trkpt>
      <trkpt lat="48.52533" lon="-2.77862">
        <ele>76.6</ele>
        <time>2015-11-28T10:23:09Z</time>
      </trkpt>
      <trkpt lat="48.5254" lon="-2.77872">
        <ele>74.7</ele>
        <time>2015-11-28T10:23:13Z</time>
      </trkpt>
      <trkpt lat="48.52541" lon="-2.7789">
        <ele>73.2</ele>
        <time>2015-11-28T10:23:16Z</time>
      </trkpt>
      <trkpt lat="48.52539" lon="-2.77909">
        <ele>71.5</ele>
        <time>2015-11-28T10:23:19Z</time>
      </trkpt>
      <trkpt lat="48.52541" lon="-2.77926">
        <ele>70.2</ele>
        <time>2015-11-28T10:23:21Z</time>
      </trkpt>
      <trkpt lat="48.52544" lon="-2.77942">
        <ele>68.6</ele>
        <time>2015-11-28T10:23:23Z</time>
      </trkpt>
      <trkpt lat="48.52548" lon="-2.77961">
        <ele>67</ele>
        <time>2015-11-28T10:23:25Z</time>
      </trkpt>
      <trkpt lat="48.52551" lon="-2.7798">
        <ele>65.4</ele>
        <time>2015-11-28T10:23:27Z</time>
      </trkpt>
      <trkpt lat="48.52555" lon="-2.77998">
        <ele>63.8</ele>
        <time>2015-11-28T10:23:29Z</time>
      </trkpt>
      <trkpt lat="48.52559" lon="-2.78018">
        <ele>62.3</ele>
        <time>2015-11-28T10:23:31Z</time>
      </trkpt>
      <trkpt lat="48.52563" lon="-2.78036">
        <ele>60.6</ele>
        <time>2015-11-28T10:23:33Z</time>
      </trkpt>
      <trkpt lat="48.52571" lon="-2.78054">
        <ele>58.9</ele>
        <time>2015-11-28T10:23:35Z</time>
      </trkpt>
      <trkpt lat="48.52583" lon="-2.78071">
        <ele>56.8</ele>
        <time>2015-11-28T10:23:37Z</time>
      </trkpt>
      <trkpt lat="48.52591" lon="-2.78078">
        <ele>55.9</ele>
        <time>2015-11-28T10:23:38Z</time>
      </trkpt>
      <trkpt lat="48.52599" lon="-2.78092">
        <ele>53.9</ele>
        <time>2015-11-28T10:23:40Z</time>
      </trkpt>
      <trkpt lat="48.52606" lon="-2.78102">
        <ele>51.9</ele>
        <time>2015-11-28T10:23:42Z</time>
      </trkpt>
      <trkpt lat="48.52615" lon="-2.78114">
        <ele>48.6</ele>
        <time>2015-11-28T10:23:45Z</time>
      </trkpt>
      <trkpt lat="48.52624" lon="-2.78122">
        <ele>46.5</ele>
        <time>2015-11-28T10:23:47Z</time>
      </trkpt>
      <trkpt lat="48.52633" lon="-2.78127">
        <ele>44</ele>
        <time>2015-11-28T10:23:49Z</time>
      </trkpt>
      <trkpt lat="48.52642" lon="-2.78138">
        <ele>41.6</ele>
        <time>2015-11-28T10:23:51Z</time>
      </trkpt>
      <trkpt lat="48.5265" lon="-2.78148">
        <ele>39.2</ele>
        <time>2015-11-28T10:23:53Z</time>
      </trkpt>
      <trkpt lat="48.52659" lon="-2.78154">
        <ele>36.6</ele>
        <time>2015-11-28T10:23:55Z</time>
      </trkpt>
      <trkpt lat="48.5267" lon="-2.7816">
        <ele>29.2</ele>
        <time>2015-11-28T10:24:01Z</time>
      </trkpt>
      <trkpt lat="48.52679" lon="-2.7816">
        <ele>24.3</ele>
        <time>2015-11-28T10:24:05Z</time>
      </trkpt>
      <trkpt lat="48.52687" lon="-2.78151">
        <ele>18.6</ele>
        <time>2015-11-28T10:24:11Z</time>
      </trkpt>
      <trkpt lat="48.52682" lon="-2.78138">
        <ele>13.3</ele>
        <time>2015-11-28T10:24:20Z</time>
      </trkpt>
      <trkpt lat="48.52678" lon="-2.78123">
        <ele>11.2</ele>
        <time>2015-11-28T10:24:26Z</time>
      </trkpt>
      <trkpt lat="48.52671" lon="-2.78112">
        <ele>10.1</ele>
        <time>2015-11-28T10:24:30Z</time>
      </trkpt>
      <trkpt lat="48.52665" lon="-2.78097">
        <ele>9.3</ele>
        <time>2015-11-28T10:24:34Z</time>
      </trkpt>
      <trkpt lat="48.52659" lon="-2.78086">
        <ele>8.8</ele>
        <time>2015-11-28T10:24:37Z</time>
      </trkpt>
      <trkpt lat="48.52652" lon="-2.78073">
        <ele>8.3</ele>
        <time>2015-11-28T10:24:40Z</time>
      </trkpt>
      <trkpt lat="48.52646" lon="-2.78059">
        <ele>7.9</ele>
        <time>2015-11-28T10:24:43Z</time>
      </trkpt>
      <trkpt lat="48.52638" lon="-2.78047">
        <ele>7.6</ele>
        <time>2015-11-28T10:24:46Z</time>
      </trkpt>
      <trkpt lat="48.5263" lon="-2.78034">
        <ele>7.3</ele>
        <time>2015-11-28T10:24:49Z</time>
      </trkpt>
      <trkpt lat="48.52623" lon="-2.78019">
        <ele>7</ele>
        <time>2015-11-28T10:24:52Z</time>
      </trkpt>
      <trkpt lat="48.52616" lon="-2.78004">
        <ele>6.8</ele>
        <time>2015-11-28T10:24:55Z</time>
      </trkpt>
      <trkpt lat="48.52612" lon="-2.77988">
        <ele>6.6</ele>
        <time>2015-11-28T10:24:58Z</time>
      </trkpt>
      <trkpt lat="48.5261" lon="-2.77975">
        <ele>6.5</ele>
        <time>2015-11-28T10:25:00Z</time>
      </trkpt>
      <trkpt lat="48.52609" lon="-2.7796">
        <ele>6.5</ele>
        <time>2015-11-28T10:25:02Z</time>
      </trkpt>
      <trkpt lat="48.52607" lon="-2.77944">
        <ele>6.4</ele>
        <time>2015-11-28T10:25:04Z</time>
      </trkpt>
      <trkpt lat="48.52608" lon="-2.77926">
        <ele>6.3</ele>
        <time>2015-11-28T10:25:07Z</time>
      </trkpt>
      <trkpt lat="48.52607" lon="-2.77908">
        <ele>6.2</ele>
        <time>2015-11-28T10:25:10Z</time>
      </trkpt>
      <trkpt lat="48.52606" lon="-2.7789">
        <ele>6.1</ele>
        <time>2015-11-28T10:25:13Z</time>
      </trkpt>
      <trkpt lat="48.52605" lon="-2.77874">
        <ele>6.1</ele>
        <time>2015-11-28T10:25:16Z</time>
      </trkpt>
      <trkpt lat="48.52608" lon="-2.77858">
        <ele>6</ele>
        <time>2015-11-28T10:25:19Z</time>
      </trkpt>
      <trkpt lat="48.5261" lon="-2.77842">
        <ele>6</ele>
        <time>2015-11-28T10:25:22Z</time>
      </trkpt>
      <trkpt lat="48.52613" lon="-2.77825">
        <ele>5.9</ele>
        <time>2015-11-28T10:25:25Z</time>
      </trkpt>
      <trkpt lat="48.52615" lon="-2.77807">
        <ele>5.9</ele>
        <time>2015-11-28T10:25:28Z</time>
      </trkpt>
      <trkpt lat="48.52614" lon="-2.7779">
        <ele>5.8</ele>
        <time>2015-11-28T10:25:31Z</time>
      </trkpt>
      <trkpt lat="48.52611" lon="-2.77777">
        <ele>5.7</ele>
        <time>2015-11-28T10:25:34Z</time>
      </trkpt>
      <trkpt lat="48.5261" lon="-2.7776">
        <ele>5.5</ele>
        <time>2015-11-28T10:25:37Z</time>
      </trkpt>
      <trkpt lat="48.52611" lon="-2.77744">
        <ele>5.4</ele>
        <time>2015-11-28T10:25:40Z</time>
      </trkpt>
      <trkpt lat="48.52612" lon="-2.77725">
        <ele>5.3</ele>
        <time>2015-11-28T10:25:43Z</time>
      </trkpt>
      <trkpt lat="48.52612" lon="-2.77708">
        <ele>5.3</ele>
        <time>2015-11-28T10:25:46Z</time>
      </trkpt>
      <trkpt lat="48.52613" lon="-2.77692">
        <ele>5.2</ele>
        <time>2015-11-28T10:25:49Z</time>
      </trkpt>
      <trkpt lat="48.52612" lon="-2.77676">
        <ele>5.2</ele>
        <time>2015-11-28T10:25:52Z</time>
      </trkpt>
      <trkpt lat="48.52613" lon="-2.77657">
        <ele>5.1</ele>
        <time>2015-11-28T10:25:55Z</time>
      </trkpt>
      <trkpt lat="48.52613" lon="-2.77637">
        <ele>5.1</ele>
        <time>2015-11-28T10:25:58Z</time>
      </trkpt>
      <trkpt lat="48.52609" lon="-2.77621">
        <ele>5.1</ele>
        <time>2015-11-28T10:26:01Z</time>
      </trkpt>
      <trkpt lat="48.52606" lon="-2.77603">
        <ele>5</ele>
        <time>2015-11-28T10:26:04Z</time>
      </trkpt>
      <trkpt lat="48.52603" lon="-2.77587">
        <ele>5</ele>
        <time>2015-11-28T10:26:07Z</time>
      </trkpt>
      <trkpt lat="48.52597" lon="-2.77575">
        <ele>4.9</ele>
        <time>2015-11-28T10:26:10Z</time>
      </trkpt>
      <trkpt lat="48.52589" lon="-2.77563">
        <ele>4.7</ele>
        <time>2015-11-28T10:26:14Z</time>
      </trkpt>
      <trkpt lat="48.52579" lon="-2.77557">
        <ele>4.5</ele>
        <time>2015-11-28T10:26:19Z</time>
      </trkpt>
      <trkpt lat="48.52574" lon="-2.77546">
        <ele>4.6</ele>
        <time>2015-11-28T10:26:32Z</time>
      </trkpt>
      <trkpt lat="48.5258" lon="-2.77535">
        <ele>4.9</ele>
        <time>2015-11-28T10:26:39Z</time>
      </trkpt>
      <trkpt lat="48.52586" lon="-2.77522">
        <ele>5.2</ele>
        <time>2015-11-28T10:26:48Z</time>
      </trkpt>
      <trkpt lat="48.52593" lon="-2.77511">
        <ele>5.2</ele>
        <time>2015-11-28T10:26:51Z</time>
      </trkpt>
      <trkpt lat="48.52601" lon="-2.77503">
        <ele>5.2</ele>
        <time>2015-11-28T10:26:54Z</time>
      </trkpt>
      <trkpt lat="48.52608" lon="-2.77494">
        <ele>5.1</ele>
        <time>2015-11-28T10:26:58Z</time>
      </trkpt>
      <trkpt lat="48.52616" lon="-2.77485">
        <ele>5.1</ele>
        <time>2015-11-28T10:27:02Z</time>
      </trkpt>
      <trkpt lat="48.52622" lon="-2.77474">
        <ele>5</ele>
        <time>2015-11-28T10:27:05Z</time>
      </trkpt>
      <trkpt lat="48.52627" lon="-2.77462">
        <ele>5</ele>
        <time>2015-11-28T10:27:08Z</time>
      </trkpt>
      <trkpt lat="48.52635" lon="-2.77448">
        <ele>4.9</ele>
        <time>2015-11-28T10:27:12Z</time>
      </trkpt>
      <trkpt lat="48.52643" lon="-2.77441">
        <ele>4.9</ele>
        <time>2015-11-28T10:27:15Z</time>
      </trkpt>
      <trkpt lat="48.52651" lon="-2.77434">
        <ele>4.9</ele>
        <time>2015-11-28T10:27:18Z</time>
      </trkpt>
      <trkpt lat="48.52659" lon="-2.77427">
        <ele>4.8</ele>
        <time>2015-11-28T10:27:21Z</time>
      </trkpt>
      <trkpt lat="48.52668" lon="-2.77419">
        <ele>4.9</ele>
        <time>2015-11-28T10:27:24Z</time>
      </trkpt>
      <trkpt lat="48.52676" lon="-2.77412">
        <ele>5</ele>
        <time>2015-11-28T10:27:27Z</time>
      </trkpt>
      <trkpt lat="48.52684" lon="-2.77406">
        <ele>5.2</ele>
        <time>2015-11-28T10:27:31Z</time>
      </trkpt>
      <trkpt lat="48.52682" lon="-2.77392">
        <ele>5.4</ele>
        <time>2015-11-28T10:27:36Z</time>
      </trkpt>
      <trkpt lat="48.52678" lon="-2.77378">
        <ele>5.6</ele>
        <time>2015-11-28T10:27:40Z</time>
      </trkpt>
      <trkpt lat="48.52673" lon="-2.77362">
        <ele>5.7</ele>
        <time>2015-11-28T10:27:44Z</time>
      </trkpt>
      <trkpt lat="48.52669" lon="-2.77347">
        <ele>5.8</ele>
        <time>2015-11-28T10:27:47Z</time>
      </trkpt>
      <trkpt lat="48.52665" lon="-2.77331">
        <ele>5.9</ele>
        <time>2015-11-28T10:27:50Z</time>
      </trkpt>
      <trkpt lat="48.52661" lon="-2.77316">
        <ele>5.9</ele>
        <time>2015-11-28T10:27:53Z</time>
      </trkpt>
      <trkpt lat="48.52656" lon="-2.773">
        <ele>6</ele>
        <time>2015-11-28T10:27:56Z</time>
      </trkpt>
      <trkpt lat="48.52651" lon="-2.77284">
        <ele>6</ele>
        <time>2015-11-28T10:27:59Z</time>
      </trkpt>
      <trkpt lat="48.52647" lon="-2.77268">
        <ele>6</ele>
        <time>2015-11-28T10:28:02Z</time>
      </trkpt>
      <trkpt lat="48.52643" lon="-2.77255">
        <ele>6.1</ele>
        <time>2015-11-28T10:28:05Z</time>
      </trkpt>
      <trkpt lat="48.5264" lon="-2.77241">
        <ele>6.1</ele>
        <time>2015-11-28T10:28:10Z</time>
      </trkpt>
      <trkpt lat="48.52642" lon="-2.77227">
        <ele>6.1</ele>
        <time>2015-11-28T10:28:15Z</time>
      </trkpt>
      <trkpt lat="48.52639" lon="-2.77213">
        <ele>6.3</ele>
        <time>2015-11-28T10:28:20Z</time>
      </trkpt>
      <trkpt lat="48.52637" lon="-2.77199">
        <ele>7</ele>
        <time>2015-11-28T10:28:26Z</time>
      </trkpt>
      <trkpt lat="48.52636" lon="-2.77183">
        <ele>8.3</ele>
        <time>2015-11-28T10:28:33Z</time>
      </trkpt>
      <trkpt lat="48.52637" lon="-2.77168">
        <ele>9.9</ele>
        <time>2015-11-28T10:28:41Z</time>
      </trkpt>
      <trkpt lat="48.5264" lon="-2.77154">
        <ele>11.2</ele>
        <time>2015-11-28T10:28:47Z</time>
      </trkpt>
      <trkpt lat="48.52643" lon="-2.77141">
        <ele>12.8</ele>
        <time>2015-11-28T10:28:54Z</time>
      </trkpt>
      <trkpt lat="48.52647" lon="-2.77126">
        <ele>14.6</ele>
        <time>2015-11-28T10:29:02Z</time>
      </trkpt>
      <trkpt lat="48.52652" lon="-2.77114">
        <ele>16.5</ele>
        <time>2015-11-28T10:29:10Z</time>
      </trkpt>
      <trkpt lat="48.52658" lon="-2.77101">
        <ele>18.7</ele>
        <time>2015-11-28T10:29:18Z</time>
      </trkpt>
      <trkpt lat="48.52663" lon="-2.77089">
        <ele>20.4</ele>
        <time>2015-11-28T10:29:24Z</time>
      </trkpt>
      <trkpt lat="48.52667" lon="-2.77076">
        <ele>22.8</ele>
        <time>2015-11-28T10:29:31Z</time>
      </trkpt>
      <trkpt lat="48.52671" lon="-2.77063">
        <ele>24.6</ele>
        <time>2015-11-28T10:29:36Z</time>
      </trkpt>
      <trkpt lat="48.52681" lon="-2.77062">
        <ele>27.7</ele>
        <time>2015-11-28T10:29:45Z</time>
      </trkpt>
      <trkpt lat="48.52688" lon="-2.77072">
        <ele>29.9</ele>
        <time>2015-11-28T10:29:54Z</time>
      </trkpt>
      <trkpt lat="48.52691" lon="-2.77085">
        <ele>31.3</ele>
        <time>2015-11-28T10:30:02Z</time>
      </trkpt>
      <trkpt lat="48.52693" lon="-2.77099">
        <ele>32.7</ele>
        <time>2015-11-28T10:30:09Z</time>
      </trkpt>
      <trkpt lat="48.52693" lon="-2.77114">
        <ele>34.4</ele>
        <time>2015-11-28T10:30:16Z</time>
      </trkpt>
      <trkpt lat="48.52696" lon="-2.77129">
        <ele>36.1</ele>
        <time>2015-11-28T10:30:23Z</time>
      </trkpt>
      <trkpt lat="48.52701" lon="-2.7714">
        <ele>38.3</ele>
        <time>2015-11-28T10:30:31Z</time>
      </trkpt>
      <trkpt lat="48.52709" lon="-2.7713">
        <ele>43.8</ele>
        <time>2015-11-28T10:30:49Z</time>
      </trkpt>
      <trkpt lat="48.52714" lon="-2.77118">
        <ele>45.6</ele>
        <time>2015-11-28T10:30:57Z</time>
      </trkpt>
      <trkpt lat="48.52719" lon="-2.77105">
        <ele>47.4</ele>
        <time>2015-11-28T10:31:06Z</time>
      </trkpt>
      <trkpt lat="48.52723" lon="-2.77091">
        <ele>49.1</ele>
        <time>2015-11-28T10:31:14Z</time>
      </trkpt>
      <trkpt lat="48.52726" lon="-2.77076">
        <ele>50.5</ele>
        <time>2015-11-28T10:31:22Z</time>
      </trkpt>
      <trkpt lat="48.52727" lon="-2.77061">
        <ele>51.7</ele>
        <time>2015-11-28T10:31:28Z</time>
      </trkpt>
      <trkpt lat="48.52728" lon="-2.77047">
        <ele>52.9</ele>
        <time>2015-11-28T10:31:35Z</time>
      </trkpt>
      <trkpt lat="48.52727" lon="-2.77031">
        <ele>54.3</ele>
        <time>2015-11-28T10:31:42Z</time>
      </trkpt>
      <trkpt lat="48.5273" lon="-2.77017">
        <ele>55.8</ele>
        <time>2015-11-28T10:31:48Z</time>
      </trkpt>
      <trkpt lat="48.52728" lon="-2.77003">
        <ele>57.4</ele>
        <time>2015-11-28T10:31:55Z</time>
      </trkpt>
      <trkpt lat="48.52723" lon="-2.76989">
        <ele>58.2</ele>
        <time>2015-11-28T10:32:00Z</time>
      </trkpt>
      <trkpt lat="48.52725" lon="-2.76973">
        <ele>59</ele>
        <time>2015-11-28T10:32:05Z</time>
      </trkpt>
      <trkpt lat="48.52731" lon="-2.76961">
        <ele>60.2</ele>
        <time>2015-11-28T10:32:10Z</time>
      </trkpt>
      <trkpt lat="48.52736" lon="-2.76947">
        <ele>62.2</ele>
        <time>2015-11-28T10:32:17Z</time>
      </trkpt>
      <trkpt lat="48.52741" lon="-2.76933">
        <ele>63.8</ele>
        <time>2015-11-28T10:32:23Z</time>
      </trkpt>
      <trkpt lat="48.52743" lon="-2.76919">
        <ele>66.2</ele>
        <time>2015-11-28T10:32:31Z</time>
      </trkpt>
      <trkpt lat="48.52736" lon="-2.76906">
        <ele>68.8</ele>
        <time>2015-11-28T10:32:40Z</time>
      </trkpt>
      <trkpt lat="48.52727" lon="-2.76902">
        <ele>70.5</ele>
        <time>2015-11-28T10:32:47Z</time>
      </trkpt>
      <trkpt lat="48.52716" lon="-2.76905">
        <ele>72</ele>
        <time>2015-11-28T10:32:54Z</time>
      </trkpt>
      <trkpt lat="48.52706" lon="-2.76904">
        <ele>73.5</ele>
        <time>2015-11-28T10:33:01Z</time>
      </trkpt>
      <trkpt lat="48.52696" lon="-2.769">
        <ele>75.1</ele>
        <time>2015-11-28T10:33:07Z</time>
      </trkpt>
      <trkpt lat="48.52693" lon="-2.76887">
        <ele>76.8</ele>
        <time>2015-11-28T10:33:13Z</time>
      </trkpt>
      <trkpt lat="48.52694" lon="-2.76871">
        <ele>78.7</ele>
        <time>2015-11-28T10:33:20Z</time>
      </trkpt>
      <trkpt lat="48.52697" lon="-2.76858">
        <ele>80.2</ele>
        <time>2015-11-28T10:33:26Z</time>
      </trkpt>
      <trkpt lat="48.52699" lon="-2.76843">
        <ele>81.9</ele>
        <time>2015-11-28T10:33:33Z</time>
      </trkpt>
      <trkpt lat="48.527" lon="-2.76828">
        <ele>83.5</ele>
        <time>2015-11-28T10:33:40Z</time>
      </trkpt>
      <trkpt lat="48.52699" lon="-2.76815">
        <ele>85.1</ele>
        <time>2015-11-28T10:33:47Z</time>
      </trkpt>
      <trkpt lat="48.52693" lon="-2.76802">
        <ele>86.7</ele>
        <time>2015-11-28T10:33:54Z</time>
      </trkpt>
      <trkpt lat="48.52689" lon="-2.76788">
        <ele>88.1</ele>
        <time>2015-11-28T10:34:00Z</time>
      </trkpt>
      <trkpt lat="48.52685" lon="-2.76774">
        <ele>89.2</ele>
        <time>2015-11-28T10:34:05Z</time>
      </trkpt>
      <trkpt lat="48.5268" lon="-2.76761">
        <ele>90.3</ele>
        <time>2015-11-28T10:34:10Z</time>
      </trkpt>
      <trkpt lat="48.52674" lon="-2.7675">
        <ele>91.4</ele>
        <time>2015-11-28T10:34:15Z</time>
      </trkpt>
      <trkpt lat="48.52668" lon="-2.76738">
        <ele>92.6</ele>
        <time>2015-11-28T10:34:20Z</time>
      </trkpt>
      <trkpt lat="48.52663" lon="-2.76724">
        <ele>94.5</ele>
        <time>2015-11-28T10:34:26Z</time>
      </trkpt>
      <trkpt lat="48.52658" lon="-2.7671">
        <ele>96.4</ele>
        <time>2015-11-28T10:34:33Z</time>
      </trkpt>
      <trkpt lat="48.52653" lon="-2.76697">
        <ele>97.9</ele>
        <time>2015-11-28T10:34:39Z</time>
      </trkpt>
      <trkpt lat="48.52647" lon="-2.76684">
        <ele>99.4</ele>
        <time>2015-11-28T10:34:45Z</time>
      </trkpt>
      <trkpt lat="48.52643" lon="-2.7667">
        <ele>100.4</ele>
        <time>2015-11-28T10:34:50Z</time>
      </trkpt>
      <trkpt lat="48.52637" lon="-2.76657">
        <ele>101.3</ele>
        <time>2015-11-28T10:34:55Z</time>
      </trkpt>
      <trkpt lat="48.5263" lon="-2.76645">
        <ele>102.1</ele>
        <time>2015-11-28T10:35:00Z</time>
      </trkpt>
      <trkpt lat="48.52625" lon="-2.7663">
        <ele>102.6</ele>
        <time>2015-11-28T10:35:04Z</time>
      </trkpt>
      <trkpt lat="48.52621" lon="-2.76617">
        <ele>103</ele>
        <time>2015-11-28T10:35:08Z</time>
      </trkpt>
      <trkpt lat="48.52619" lon="-2.76603">
        <ele>103.2</ele>
        <time>2015-11-28T10:35:12Z</time>
      </trkpt>
      <trkpt lat="48.52619" lon="-2.76586">
        <ele>103.6</ele>
        <time>2015-11-28T10:35:20Z</time>
      </trkpt>
      <trkpt lat="48.52619" lon="-2.76569">
        <ele>103.8</ele>
        <time>2015-11-28T10:35:24Z</time>
      </trkpt>
      <trkpt lat="48.52619" lon="-2.76552">
        <ele>103.9</ele>
        <time>2015-11-28T10:35:28Z</time>
      </trkpt>
      <trkpt lat="48.5262" lon="-2.76538">
        <ele>103.9</ele>
        <time>2015-11-28T10:35:31Z</time>
      </trkpt>
      <trkpt lat="48.52619" lon="-2.76524">
        <ele>104.1</ele>
        <time>2015-11-28T10:35:35Z</time>
      </trkpt>
      <trkpt lat="48.5262" lon="-2.76507">
        <ele>104.3</ele>
        <time>2015-11-28T10:35:39Z</time>
      </trkpt>
      <trkpt lat="48.52624" lon="-2.7649">
        <ele>104.5</ele>
        <time>2015-11-28T10:35:43Z</time>
      </trkpt>
      <trkpt lat="48.52624" lon="-2.76475">
        <ele>104.6</ele>
        <time>2015-11-28T10:35:46Z</time>
      </trkpt>
      <trkpt lat="48.5262" lon="-2.76455">
        <ele>104.7</ele>
        <time>2015-11-28T10:35:49Z</time>
      </trkpt>
      <trkpt lat="48.52618" lon="-2.76439">
        <ele>104.5</ele>
        <time>2015-11-28T10:35:51Z</time>
      </trkpt>
      <trkpt lat="48.52619" lon="-2.7642">
        <ele>104.2</ele>
        <time>2015-11-28T10:35:53Z</time>
      </trkpt>
      <trkpt lat="48.52623" lon="-2.764">
        <ele>103.6</ele>
        <time>2015-11-28T10:35:55Z</time>
      </trkpt>
      <trkpt lat="48.52627" lon="-2.76381">
        <ele>103.1</ele>
        <time>2015-11-28T10:35:57Z</time>
      </trkpt>
      <trkpt lat="48.52632" lon="-2.76363">
        <ele>102.6</ele>
        <time>2015-11-28T10:35:59Z</time>
      </trkpt>
      <trkpt lat="48.52635" lon="-2.76347">
        <ele>102.1</ele>
        <time>2015-11-28T10:36:01Z</time>
      </trkpt>
      <trkpt lat="48.52639" lon="-2.76334">
        <ele>101.7</ele>
        <time>2015-11-28T10:36:03Z</time>
      </trkpt>
      <trkpt lat="48.52645" lon="-2.76317">
        <ele>101.2</ele>
        <time>2015-11-28T10:36:06Z</time>
      </trkpt>
      <trkpt lat="48.52651" lon="-2.76302">
        <ele>100.8</ele>
        <time>2015-11-28T10:36:09Z</time>
      </trkpt>
      <trkpt lat="48.5266" lon="-2.76292">
        <ele>100.5</ele>
        <time>2015-11-28T10:36:12Z</time>
      </trkpt>
      <trkpt lat="48.52672" lon="-2.76289">
        <ele>100.3</ele>
        <time>2015-11-28T10:36:15Z</time>
      </trkpt>
      <trkpt lat="48.52683" lon="-2.76285">
        <ele>100.2</ele>
        <time>2015-11-28T10:36:18Z</time>
      </trkpt>
      <trkpt lat="48.52689" lon="-2.76276">
        <ele>100.4</ele>
        <time>2015-11-28T10:36:21Z</time>
      </trkpt>
      <trkpt lat="48.52692" lon="-2.7626">
        <ele>100.7</ele>
        <time>2015-11-28T10:36:26Z</time>
      </trkpt>
      <trkpt lat="48.52695" lon="-2.76244">
        <ele>101</ele>
        <time>2015-11-28T10:36:30Z</time>
      </trkpt>
      <trkpt lat="48.52699" lon="-2.76231">
        <ele>101.3</ele>
        <time>2015-11-28T10:36:33Z</time>
      </trkpt>
      <trkpt lat="48.52705" lon="-2.76218">
        <ele>101.6</ele>
        <time>2015-11-28T10:36:36Z</time>
      </trkpt>
      <trkpt lat="48.52712" lon="-2.76205">
        <ele>102</ele>
        <time>2015-11-28T10:36:39Z</time>
      </trkpt>
      <trkpt lat="48.52722" lon="-2.76201">
        <ele>102.6</ele>
        <time>2015-11-28T10:36:43Z</time>
      </trkpt>
      <trkpt lat="48.52732" lon="-2.76198">
        <ele>103.1</ele>
        <time>2015-11-28T10:36:46Z</time>
      </trkpt>
      <trkpt lat="48.52741" lon="-2.76194">
        <ele>103.6</ele>
        <time>2015-11-28T10:36:49Z</time>
      </trkpt>
      <trkpt lat="48.5275" lon="-2.76186">
        <ele>104.2</ele>
        <time>2015-11-28T10:36:53Z</time>
      </trkpt>
      <trkpt lat="48.5276" lon="-2.76173">
        <ele>104.5</ele>
        <time>2015-11-28T10:36:56Z</time>
      </trkpt>
      <trkpt lat="48.52766" lon="-2.76161">
        <ele>104.7</ele>
        <time>2015-11-28T10:36:58Z</time>
      </trkpt>
      <trkpt lat="48.52771" lon="-2.76148">
        <ele>104.8</ele>
        <time>2015-11-28T10:37:00Z</time>
      </trkpt>
      <trkpt lat="48.52774" lon="-2.76134">
        <ele>105</ele>
        <time>2015-11-28T10:37:02Z</time>
      </trkpt>
      <trkpt lat="48.52777" lon="-2.76121">
        <ele>105</ele>
        <time>2015-11-28T10:37:04Z</time>
      </trkpt>
      <trkpt lat="48.52781" lon="-2.76109">
        <ele>105.1</ele>
        <time>2015-11-28T10:37:06Z</time>
      </trkpt>
      <trkpt lat="48.52786" lon="-2.76091">
        <ele>105.2</ele>
        <time>2015-11-28T10:37:09Z</time>
      </trkpt>
      <trkpt lat="48.52793" lon="-2.76074">
        <ele>105.2</ele>
        <time>2015-11-28T10:37:12Z</time>
      </trkpt>
      <trkpt lat="48.52799" lon="-2.76062">
        <ele>105.1</ele>
        <time>2015-11-28T10:37:14Z</time>
      </trkpt>
      <trkpt lat="48.52804" lon="-2.76049">
        <ele>105</ele>
        <time>2015-11-28T10:37:16Z</time>
      </trkpt>
      <trkpt lat="48.5281" lon="-2.76036">
        <ele>104.8</ele>
        <time>2015-11-28T10:37:18Z</time>
      </trkpt>
      <trkpt lat="48.52815" lon="-2.76022">
        <ele>104.6</ele>
        <time>2015-11-28T10:37:20Z</time>
      </trkpt>
      <trkpt lat="48.5282" lon="-2.76011">
        <ele>104.4</ele>
        <time>2015-11-28T10:37:22Z</time>
      </trkpt>
      <trkpt lat="48.52818" lon="-2.75995">
        <ele>104.1</ele>
        <time>2015-11-28T10:37:26Z</time>
      </trkpt>
      <trkpt lat="48.52809" lon="-2.75986">
        <ele>103.9</ele>
        <time>2015-11-28T10:37:29Z</time>
      </trkpt>
      <trkpt lat="48.52799" lon="-2.75976">
        <ele>103.6</ele>
        <time>2015-11-28T10:37:32Z</time>
      </trkpt>
      <trkpt lat="48.52788" lon="-2.75968">
        <ele>103.3</ele>
        <time>2015-11-28T10:37:35Z</time>
      </trkpt>
      <trkpt lat="48.52779" lon="-2.75962">
        <ele>103.1</ele>
        <time>2015-11-28T10:37:37Z</time>
      </trkpt>
      <trkpt lat="48.52771" lon="-2.75957">
        <ele>102.8</ele>
        <time>2015-11-28T10:37:39Z</time>
      </trkpt>
      <trkpt lat="48.52762" lon="-2.75952">
        <ele>102.5</ele>
        <time>2015-11-28T10:37:41Z</time>
      </trkpt>
      <trkpt lat="48.52753" lon="-2.75947">
        <ele>102.2</ele>
        <time>2015-11-28T10:37:43Z</time>
      </trkpt>
      <trkpt lat="48.52745" lon="-2.75942">
        <ele>102</ele>
        <time>2015-11-28T10:37:45Z</time>
      </trkpt>
      <trkpt lat="48.52736" lon="-2.75937">
        <ele>101.7</ele>
        <time>2015-11-28T10:37:47Z</time>
      </trkpt>
      <trkpt lat="48.52727" lon="-2.75933">
        <ele>101.5</ele>
        <time>2015-11-28T10:37:49Z</time>
      </trkpt>
      <trkpt lat="48.52718" lon="-2.75928">
        <ele>101.3</ele>
        <time>2015-11-28T10:37:51Z</time>
      </trkpt>
      <trkpt lat="48.52709" lon="-2.75924">
        <ele>101</ele>
        <time>2015-11-28T10:37:53Z</time>
      </trkpt>
      <trkpt lat="48.527" lon="-2.75919">
        <ele>100.7</ele>
        <time>2015-11-28T10:37:55Z</time>
      </trkpt>
      <trkpt lat="48.52691" lon="-2.75914">
        <ele>100.4</ele>
        <time>2015-11-28T10:37:57Z</time>
      </trkpt>
      <trkpt lat="48.52687" lon="-2.75898">
        <ele>99.9</ele>
        <time>2015-11-28T10:38:00Z</time>
      </trkpt>
      <trkpt lat="48.52691" lon="-2.75886">
        <ele>99.5</ele>
        <time>2015-11-28T10:38:02Z</time>
      </trkpt>
      <trkpt lat="48.52696" lon="-2.75873">
        <ele>99.2</ele>
        <time>2015-11-28T10:38:04Z</time>
      </trkpt>
      <trkpt lat="48.527" lon="-2.75859">
        <ele>98.8</ele>
        <time>2015-11-28T10:38:06Z</time>
      </trkpt>
      <trkpt lat="48.52704" lon="-2.75845">
        <ele>98.5</ele>
        <time>2015-11-28T10:38:08Z</time>
      </trkpt>
      <trkpt lat="48.5271" lon="-2.75828">
        <ele>98.1</ele>
        <time>2015-11-28T10:38:11Z</time>
      </trkpt>
      <trkpt lat="48.52716" lon="-2.75811">
        <ele>97.8</ele>
        <time>2015-11-28T10:38:14Z</time>
      </trkpt>
      <trkpt lat="48.52722" lon="-2.758">
        <ele>97.6</ele>
        <time>2015-11-28T10:38:16Z</time>
      </trkpt>
      <trkpt lat="48.52729" lon="-2.7579">
        <ele>97.6</ele>
        <time>2015-11-28T10:38:18Z</time>
      </trkpt>
      <trkpt lat="48.52735" lon="-2.75781">
        <ele>97.7</ele>
        <time>2015-11-28T10:38:20Z</time>
      </trkpt>
      <trkpt lat="48.52745" lon="-2.75769">
        <ele>98</ele>
        <time>2015-11-28T10:38:23Z</time>
      </trkpt>
      <trkpt lat="48.52753" lon="-2.75757">
        <ele>98.4</ele>
        <time>2015-11-28T10:38:26Z</time>
      </trkpt>
      <trkpt lat="48.52761" lon="-2.75746">
        <ele>98.8</ele>
        <time>2015-11-28T10:38:29Z</time>
      </trkpt>
      <trkpt lat="48.52769" lon="-2.75736">
        <ele>99.2</ele>
        <time>2015-11-28T10:38:32Z</time>
      </trkpt>
      <trkpt lat="48.52778" lon="-2.75725">
        <ele>99.5</ele>
        <time>2015-11-28T10:38:35Z</time>
      </trkpt>
      <trkpt lat="48.52787" lon="-2.75712">
        <ele>99.7</ele>
        <time>2015-11-28T10:38:38Z</time>
      </trkpt>
      <trkpt lat="48.52797" lon="-2.75698">
        <ele>100</ele>
        <time>2015-11-28T10:38:41Z</time>
      </trkpt>
      <trkpt lat="48.52804" lon="-2.75689">
        <ele>100.1</ele>
        <time>2015-11-28T10:38:43Z</time>
      </trkpt>
      <trkpt lat="48.52811" lon="-2.75679">
        <ele>100.2</ele>
        <time>2015-11-28T10:38:45Z</time>
      </trkpt>
      <trkpt lat="48.52819" lon="-2.75669">
        <ele>100.3</ele>
        <time>2015-11-28T10:38:47Z</time>
      </trkpt>
      <trkpt lat="48.52826" lon="-2.75659">
        <ele>100.4</ele>
        <time>2015-11-28T10:38:49Z</time>
      </trkpt>
      <trkpt lat="48.52833" lon="-2.75649">
        <ele>100.4</ele>
        <time>2015-11-28T10:38:51Z</time>
      </trkpt>
      <trkpt lat="48.52841" lon="-2.75639">
        <ele>100.5</ele>
        <time>2015-11-28T10:38:53Z</time>
      </trkpt>
      <trkpt lat="48.52848" lon="-2.75629">
        <ele>100.5</ele>
        <time>2015-11-28T10:38:55Z</time>
      </trkpt>
      <trkpt lat="48.52855" lon="-2.75619">
        <ele>100.5</ele>
        <time>2015-11-28T10:38:57Z</time>
      </trkpt>
      <trkpt lat="48.52862" lon="-2.75608">
        <ele>100.5</ele>
        <time>2015-11-28T10:38:59Z</time>
      </trkpt>
      <trkpt lat="48.5287" lon="-2.75597">
        <ele>100.5</ele>
        <time>2015-11-28T10:39:01Z</time>
      </trkpt>
      <trkpt lat="48.52877" lon="-2.75586">
        <ele>100.6</ele>
        <time>2015-11-28T10:39:03Z</time>
      </trkpt>
      <trkpt lat="48.52884" lon="-2.75575">
        <ele>100.5</ele>
        <time>2015-11-28T10:39:05Z</time>
      </trkpt>
      <trkpt lat="48.52891" lon="-2.75564">
        <ele>100.5</ele>
        <time>2015-11-28T10:39:07Z</time>
      </trkpt>
      <trkpt lat="48.52898" lon="-2.75553">
        <ele>100.4</ele>
        <time>2015-11-28T10:39:09Z</time>
      </trkpt>
      <trkpt lat="48.52905" lon="-2.75542">
        <ele>100.4</ele>
        <time>2015-11-28T10:39:11Z</time>
      </trkpt>
      <trkpt lat="48.52911" lon="-2.75532">
        <ele>100.3</ele>
        <time>2015-11-28T10:39:13Z</time>
      </trkpt>
      <trkpt lat="48.5292" lon="-2.75527">
        <ele>100.3</ele>
        <time>2015-11-28T10:39:15Z</time>
      </trkpt>
      <trkpt lat="48.5293" lon="-2.75523">
        <ele>100.3</ele>
        <time>2015-11-28T10:39:18Z</time>
      </trkpt>
      <trkpt lat="48.52941" lon="-2.75529">
        <ele>100.2</ele>
        <time>2015-11-28T10:39:21Z</time>
      </trkpt>
      <trkpt lat="48.52952" lon="-2.75537">
        <ele>100.2</ele>
        <time>2015-11-28T10:39:24Z</time>
      </trkpt>
      <trkpt lat="48.52964" lon="-2.75546">
        <ele>100.2</ele>
        <time>2015-11-28T10:39:27Z</time>
      </trkpt>
      <trkpt lat="48.52972" lon="-2.75552">
        <ele>100.1</ele>
        <time>2015-11-28T10:39:29Z</time>
      </trkpt>
      <trkpt lat="48.52984" lon="-2.75562">
        <ele>100.2</ele>
        <time>2015-11-28T10:39:32Z</time>
      </trkpt>
      <trkpt lat="48.52992" lon="-2.75568">
        <ele>100.2</ele>
        <time>2015-11-28T10:39:34Z</time>
      </trkpt>
      <trkpt lat="48.53001" lon="-2.75575">
        <ele>100.2</ele>
        <time>2015-11-28T10:39:36Z</time>
      </trkpt>
      <trkpt lat="48.53009" lon="-2.75581">
        <ele>100.2</ele>
        <time>2015-11-28T10:39:38Z</time>
      </trkpt>
      <trkpt lat="48.5302" lon="-2.7559">
        <ele>100.2</ele>
        <time>2015-11-28T10:39:41Z</time>
      </trkpt>
      <trkpt lat="48.53032" lon="-2.756">
        <ele>100.2</ele>
        <time>2015-11-28T10:39:44Z</time>
      </trkpt>
      <trkpt lat="48.5304" lon="-2.75607">
        <ele>100.3</ele>
        <time>2015-11-28T10:39:46Z</time>
      </trkpt>
      <trkpt lat="48.53048" lon="-2.75613">
        <ele>100.3</ele>
        <time>2015-11-28T10:39:48Z</time>
      </trkpt>
      <trkpt lat="48.5306" lon="-2.75622">
        <ele>100.4</ele>
        <time>2015-11-28T10:39:51Z</time>
      </trkpt>
      <trkpt lat="48.53069" lon="-2.75629">
        <ele>100.5</ele>
        <time>2015-11-28T10:39:53Z</time>
      </trkpt>
      <trkpt lat="48.53078" lon="-2.75637">
        <ele>100.6</ele>
        <time>2015-11-28T10:39:55Z</time>
      </trkpt>
      <trkpt lat="48.53086" lon="-2.75645">
        <ele>100.6</ele>
        <time>2015-11-28T10:39:57Z</time>
      </trkpt>
      <trkpt lat="48.53095" lon="-2.75651">
        <ele>100.6</ele>
        <time>2015-11-28T10:39:59Z</time>
      </trkpt>
      <trkpt lat="48.53103" lon="-2.75659">
        <ele>100.7</ele>
        <time>2015-11-28T10:40:01Z</time>
      </trkpt>
      <trkpt lat="48.53111" lon="-2.75668">
        <ele>100.7</ele>
        <time>2015-11-28T10:40:03Z</time>
      </trkpt>
      <trkpt lat="48.53121" lon="-2.75681">
        <ele>100.7</ele>
        <time>2015-11-28T10:40:06Z</time>
      </trkpt>
      <trkpt lat="48.53128" lon="-2.75692">
        <ele>100.7</ele>
        <time>2015-11-28T10:40:08Z</time>
      </trkpt>
      <trkpt lat="48.53134" lon="-2.75706">
        <ele>100.4</ele>
        <time>2015-11-28T10:40:10Z</time>
      </trkpt>
      <trkpt lat="48.53138" lon="-2.75721">
        <ele>100.1</ele>
        <time>2015-11-28T10:40:12Z</time>
      </trkpt>
      <trkpt lat="48.53139" lon="-2.75734">
        <ele>99.9</ele>
        <time>2015-11-28T10:40:14Z</time>
      </trkpt>
      <trkpt lat="48.53136" lon="-2.75751">
        <ele>99.5</ele>
        <time>2015-11-28T10:40:17Z</time>
      </trkpt>
      <trkpt lat="48.53132" lon="-2.75765">
        <ele>99.2</ele>
        <time>2015-11-28T10:40:21Z</time>
      </trkpt>
      <trkpt lat="48.5314" lon="-2.75774">
        <ele>99</ele>
        <time>2015-11-28T10:40:25Z</time>
      </trkpt>
      <trkpt lat="48.53151" lon="-2.75767">
        <ele>98.6</ele>
        <time>2015-11-28T10:40:28Z</time>
      </trkpt>
      <trkpt lat="48.53161" lon="-2.75762">
        <ele>98.2</ele>
        <time>2015-11-28T10:40:31Z</time>
      </trkpt>
      <trkpt lat="48.5317" lon="-2.75755">
        <ele>97.6</ele>
        <time>2015-11-28T10:40:34Z</time>
      </trkpt>
      <trkpt lat="48.53177" lon="-2.75742">
        <ele>97</ele>
        <time>2015-11-28T10:40:37Z</time>
      </trkpt>
      <trkpt lat="48.53182" lon="-2.75724">
        <ele>96.5</ele>
        <time>2015-11-28T10:40:40Z</time>
      </trkpt>
      <trkpt lat="48.53186" lon="-2.75707">
        <ele>96.1</ele>
        <time>2015-11-28T10:40:43Z</time>
      </trkpt>
      <trkpt lat="48.53187" lon="-2.75693">
        <ele>95.7</ele>
        <time>2015-11-28T10:40:47Z</time>
      </trkpt>
      <trkpt lat="48.53195" lon="-2.75682">
        <ele>95.4</ele>
        <time>2015-11-28T10:40:50Z</time>
      </trkpt>
      <trkpt lat="48.53199" lon="-2.7566">
        <ele>95</ele>
        <time>2015-11-28T10:40:53Z</time>
      </trkpt>
      <trkpt lat="48.5321" lon="-2.75651">
        <ele>94.9</ele>
        <time>2015-11-28T10:40:56Z</time>
      </trkpt>
      <trkpt lat="48.53222" lon="-2.75645">
        <ele>94.7</ele>
        <time>2015-11-28T10:40:59Z</time>
      </trkpt>
      <trkpt lat="48.53233" lon="-2.75637">
        <ele>94.6</ele>
        <time>2015-11-28T10:41:02Z</time>
      </trkpt>
      <trkpt lat="48.5324" lon="-2.75624">
        <ele>94.4</ele>
        <time>2015-11-28T10:41:05Z</time>
      </trkpt>
      <trkpt lat="48.53243" lon="-2.75607">
        <ele>94.3</ele>
        <time>2015-11-28T10:41:08Z</time>
      </trkpt>
      <trkpt lat="48.53246" lon="-2.7559">
        <ele>94.2</ele>
        <time>2015-11-28T10:41:11Z</time>
      </trkpt>
      <trkpt lat="48.53249" lon="-2.75572">
        <ele>94.2</ele>
        <time>2015-11-28T10:41:14Z</time>
      </trkpt>
      <trkpt lat="48.53252" lon="-2.75554">
        <ele>94.1</ele>
        <time>2015-11-28T10:41:17Z</time>
      </trkpt>
      <trkpt lat="48.53255" lon="-2.75535">
        <ele>94.1</ele>
        <time>2015-11-28T10:41:20Z</time>
      </trkpt>
      <trkpt lat="48.53258" lon="-2.75521">
        <ele>94</ele>
        <time>2015-11-28T10:41:22Z</time>
      </trkpt>
      <trkpt lat="48.53261" lon="-2.75507">
        <ele>94</ele>
        <time>2015-11-28T10:41:24Z</time>
      </trkpt>
      <trkpt lat="48.53264" lon="-2.75491">
        <ele>94</ele>
        <time>2015-11-28T10:41:26Z</time>
      </trkpt>
      <trkpt lat="48.53265" lon="-2.75474">
        <ele>93.8</ele>
        <time>2015-11-28T10:41:28Z</time>
      </trkpt>
      <trkpt lat="48.53264" lon="-2.75458">
        <ele>93.6</ele>
        <time>2015-11-28T10:41:30Z</time>
      </trkpt>
      <trkpt lat="48.5327" lon="-2.75446">
        <ele>93.4</ele>
        <time>2015-11-28T10:41:32Z</time>
      </trkpt>
      <trkpt lat="48.53281" lon="-2.75437">
        <ele>93</ele>
        <time>2015-11-28T10:41:35Z</time>
      </trkpt>
      <trkpt lat="48.53292" lon="-2.75433">
        <ele>92.7</ele>
        <time>2015-11-28T10:41:38Z</time>
      </trkpt>
      <trkpt lat="48.53302" lon="-2.75427">
        <ele>92.4</ele>
        <time>2015-11-28T10:41:42Z</time>
      </trkpt>
      <trkpt lat="48.53308" lon="-2.75411">
        <ele>92.2</ele>
        <time>2015-11-28T10:41:46Z</time>
      </trkpt>
      <trkpt lat="48.53318" lon="-2.75402">
        <ele>92</ele>
        <time>2015-11-28T10:41:49Z</time>
      </trkpt>
      <trkpt lat="48.5333" lon="-2.75397">
        <ele>91.9</ele>
        <time>2015-11-28T10:41:52Z</time>
      </trkpt>
      <trkpt lat="48.53342" lon="-2.75392">
        <ele>91.8</ele>
        <time>2015-11-28T10:41:55Z</time>
      </trkpt>
      <trkpt lat="48.53353" lon="-2.75383">
        <ele>91.7</ele>
        <time>2015-11-28T10:41:58Z</time>
      </trkpt>
      <trkpt lat="48.53361" lon="-2.75376">
        <ele>91.7</ele>
        <time>2015-11-28T10:42:00Z</time>
      </trkpt>
      <trkpt lat="48.5337" lon="-2.75371">
        <ele>91.7</ele>
        <time>2015-11-28T10:42:02Z</time>
      </trkpt>
      <trkpt lat="48.53378" lon="-2.75365">
        <ele>91.7</ele>
        <time>2015-11-28T10:42:04Z</time>
      </trkpt>
      <trkpt lat="48.5339" lon="-2.75355">
        <ele>91.6</ele>
        <time>2015-11-28T10:42:07Z</time>
      </trkpt>
      <trkpt lat="48.53401" lon="-2.75345">
        <ele>91.6</ele>
        <time>2015-11-28T10:42:10Z</time>
      </trkpt>
      <trkpt lat="48.53412" lon="-2.75335">
        <ele>91.6</ele>
        <time>2015-11-28T10:42:13Z</time>
      </trkpt>
      <trkpt lat="48.53422" lon="-2.75325">
        <ele>91.6</ele>
        <time>2015-11-28T10:42:16Z</time>
      </trkpt>
      <trkpt lat="48.53432" lon="-2.75314">
        <ele>91.6</ele>
        <time>2015-11-28T10:42:19Z</time>
      </trkpt>
      <trkpt lat="48.53441" lon="-2.75305">
        <ele>91.6</ele>
        <time>2015-11-28T10:42:22Z</time>
      </trkpt>
      <trkpt lat="48.53448" lon="-2.75292">
        <ele>91.6</ele>
        <time>2015-11-28T10:42:25Z</time>
      </trkpt>
      <trkpt lat="48.53451" lon="-2.75275">
        <ele>91.6</ele>
        <time>2015-11-28T10:42:28Z</time>
      </trkpt>
      <trkpt lat="48.53454" lon="-2.75257">
        <ele>91.6</ele>
        <time>2015-11-28T10:42:31Z</time>
      </trkpt>
      <trkpt lat="48.53452" lon="-2.75241">
        <ele>91.6</ele>
        <time>2015-11-28T10:42:34Z</time>
      </trkpt>
      <trkpt lat="48.53443" lon="-2.75227">
        <ele>91.6</ele>
        <time>2015-11-28T10:42:37Z</time>
      </trkpt>
      <trkpt lat="48.53434" lon="-2.75223">
        <ele>91.6</ele>
        <time>2015-11-28T10:42:39Z</time>
      </trkpt>
      <trkpt lat="48.53424" lon="-2.75218">
        <ele>91.6</ele>
        <time>2015-11-28T10:42:41Z</time>
      </trkpt>
      <trkpt lat="48.53414" lon="-2.75213">
        <ele>91.5</ele>
        <time>2015-11-28T10:42:43Z</time>
      </trkpt>
      <trkpt lat="48.53404" lon="-2.75208">
        <ele>91.4</ele>
        <time>2015-11-28T10:42:45Z</time>
      </trkpt>
      <trkpt lat="48.53393" lon="-2.75203">
        <ele>91.3</ele>
        <time>2015-11-28T10:42:47Z</time>
      </trkpt>
      <trkpt lat="48.53383" lon="-2.75198">
        <ele>91</ele>
        <time>2015-11-28T10:42:49Z</time>
      </trkpt>
      <trkpt lat="48.53373" lon="-2.75193">
        <ele>90.8</ele>
        <time>2015-11-28T10:42:51Z</time>
      </trkpt>
      <trkpt lat="48.53363" lon="-2.75189">
        <ele>90.6</ele>
        <time>2015-11-28T10:42:53Z</time>
      </trkpt>
      <trkpt lat="48.53354" lon="-2.7519">
        <ele>90.4</ele>
        <time>2015-11-28T10:42:56Z</time>
      </trkpt>
      <trkpt lat="48.5335" lon="-2.75206">
        <ele>90.2</ele>
        <time>2015-11-28T10:42:59Z</time>
      </trkpt>
      <trkpt lat="48.53346" lon="-2.75219">
        <ele>90.1</ele>
        <time>2015-11-28T10:43:01Z</time>
      </trkpt>
      <trkpt lat="48.53336" lon="-2.75232">
        <ele>89.8</ele>
        <time>2015-11-28T10:43:04Z</time>
      </trkpt>
      <trkpt lat="48.53327" lon="-2.75231">
        <ele>89.7</ele>
        <time>2015-11-28T10:43:06Z</time>
      </trkpt>
      <trkpt lat="48.53316" lon="-2.75229">
        <ele>89.4</ele>
        <time>2015-11-28T10:43:09Z</time>
      </trkpt>
      <trkpt lat="48.53313" lon="-2.75216">
        <ele>88.8</ele>
        <time>2015-11-28T10:43:12Z</time>
      </trkpt>
      <trkpt lat="48.53306" lon="-2.75205">
        <ele>88.1</ele>
        <time>2015-11-28T10:43:15Z</time>
      </trkpt>
      <trkpt lat="48.53295" lon="-2.75203">
        <ele>87.3</ele>
        <time>2015-11-28T10:43:18Z</time>
      </trkpt>
      <trkpt lat="48.5329" lon="-2.75191">
        <ele>86.5</ele>
        <time>2015-11-28T10:43:21Z</time>
      </trkpt>
      <trkpt lat="48.53283" lon="-2.75178">
        <ele>85</ele>
        <time>2015-11-28T10:43:25Z</time>
      </trkpt>
      <trkpt lat="48.53272" lon="-2.75169">
        <ele>83.6</ele>
        <time>2015-11-28T10:43:30Z</time>
      </trkpt>
      <trkpt lat="48.53264" lon="-2.75161">
        <ele>83.1</ele>
        <time>2015-11-28T10:43:33Z</time>
      </trkpt>
      <trkpt lat="48.53259" lon="-2.75147">
        <ele>82.5</ele>
        <time>2015-11-28T10:43:37Z</time>
      </trkpt>
      <trkpt lat="48.53256" lon="-2.75133">
        <ele>82.1</ele>
        <time>2015-11-28T10:43:40Z</time>
      </trkpt>
      <trkpt lat="48.53249" lon="-2.75121">
        <ele>81.3</ele>
        <time>2015-11-28T10:43:44Z</time>
      </trkpt>
      <trkpt lat="48.53242" lon="-2.75112">
        <ele>80.9</ele>
        <time>2015-11-28T10:43:46Z</time>
      </trkpt>
      <trkpt lat="48.53232" lon="-2.75104">
        <ele>80.4</ele>
        <time>2015-11-28T10:43:49Z</time>
      </trkpt>
      <trkpt lat="48.53225" lon="-2.75092">
        <ele>79.9</ele>
        <time>2015-11-28T10:43:53Z</time>
      </trkpt>
      <trkpt lat="48.5322" lon="-2.75081">
        <ele>79.6</ele>
        <time>2015-11-28T10:43:56Z</time>
      </trkpt>
      <trkpt lat="48.53216" lon="-2.75066">
        <ele>79.3</ele>
        <time>2015-11-28T10:44:00Z</time>
      </trkpt>
      <trkpt lat="48.53214" lon="-2.7505">
        <ele>78.9</ele>
        <time>2015-11-28T10:44:04Z</time>
      </trkpt>
      <trkpt lat="48.53211" lon="-2.75036">
        <ele>78.6</ele>
        <time>2015-11-28T10:44:07Z</time>
      </trkpt>
      <trkpt lat="48.53208" lon="-2.75019">
        <ele>78</ele>
        <time>2015-11-28T10:44:11Z</time>
      </trkpt>
      <trkpt lat="48.53216" lon="-2.75008">
        <ele>77.5</ele>
        <time>2015-11-28T10:44:15Z</time>
      </trkpt>
      <trkpt lat="48.53221" lon="-2.74996">
        <ele>77.1</ele>
        <time>2015-11-28T10:44:20Z</time>
      </trkpt>
      <trkpt lat="48.53219" lon="-2.7498">
        <ele>77.1</ele>
        <time>2015-11-28T10:44:27Z</time>
      </trkpt>
      <trkpt lat="48.53218" lon="-2.74962">
        <ele>77.1</ele>
        <time>2015-11-28T10:44:32Z</time>
      </trkpt>
      <trkpt lat="48.53217" lon="-2.74948">
        <ele>77.2</ele>
        <time>2015-11-28T10:44:35Z</time>
      </trkpt>
      <trkpt lat="48.53212" lon="-2.74934">
        <ele>77.1</ele>
        <time>2015-11-28T10:44:38Z</time>
      </trkpt>
      <trkpt lat="48.53206" lon="-2.74919">
        <ele>77</ele>
        <time>2015-11-28T10:44:41Z</time>
      </trkpt>
      <trkpt lat="48.53202" lon="-2.74903">
        <ele>76.9</ele>
        <time>2015-11-28T10:44:44Z</time>
      </trkpt>
      <trkpt lat="48.53204" lon="-2.74887">
        <ele>76.8</ele>
        <time>2015-11-28T10:44:47Z</time>
      </trkpt>
      <trkpt lat="48.53208" lon="-2.7487">
        <ele>76.5</ele>
        <time>2015-11-28T10:44:50Z</time>
      </trkpt>
      <trkpt lat="48.53206" lon="-2.74855">
        <ele>76.2</ele>
        <time>2015-11-28T10:44:53Z</time>
      </trkpt>
      <trkpt lat="48.532" lon="-2.7484">
        <ele>76</ele>
        <time>2015-11-28T10:44:56Z</time>
      </trkpt>
      <trkpt lat="48.53193" lon="-2.74825">
        <ele>75.8</ele>
        <time>2015-11-28T10:44:59Z</time>
      </trkpt>
      <trkpt lat="48.53185" lon="-2.74812">
        <ele>75.6</ele>
        <time>2015-11-28T10:45:02Z</time>
      </trkpt>
      <trkpt lat="48.53178" lon="-2.74799">
        <ele>75.5</ele>
        <time>2015-11-28T10:45:05Z</time>
      </trkpt>
      <trkpt lat="48.53169" lon="-2.74786">
        <ele>75.3</ele>
        <time>2015-11-28T10:45:08Z</time>
      </trkpt>
      <trkpt lat="48.53161" lon="-2.74772">
        <ele>74.9</ele>
        <time>2015-11-28T10:45:11Z</time>
      </trkpt>
      <trkpt lat="48.5316" lon="-2.74754">
        <ele>74.4</ele>
        <time>2015-11-28T10:45:14Z</time>
      </trkpt>
      <trkpt lat="48.53165" lon="-2.74737">
        <ele>74</ele>
        <time>2015-11-28T10:45:17Z</time>
      </trkpt>
      <trkpt lat="48.53172" lon="-2.74722">
        <ele>73.7</ele>
        <time>2015-11-28T10:45:20Z</time>
      </trkpt>
      <trkpt lat="48.53179" lon="-2.74707">
        <ele>73.5</ele>
        <time>2015-11-28T10:45:23Z</time>
      </trkpt>
      <trkpt lat="48.53185" lon="-2.74694">
        <ele>73.5</ele>
        <time>2015-11-28T10:45:26Z</time>
      </trkpt>
      <trkpt lat="48.53192" lon="-2.7468">
        <ele>73.6</ele>
        <time>2015-11-28T10:45:29Z</time>
      </trkpt>
      <trkpt lat="48.53198" lon="-2.74666">
        <ele>73.8</ele>
        <time>2015-11-28T10:45:32Z</time>
      </trkpt>
      <trkpt lat="48.53204" lon="-2.7465">
        <ele>73.9</ele>
        <time>2015-11-28T10:45:35Z</time>
      </trkpt>
      <trkpt lat="48.53211" lon="-2.74633">
        <ele>74.1</ele>
        <time>2015-11-28T10:45:38Z</time>
      </trkpt>
      <trkpt lat="48.5322" lon="-2.74617">
        <ele>74.2</ele>
        <time>2015-11-28T10:45:41Z</time>
      </trkpt>
      <trkpt lat="48.53225" lon="-2.74606">
        <ele>74.3</ele>
        <time>2015-11-28T10:45:43Z</time>
      </trkpt>
      <trkpt lat="48.53232" lon="-2.74594">
        <ele>74.3</ele>
        <time>2015-11-28T10:45:45Z</time>
      </trkpt>
      <trkpt lat="48.53239" lon="-2.74581">
        <ele>74.3</ele>
        <time>2015-11-28T10:45:47Z</time>
      </trkpt>
      <trkpt lat="48.53246" lon="-2.74568">
        <ele>74.2</ele>
        <time>2015-11-28T10:45:49Z</time>
      </trkpt>
      <trkpt lat="48.53251" lon="-2.74553">
        <ele>74.1</ele>
        <time>2015-11-28T10:45:51Z</time>
      </trkpt>
      <trkpt lat="48.53248" lon="-2.74539">
        <ele>73.9</ele>
        <time>2015-11-28T10:45:53Z</time>
      </trkpt>
      <trkpt lat="48.53249" lon="-2.74525">
        <ele>73</ele>
        <time>2015-11-28T10:46:02Z</time>
      </trkpt>
      <trkpt lat="48.53256" lon="-2.74516">
        <ele>72.7</ele>
        <time>2015-11-28T10:46:05Z</time>
      </trkpt>
      <trkpt lat="48.53263" lon="-2.74508">
        <ele>72.4</ele>
        <time>2015-11-28T10:46:08Z</time>
      </trkpt>
      <trkpt lat="48.5327" lon="-2.74498">
        <ele>72.2</ele>
        <time>2015-11-28T10:46:11Z</time>
      </trkpt>
      <trkpt lat="48.53278" lon="-2.74488">
        <ele>72.1</ele>
        <time>2015-11-28T10:46:14Z</time>
      </trkpt>
      <trkpt lat="48.53286" lon="-2.74478">
        <ele>72</ele>
        <time>2015-11-28T10:46:17Z</time>
      </trkpt>
      <trkpt lat="48.53295" lon="-2.74468">
        <ele>72</ele>
        <time>2015-11-28T10:46:20Z</time>
      </trkpt>
      <trkpt lat="48.53305" lon="-2.74458">
        <ele>72</ele>
        <time>2015-11-28T10:46:23Z</time>
      </trkpt>
      <trkpt lat="48.53316" lon="-2.7445">
        <ele>72.2</ele>
        <time>2015-11-28T10:46:26Z</time>
      </trkpt>
      <trkpt lat="48.53325" lon="-2.7444">
        <ele>72.3</ele>
        <time>2015-11-28T10:46:29Z</time>
      </trkpt>
      <trkpt lat="48.5333" lon="-2.74422">
        <ele>72.5</ele>
        <time>2015-11-28T10:46:32Z</time>
      </trkpt>
      <trkpt lat="48.53338" lon="-2.74411">
        <ele>72.8</ele>
        <time>2015-11-28T10:46:35Z</time>
      </trkpt>
      <trkpt lat="48.53347" lon="-2.74409">
        <ele>72.9</ele>
        <time>2015-11-28T10:46:37Z</time>
      </trkpt>
      <trkpt lat="48.53355" lon="-2.74414">
        <ele>73.1</ele>
        <time>2015-11-28T10:46:39Z</time>
      </trkpt>
      <trkpt lat="48.53363" lon="-2.74431">
        <ele>73.4</ele>
        <time>2015-11-28T10:46:42Z</time>
      </trkpt>
      <trkpt lat="48.53369" lon="-2.74443">
        <ele>73.6</ele>
        <time>2015-11-28T10:46:44Z</time>
      </trkpt>
      <trkpt lat="48.53378" lon="-2.74453">
        <ele>73.9</ele>
        <time>2015-11-28T10:46:46Z</time>
      </trkpt>
      <trkpt lat="48.53387" lon="-2.74463">
        <ele>74.3</ele>
        <time>2015-11-28T10:46:48Z</time>
      </trkpt>
      <trkpt lat="48.53395" lon="-2.74471">
        <ele>74.7</ele>
        <time>2015-11-28T10:46:50Z</time>
      </trkpt>
      <trkpt lat="48.53406" lon="-2.74481">
        <ele>75.4</ele>
        <time>2015-11-28T10:46:53Z</time>
      </trkpt>
      <trkpt lat="48.53416" lon="-2.7449">
        <ele>76.1</ele>
        <time>2015-11-28T10:46:56Z</time>
      </trkpt>
      <trkpt lat="48.53426" lon="-2.74498">
        <ele>76.8</ele>
        <time>2015-11-28T10:46:59Z</time>
      </trkpt>
      <trkpt lat="48.53436" lon="-2.74504">
        <ele>77.6</ele>
        <time>2015-11-28T10:47:02Z</time>
      </trkpt>
      <trkpt lat="48.53444" lon="-2.74509">
        <ele>78.4</ele>
        <time>2015-11-28T10:47:05Z</time>
      </trkpt>
      <trkpt lat="48.53453" lon="-2.74515">
        <ele>79.5</ele>
        <time>2015-11-28T10:47:09Z</time>
      </trkpt>
      <trkpt lat="48.53462" lon="-2.74521">
        <ele>80.4</ele>
        <time>2015-11-28T10:47:13Z</time>
      </trkpt>
      <trkpt lat="48.5347" lon="-2.74525">
        <ele>81.2</ele>
        <time>2015-11-28T10:47:17Z</time>
      </trkpt>
      <trkpt lat="48.53481" lon="-2.74532">
        <ele>81.9</ele>
        <time>2015-11-28T10:47:21Z</time>
      </trkpt>
      <trkpt lat="48.53491" lon="-2.74539">
        <ele>82.3</ele>
        <time>2015-11-28T10:47:24Z</time>
      </trkpt>
      <trkpt lat="48.53502" lon="-2.74548">
        <ele>82.7</ele>
        <time>2015-11-28T10:47:27Z</time>
      </trkpt>
      <trkpt lat="48.53512" lon="-2.74557">
        <ele>83</ele>
        <time>2015-11-28T10:47:30Z</time>
      </trkpt>
      <trkpt lat="48.53523" lon="-2.74565">
        <ele>83.2</ele>
        <time>2015-11-28T10:47:33Z</time>
      </trkpt>
      <trkpt lat="48.53534" lon="-2.74573">
        <ele>83.5</ele>
        <time>2015-11-28T10:47:36Z</time>
      </trkpt>
      <trkpt lat="48.53545" lon="-2.74579">
        <ele>83.8</ele>
        <time>2015-11-28T10:47:39Z</time>
      </trkpt>
      <trkpt lat="48.53555" lon="-2.74585">
        <ele>84</ele>
        <time>2015-11-28T10:47:42Z</time>
      </trkpt>
      <trkpt lat="48.53565" lon="-2.74592">
        <ele>84.3</ele>
        <time>2015-11-28T10:47:45Z</time>
      </trkpt>
      <trkpt lat="48.53576" lon="-2.74597">
        <ele>84.6</ele>
        <time>2015-11-28T10:47:48Z</time>
      </trkpt>
      <trkpt lat="48.53586" lon="-2.74603">
        <ele>84.9</ele>
        <time>2015-11-28T10:47:51Z</time>
      </trkpt>
      <trkpt lat="48.53597" lon="-2.74608">
        <ele>85.2</ele>
        <time>2015-11-28T10:47:54Z</time>
      </trkpt>
      <trkpt lat="48.53608" lon="-2.74614">
        <ele>85.5</ele>
        <time>2015-11-28T10:47:57Z</time>
      </trkpt>
      <trkpt lat="48.5362" lon="-2.74616">
        <ele>85.9</ele>
        <time>2015-11-28T10:48:00Z</time>
      </trkpt>
      <trkpt lat="48.53634" lon="-2.74615">
        <ele>86.2</ele>
        <time>2015-11-28T10:48:03Z</time>
      </trkpt>
      <trkpt lat="48.53646" lon="-2.74609">
        <ele>86.5</ele>
        <time>2015-11-28T10:48:06Z</time>
      </trkpt>
      <trkpt lat="48.53657" lon="-2.746">
        <ele>86.8</ele>
        <time>2015-11-28T10:48:09Z</time>
      </trkpt>
      <trkpt lat="48.53668" lon="-2.7459">
        <ele>87.1</ele>
        <time>2015-11-28T10:48:12Z</time>
      </trkpt>
      <trkpt lat="48.53676" lon="-2.74583">
        <ele>87.2</ele>
        <time>2015-11-28T10:48:14Z</time>
      </trkpt>
      <trkpt lat="48.53685" lon="-2.74576">
        <ele>87.3</ele>
        <time>2015-11-28T10:48:16Z</time>
      </trkpt>
      <trkpt lat="48.53693" lon="-2.7457">
        <ele>87.5</ele>
        <time>2015-11-28T10:48:18Z</time>
      </trkpt>
      <trkpt lat="48.53701" lon="-2.74565">
        <ele>87.6</ele>
        <time>2015-11-28T10:48:20Z</time>
      </trkpt>
      <trkpt lat="48.53714" lon="-2.74562">
        <ele>87.8</ele>
        <time>2015-11-28T10:48:23Z</time>
      </trkpt>
      <trkpt lat="48.53727" lon="-2.74563">
        <ele>87.9</ele>
        <time>2015-11-28T10:48:26Z</time>
      </trkpt>
      <trkpt lat="48.5374" lon="-2.74567">
        <ele>88.1</ele>
        <time>2015-11-28T10:48:29Z</time>
      </trkpt>
      <trkpt lat="48.53753" lon="-2.7457">
        <ele>88.2</ele>
        <time>2015-11-28T10:48:32Z</time>
      </trkpt>
      <trkpt lat="48.53766" lon="-2.74572">
        <ele>88.2</ele>
        <time>2015-11-28T10:48:35Z</time>
      </trkpt>
      <trkpt lat="48.53778" lon="-2.74576">
        <ele>88.3</ele>
        <time>2015-11-28T10:48:38Z</time>
      </trkpt>
      <trkpt lat="48.53789" lon="-2.74581">
        <ele>88.3</ele>
        <time>2015-11-28T10:48:41Z</time>
      </trkpt>
      <trkpt lat="48.53799" lon="-2.74584">
        <ele>88.4</ele>
        <time>2015-11-28T10:48:44Z</time>
      </trkpt>
      <trkpt lat="48.5381" lon="-2.7459">
        <ele>88.4</ele>
        <time>2015-11-28T10:48:47Z</time>
      </trkpt>
      <trkpt lat="48.53818" lon="-2.74595">
        <ele>88.5</ele>
        <time>2015-11-28T10:48:49Z</time>
      </trkpt>
      <trkpt lat="48.53828" lon="-2.74599">
        <ele>88.5</ele>
        <time>2015-11-28T10:48:51Z</time>
      </trkpt>
      <trkpt lat="48.53838" lon="-2.74604">
        <ele>88.5</ele>
        <time>2015-11-28T10:48:53Z</time>
      </trkpt>
      <trkpt lat="48.53847" lon="-2.74608">
        <ele>88.5</ele>
        <time>2015-11-28T10:48:55Z</time>
      </trkpt>
      <trkpt lat="48.53857" lon="-2.74611">
        <ele>88.6</ele>
        <time>2015-11-28T10:48:57Z</time>
      </trkpt>
      <trkpt lat="48.53866" lon="-2.74614">
        <ele>88.6</ele>
        <time>2015-11-28T10:48:59Z</time>
      </trkpt>
      <trkpt lat="48.53875" lon="-2.74619">
        <ele>88.7</ele>
        <time>2015-11-28T10:49:01Z</time>
      </trkpt>
      <trkpt lat="48.53883" lon="-2.74624">
        <ele>88.8</ele>
        <time>2015-11-28T10:49:03Z</time>
      </trkpt>
      <trkpt lat="48.53891" lon="-2.74631">
        <ele>88.8</ele>
        <time>2015-11-28T10:49:05Z</time>
      </trkpt>
      <trkpt lat="48.539" lon="-2.74637">
        <ele>88.9</ele>
        <time>2015-11-28T10:49:07Z</time>
      </trkpt>
      <trkpt lat="48.53908" lon="-2.74642">
        <ele>89</ele>
        <time>2015-11-28T10:49:09Z</time>
      </trkpt>
      <trkpt lat="48.53917" lon="-2.74648">
        <ele>89</ele>
        <time>2015-11-28T10:49:11Z</time>
      </trkpt>
      <trkpt lat="48.53926" lon="-2.74653">
        <ele>89.1</ele>
        <time>2015-11-28T10:49:13Z</time>
      </trkpt>
      <trkpt lat="48.53935" lon="-2.74657">
        <ele>89.1</ele>
        <time>2015-11-28T10:49:15Z</time>
      </trkpt>
      <trkpt lat="48.53944" lon="-2.7466">
        <ele>89.2</ele>
        <time>2015-11-28T10:49:17Z</time>
      </trkpt>
      <trkpt lat="48.53953" lon="-2.74662">
        <ele>89.3</ele>
        <time>2015-11-28T10:49:19Z</time>
      </trkpt>
      <trkpt lat="48.53963" lon="-2.74663">
        <ele>89.3</ele>
        <time>2015-11-28T10:49:21Z</time>
      </trkpt>
      <trkpt lat="48.53973" lon="-2.74665">
        <ele>89.4</ele>
        <time>2015-11-28T10:49:23Z</time>
      </trkpt>
      <trkpt lat="48.53983" lon="-2.74666">
        <ele>89.4</ele>
        <time>2015-11-28T10:49:25Z</time>
      </trkpt>
      <trkpt lat="48.53992" lon="-2.74666">
        <ele>89.5</ele>
        <time>2015-11-28T10:49:27Z</time>
      </trkpt>
      <trkpt lat="48.54002" lon="-2.74666">
        <ele>89.5</ele>
        <time>2015-11-28T10:49:29Z</time>
      </trkpt>
      <trkpt lat="48.54012" lon="-2.74667">
        <ele>89.6</ele>
        <time>2015-11-28T10:49:31Z</time>
      </trkpt>
      <trkpt lat="48.54022" lon="-2.74669">
        <ele>89.6</ele>
        <time>2015-11-28T10:49:33Z</time>
      </trkpt>
      <trkpt lat="48.54032" lon="-2.74671">
        <ele>89.7</ele>
        <time>2015-11-28T10:49:35Z</time>
      </trkpt>
      <trkpt lat="48.54041" lon="-2.74672">
        <ele>89.8</ele>
        <time>2015-11-28T10:49:37Z</time>
      </trkpt>
      <trkpt lat="48.54051" lon="-2.74674">
        <ele>89.9</ele>
        <time>2015-11-28T10:49:39Z</time>
      </trkpt>
      <trkpt lat="48.54061" lon="-2.74675">
        <ele>90</ele>
        <time>2015-11-28T10:49:41Z</time>
      </trkpt>
      <trkpt lat="48.5407" lon="-2.74678">
        <ele>90</ele>
        <time>2015-11-28T10:49:43Z</time>
      </trkpt>
      <trkpt lat="48.5408" lon="-2.74681">
        <ele>90.1</ele>
        <time>2015-11-28T10:49:45Z</time>
      </trkpt>
      <trkpt lat="48.54089" lon="-2.74684">
        <ele>90.2</ele>
        <time>2015-11-28T10:49:47Z</time>
      </trkpt>
      <trkpt lat="48.54099" lon="-2.74688">
        <ele>90.3</ele>
        <time>2015-11-28T10:49:49Z</time>
      </trkpt>
      <trkpt lat="48.54108" lon="-2.74692">
        <ele>90.3</ele>
        <time>2015-11-28T10:49:51Z</time>
      </trkpt>
      <trkpt lat="48.54117" lon="-2.74696">
        <ele>90.4</ele>
        <time>2015-11-28T10:49:53Z</time>
      </trkpt>
      <trkpt lat="48.54129" lon="-2.74701">
        <ele>90.5</ele>
        <time>2015-11-28T10:49:56Z</time>
      </trkpt>
      <trkpt lat="48.54139" lon="-2.74705">
        <ele>90.6</ele>
        <time>2015-11-28T10:49:59Z</time>
      </trkpt>
      <trkpt lat="48.5415" lon="-2.74709">
        <ele>90.8</ele>
        <time>2015-11-28T10:50:02Z</time>
      </trkpt>
      <trkpt lat="48.54162" lon="-2.74712">
        <ele>91</ele>
        <time>2015-11-28T10:50:05Z</time>
      </trkpt>
      <trkpt lat="48.54171" lon="-2.74714">
        <ele>91.1</ele>
        <time>2015-11-28T10:50:07Z</time>
      </trkpt>
      <trkpt lat="48.5418" lon="-2.74715">
        <ele>91.2</ele>
        <time>2015-11-28T10:50:09Z</time>
      </trkpt>
      <trkpt lat="48.5419" lon="-2.74716">
        <ele>91.2</ele>
        <time>2015-11-28T10:50:11Z</time>
      </trkpt>
      <trkpt lat="48.54199" lon="-2.74717">
        <ele>91.3</ele>
        <time>2015-11-28T10:50:13Z</time>
      </trkpt>
      <trkpt lat="48.54209" lon="-2.74717">
        <ele>91.4</ele>
        <time>2015-11-28T10:50:15Z</time>
      </trkpt>
      <trkpt lat="48.54218" lon="-2.74717">
        <ele>91.4</ele>
        <time>2015-11-28T10:50:17Z</time>
      </trkpt>
      <trkpt lat="48.54228" lon="-2.74718">
        <ele>91.5</ele>
        <time>2015-11-28T10:50:19Z</time>
      </trkpt>
      <trkpt lat="48.54237" lon="-2.74718">
        <ele>91.5</ele>
        <time>2015-11-28T10:50:21Z</time>
      </trkpt>
      <trkpt lat="48.54247" lon="-2.74718">
        <ele>91.5</ele>
        <time>2015-11-28T10:50:23Z</time>
      </trkpt>
      <trkpt lat="48.54257" lon="-2.74718">
        <ele>91.6</ele>
        <time>2015-11-28T10:50:25Z</time>
      </trkpt>
      <trkpt lat="48.54267" lon="-2.74719">
        <ele>91.6</ele>
        <time>2015-11-28T10:50:27Z</time>
      </trkpt>
      <trkpt lat="48.54276" lon="-2.74721">
        <ele>91.6</ele>
        <time>2015-11-28T10:50:29Z</time>
      </trkpt>
      <trkpt lat="48.54288" lon="-2.74722">
        <ele>91.6</ele>
        <time>2015-11-28T10:50:32Z</time>
      </trkpt>
      <trkpt lat="48.543" lon="-2.74726">
        <ele>91.6</ele>
        <time>2015-11-28T10:50:35Z</time>
      </trkpt>
      <trkpt lat="48.54308" lon="-2.7473">
        <ele>91.6</ele>
        <time>2015-11-28T10:50:37Z</time>
      </trkpt>
      <trkpt lat="48.54317" lon="-2.74734">
        <ele>91.6</ele>
        <time>2015-11-28T10:50:39Z</time>
      </trkpt>
      <trkpt lat="48.54327" lon="-2.74738">
        <ele>91.6</ele>
        <time>2015-11-28T10:50:41Z</time>
      </trkpt>
      <trkpt lat="48.54337" lon="-2.74743">
        <ele>91.6</ele>
        <time>2015-11-28T10:50:43Z</time>
      </trkpt>
      <trkpt lat="48.54346" lon="-2.74747">
        <ele>91.6</ele>
        <time>2015-11-28T10:50:45Z</time>
      </trkpt>
      <trkpt lat="48.54355" lon="-2.74751">
        <ele>91.6</ele>
        <time>2015-11-28T10:50:47Z</time>
      </trkpt>
      <trkpt lat="48.54365" lon="-2.74756">
        <ele>91.6</ele>
        <time>2015-11-28T10:50:49Z</time>
      </trkpt>
      <trkpt lat="48.54374" lon="-2.7476">
        <ele>91.6</ele>
        <time>2015-11-28T10:50:51Z</time>
      </trkpt>
      <trkpt lat="48.54383" lon="-2.74764">
        <ele>91.6</ele>
        <time>2015-11-28T10:50:53Z</time>
      </trkpt>
      <trkpt lat="48.54393" lon="-2.74768">
        <ele>91.6</ele>
        <time>2015-11-28T10:50:55Z</time>
      </trkpt>
      <trkpt lat="48.54403" lon="-2.74772">
        <ele>91.6</ele>
        <time>2015-11-28T10:50:57Z</time>
      </trkpt>
      <trkpt lat="48.54412" lon="-2.74777">
        <ele>91.6</ele>
        <time>2015-11-28T10:50:59Z</time>
      </trkpt>
      <trkpt lat="48.54421" lon="-2.74782">
        <ele>91.6</ele>
        <time>2015-11-28T10:51:01Z</time>
      </trkpt>
      <trkpt lat="48.54431" lon="-2.74786">
        <ele>91.5</ele>
        <time>2015-11-28T10:51:03Z</time>
      </trkpt>
      <trkpt lat="48.5444" lon="-2.74791">
        <ele>91.5</ele>
        <time>2015-11-28T10:51:05Z</time>
      </trkpt>
      <trkpt lat="48.54449" lon="-2.74796">
        <ele>91.5</ele>
        <time>2015-11-28T10:51:07Z</time>
      </trkpt>
      <trkpt lat="48.54459" lon="-2.74801">
        <ele>91.5</ele>
        <time>2015-11-28T10:51:09Z</time>
      </trkpt>
      <trkpt lat="48.54468" lon="-2.74806">
        <ele>91.5</ele>
        <time>2015-11-28T10:51:11Z</time>
      </trkpt>
      <trkpt lat="48.54478" lon="-2.7481">
        <ele>91.4</ele>
        <time>2015-11-28T10:51:13Z</time>
      </trkpt>
      <trkpt lat="48.54487" lon="-2.74815">
        <ele>91.4</ele>
        <time>2015-11-28T10:51:15Z</time>
      </trkpt>
      <trkpt lat="48.54497" lon="-2.74819">
        <ele>91.3</ele>
        <time>2015-11-28T10:51:17Z</time>
      </trkpt>
      <trkpt lat="48.54506" lon="-2.74824">
        <ele>91.3</ele>
        <time>2015-11-28T10:51:19Z</time>
      </trkpt>
      <trkpt lat="48.54515" lon="-2.74829">
        <ele>91.3</ele>
        <time>2015-11-28T10:51:21Z</time>
      </trkpt>
      <trkpt lat="48.54525" lon="-2.74834">
        <ele>91.2</ele>
        <time>2015-11-28T10:51:23Z</time>
      </trkpt>
      <trkpt lat="48.54534" lon="-2.74838">
        <ele>91.2</ele>
        <time>2015-11-28T10:51:25Z</time>
      </trkpt>
      <trkpt lat="48.54544" lon="-2.74843">
        <ele>91.2</ele>
        <time>2015-11-28T10:51:27Z</time>
      </trkpt>
      <trkpt lat="48.54554" lon="-2.74847">
        <ele>91.1</ele>
        <time>2015-11-28T10:51:29Z</time>
      </trkpt>
      <trkpt lat="48.54563" lon="-2.74851">
        <ele>91</ele>
        <time>2015-11-28T10:51:31Z</time>
      </trkpt>
      <trkpt lat="48.54574" lon="-2.74854">
        <ele>91</ele>
        <time>2015-11-28T10:51:33Z</time>
      </trkpt>
      <trkpt lat="48.54584" lon="-2.74857">
        <ele>90.9</ele>
        <time>2015-11-28T10:51:35Z</time>
      </trkpt>
      <trkpt lat="48.54594" lon="-2.74859">
        <ele>90.9</ele>
        <time>2015-11-28T10:51:37Z</time>
      </trkpt>
      <trkpt lat="48.54605" lon="-2.7486">
        <ele>90.8</ele>
        <time>2015-11-28T10:51:39Z</time>
      </trkpt>
      <trkpt lat="48.54616" lon="-2.7486">
        <ele>90.7</ele>
        <time>2015-11-28T10:51:41Z</time>
      </trkpt>
      <trkpt lat="48.54627" lon="-2.7486">
        <ele>90.7</ele>
        <time>2015-11-28T10:51:43Z</time>
      </trkpt>
      <trkpt lat="48.54638" lon="-2.74861">
        <ele>90.6</ele>
        <time>2015-11-28T10:51:45Z</time>
      </trkpt>
      <trkpt lat="48.5465" lon="-2.74862">
        <ele>90.5</ele>
        <time>2015-11-28T10:51:47Z</time>
      </trkpt>
      <trkpt lat="48.54661" lon="-2.74862">
        <ele>90.4</ele>
        <time>2015-11-28T10:51:49Z</time>
      </trkpt>
      <trkpt lat="48.54672" lon="-2.74864">
        <ele>90.1</ele>
        <time>2015-11-28T10:51:51Z</time>
      </trkpt>
      <trkpt lat="48.54684" lon="-2.74865">
        <ele>90</ele>
        <time>2015-11-28T10:51:53Z</time>
      </trkpt>
      <trkpt lat="48.54694" lon="-2.74867">
        <ele>89.8</ele>
        <time>2015-11-28T10:51:55Z</time>
      </trkpt>
      <trkpt lat="48.54703" lon="-2.74869">
        <ele>89.5</ele>
        <time>2015-11-28T10:51:57Z</time>
      </trkpt>
      <trkpt lat="48.54713" lon="-2.74872">
        <ele>89.3</ele>
        <time>2015-11-28T10:51:59Z</time>
      </trkpt>
      <trkpt lat="48.54724" lon="-2.74875">
        <ele>89.1</ele>
        <time>2015-11-28T10:52:01Z</time>
      </trkpt>
      <trkpt lat="48.54734" lon="-2.74878">
        <ele>88.8</ele>
        <time>2015-11-28T10:52:03Z</time>
      </trkpt>
      <trkpt lat="48.54746" lon="-2.74884">
        <ele>88.5</ele>
        <time>2015-11-28T10:52:05Z</time>
      </trkpt>
      <trkpt lat="48.54759" lon="-2.74892">
        <ele>88.1</ele>
        <time>2015-11-28T10:52:07Z</time>
      </trkpt>
      <trkpt lat="48.54771" lon="-2.74898">
        <ele>87.7</ele>
        <time>2015-11-28T10:52:09Z</time>
      </trkpt>
      <trkpt lat="48.54784" lon="-2.74902">
        <ele>87.2</ele>
        <time>2015-11-28T10:52:11Z</time>
      </trkpt>
      <trkpt lat="48.54796" lon="-2.74904">
        <ele>86.8</ele>
        <time>2015-11-28T10:52:13Z</time>
      </trkpt>
      <trkpt lat="48.54806" lon="-2.74904">
        <ele>86.4</ele>
        <time>2015-11-28T10:52:15Z</time>
      </trkpt>
      <trkpt lat="48.54816" lon="-2.74894">
        <ele>85.7</ele>
        <time>2015-11-28T10:52:18Z</time>
      </trkpt>
      <trkpt lat="48.54822" lon="-2.74882">
        <ele>85.1</ele>
        <time>2015-11-28T10:52:21Z</time>
      </trkpt>
      <trkpt lat="48.54823" lon="-2.74897">
        <ele>83.7</ele>
        <time>2015-11-28T10:52:33Z</time>
      </trkpt>
      <trkpt lat="48.54832" lon="-2.74908">
        <ele>83.4</ele>
        <time>2015-11-28T10:52:37Z</time>
      </trkpt>
      <trkpt lat="48.54845" lon="-2.74909">
        <ele>82.9</ele>
        <time>2015-11-28T10:52:40Z</time>
      </trkpt>
      <trkpt lat="48.54855" lon="-2.7491">
        <ele>82.6</ele>
        <time>2015-11-28T10:52:42Z</time>
      </trkpt>
      <trkpt lat="48.54865" lon="-2.74915">
        <ele>82.2</ele>
        <time>2015-11-28T10:52:44Z</time>
      </trkpt>
      <trkpt lat="48.54876" lon="-2.74921">
        <ele>81.7</ele>
        <time>2015-11-28T10:52:46Z</time>
      </trkpt>
      <trkpt lat="48.54887" lon="-2.74928">
        <ele>81.2</ele>
        <time>2015-11-28T10:52:48Z</time>
      </trkpt>
      <trkpt lat="48.54897" lon="-2.74935">
        <ele>80.6</ele>
        <time>2015-11-28T10:52:50Z</time>
      </trkpt>
      <trkpt lat="48.54908" lon="-2.74943">
        <ele>80.1</ele>
        <time>2015-11-28T10:52:52Z</time>
      </trkpt>
      <trkpt lat="48.54918" lon="-2.74953">
        <ele>79.5</ele>
        <time>2015-11-28T10:52:54Z</time>
      </trkpt>
      <trkpt lat="48.54928" lon="-2.74962">
        <ele>78.8</ele>
        <time>2015-11-28T10:52:56Z</time>
      </trkpt>
      <trkpt lat="48.54939" lon="-2.74969">
        <ele>78.2</ele>
        <time>2015-11-28T10:52:58Z</time>
      </trkpt>
      <trkpt lat="48.54951" lon="-2.74973">
        <ele>77.5</ele>
        <time>2015-11-28T10:53:00Z</time>
      </trkpt>
      <trkpt lat="48.54964" lon="-2.74976">
        <ele>76.7</ele>
        <time>2015-11-28T10:53:02Z</time>
      </trkpt>
      <trkpt lat="48.54977" lon="-2.74979">
        <ele>75.7</ele>
        <time>2015-11-28T10:53:04Z</time>
      </trkpt>
      <trkpt lat="48.5499" lon="-2.74981">
        <ele>74.8</ele>
        <time>2015-11-28T10:53:06Z</time>
      </trkpt>
      <trkpt lat="48.55004" lon="-2.74982">
        <ele>73.9</ele>
        <time>2015-11-28T10:53:08Z</time>
      </trkpt>
      <trkpt lat="48.55018" lon="-2.74983">
        <ele>72.9</ele>
        <time>2015-11-28T10:53:10Z</time>
      </trkpt>
      <trkpt lat="48.55032" lon="-2.74981">
        <ele>71.9</ele>
        <time>2015-11-28T10:53:12Z</time>
      </trkpt>
      <trkpt lat="48.55043" lon="-2.74978">
        <ele>70.9</ele>
        <time>2015-11-28T10:53:14Z</time>
      </trkpt>
      <trkpt lat="48.55052" lon="-2.74973">
        <ele>70.1</ele>
        <time>2015-11-28T10:53:16Z</time>
      </trkpt>
      <trkpt lat="48.55065" lon="-2.74967">
        <ele>69.1</ele>
        <time>2015-11-28T10:53:18Z</time>
      </trkpt>
      <trkpt lat="48.5508" lon="-2.74963">
        <ele>68.1</ele>
        <time>2015-11-28T10:53:20Z</time>
      </trkpt>
      <trkpt lat="48.55093" lon="-2.74962">
        <ele>67.2</ele>
        <time>2015-11-28T10:53:22Z</time>
      </trkpt>
      <trkpt lat="48.55107" lon="-2.74966">
        <ele>66.3</ele>
        <time>2015-11-28T10:53:24Z</time>
      </trkpt>
      <trkpt lat="48.55123" lon="-2.74975">
        <ele>65.2</ele>
        <time>2015-11-28T10:53:26Z</time>
      </trkpt>
      <trkpt lat="48.55132" lon="-2.7498">
        <ele>64.5</ele>
        <time>2015-11-28T10:53:27Z</time>
      </trkpt>
      <trkpt lat="48.5514" lon="-2.74985">
        <ele>63.9</ele>
        <time>2015-11-28T10:53:28Z</time>
      </trkpt>
      <trkpt lat="48.55149" lon="-2.74991">
        <ele>63.2</ele>
        <time>2015-11-28T10:53:29Z</time>
      </trkpt>
      <trkpt lat="48.55163" lon="-2.75002">
        <ele>62</ele>
        <time>2015-11-28T10:53:31Z</time>
      </trkpt>
      <trkpt lat="48.55175" lon="-2.75011">
        <ele>60.6</ele>
        <time>2015-11-28T10:53:33Z</time>
      </trkpt>
      <trkpt lat="48.55185" lon="-2.75016">
        <ele>59.4</ele>
        <time>2015-11-28T10:53:35Z</time>
      </trkpt>
      <trkpt lat="48.55194" lon="-2.75022">
        <ele>57.7</ele>
        <time>2015-11-28T10:53:38Z</time>
      </trkpt>
      <trkpt lat="48.55195" lon="-2.75036">
        <ele>54.3</ele>
        <time>2015-11-28T10:53:47Z</time>
      </trkpt>
      <trkpt lat="48.55195" lon="-2.75054">
        <ele>51.4</ele>
        <time>2015-11-28T10:54:05Z</time>
      </trkpt>
      <trkpt lat="48.55193" lon="-2.75068">
        <ele>51.2</ele>
        <time>2015-11-28T10:54:08Z</time>
      </trkpt>
      <trkpt lat="48.55197" lon="-2.75081">
        <ele>51</ele>
        <time>2015-11-28T10:54:12Z</time>
      </trkpt>
      <trkpt lat="48.552" lon="-2.75093">
        <ele>51.2</ele>
        <time>2015-11-28T10:54:18Z</time>
      </trkpt>
      <trkpt lat="48.55205" lon="-2.75106">
        <ele>52.4</ele>
        <time>2015-11-28T10:54:26Z</time>
      </trkpt>
      <trkpt lat="48.55209" lon="-2.75119">
        <ele>54</ele>
        <time>2015-11-28T10:54:35Z</time>
      </trkpt>
      <trkpt lat="48.55212" lon="-2.75132">
        <ele>55.8</ele>
        <time>2015-11-28T10:54:44Z</time>
      </trkpt>
      <trkpt lat="48.55215" lon="-2.75146">
        <ele>58.1</ele>
        <time>2015-11-28T10:54:54Z</time>
      </trkpt>
      <trkpt lat="48.55217" lon="-2.7516">
        <ele>59.9</ele>
        <time>2015-11-28T10:55:02Z</time>
      </trkpt>
      <trkpt lat="48.5522" lon="-2.75174">
        <ele>61.8</ele>
        <time>2015-11-28T10:55:11Z</time>
      </trkpt>
      <trkpt lat="48.55222" lon="-2.75188">
        <ele>63.5</ele>
        <time>2015-11-28T10:55:19Z</time>
      </trkpt>
      <trkpt lat="48.55225" lon="-2.75203">
        <ele>65.4</ele>
        <time>2015-11-28T10:55:26Z</time>
      </trkpt>
      <trkpt lat="48.55229" lon="-2.75215">
        <ele>67.6</ele>
        <time>2015-11-28T10:55:33Z</time>
      </trkpt>
      <trkpt lat="48.55237" lon="-2.75223">
        <ele>71.2</ele>
        <time>2015-11-28T10:55:44Z</time>
      </trkpt>
      <trkpt lat="48.55247" lon="-2.75225">
        <ele>73.8</ele>
        <time>2015-11-28T10:55:53Z</time>
      </trkpt>
      <trkpt lat="48.55257" lon="-2.75227">
        <ele>75.6</ele>
        <time>2015-11-28T10:56:00Z</time>
      </trkpt>
      <trkpt lat="48.55267" lon="-2.75226">
        <ele>76.9</ele>
        <time>2015-11-28T10:56:06Z</time>
      </trkpt>
      <trkpt lat="48.55279" lon="-2.75225">
        <ele>77.8</ele>
        <time>2015-11-28T10:56:11Z</time>
      </trkpt>
      <trkpt lat="48.55288" lon="-2.75223">
        <ele>78.5</ele>
        <time>2015-11-28T10:56:15Z</time>
      </trkpt>
      <trkpt lat="48.55297" lon="-2.75223">
        <ele>79</ele>
        <time>2015-11-28T10:56:19Z</time>
      </trkpt>
      <trkpt lat="48.55306" lon="-2.75223">
        <ele>79.5</ele>
        <time>2015-11-28T10:56:23Z</time>
      </trkpt>
      <trkpt lat="48.55316" lon="-2.75224">
        <ele>79.9</ele>
        <time>2015-11-28T10:56:27Z</time>
      </trkpt>
      <trkpt lat="48.55326" lon="-2.75226">
        <ele>80.3</ele>
        <time>2015-11-28T10:56:31Z</time>
      </trkpt>
      <trkpt lat="48.55335" lon="-2.75228">
        <ele>80.7</ele>
        <time>2015-11-28T10:56:35Z</time>
      </trkpt>
      <trkpt lat="48.55344" lon="-2.75232">
        <ele>81.1</ele>
        <time>2015-11-28T10:56:39Z</time>
      </trkpt>
      <trkpt lat="48.55355" lon="-2.75237">
        <ele>82</ele>
        <time>2015-11-28T10:56:44Z</time>
      </trkpt>
      <trkpt lat="48.55364" lon="-2.75243">
        <ele>82.7</ele>
        <time>2015-11-28T10:56:49Z</time>
      </trkpt>
      <trkpt lat="48.55373" lon="-2.7525">
        <ele>83.3</ele>
        <time>2015-11-28T10:56:53Z</time>
      </trkpt>
      <trkpt lat="48.55382" lon="-2.75257">
        <ele>83.8</ele>
        <time>2015-11-28T10:56:57Z</time>
      </trkpt>
      <trkpt lat="48.55391" lon="-2.75264">
        <ele>84.1</ele>
        <time>2015-11-28T10:57:00Z</time>
      </trkpt>
      <trkpt lat="48.55402" lon="-2.75273">
        <ele>84.3</ele>
        <time>2015-11-28T10:57:03Z</time>
      </trkpt>
      <trkpt lat="48.55408" lon="-2.75285">
        <ele>84.5</ele>
        <time>2015-11-28T10:57:06Z</time>
      </trkpt>
      <trkpt lat="48.55405" lon="-2.75302">
        <ele>84.6</ele>
        <time>2015-11-28T10:57:10Z</time>
      </trkpt>
      <trkpt lat="48.55401" lon="-2.75315">
        <ele>84.6</ele>
        <time>2015-11-28T10:57:13Z</time>
      </trkpt>
      <trkpt lat="48.55396" lon="-2.75329">
        <ele>84.6</ele>
        <time>2015-11-28T10:57:16Z</time>
      </trkpt>
      <trkpt lat="48.55392" lon="-2.75343">
        <ele>84.5</ele>
        <time>2015-11-28T10:57:19Z</time>
      </trkpt>
      <trkpt lat="48.55388" lon="-2.75357">
        <ele>84.4</ele>
        <time>2015-11-28T10:57:22Z</time>
      </trkpt>
      <trkpt lat="48.55386" lon="-2.75373">
        <ele>84.4</ele>
        <time>2015-11-28T10:57:25Z</time>
      </trkpt>
      <trkpt lat="48.55384" lon="-2.75389">
        <ele>84.3</ele>
        <time>2015-11-28T10:57:28Z</time>
      </trkpt>
      <trkpt lat="48.55382" lon="-2.75406">
        <ele>84.3</ele>
        <time>2015-11-28T10:57:31Z</time>
      </trkpt>
      <trkpt lat="48.5538" lon="-2.75423">
        <ele>84.2</ele>
        <time>2015-11-28T10:57:34Z</time>
      </trkpt>
      <trkpt lat="48.55378" lon="-2.75442">
        <ele>84.2</ele>
        <time>2015-11-28T10:57:37Z</time>
      </trkpt>
      <trkpt lat="48.55376" lon="-2.75461">
        <ele>84.1</ele>
        <time>2015-11-28T10:57:40Z</time>
      </trkpt>
      <trkpt lat="48.55373" lon="-2.7548">
        <ele>83.9</ele>
        <time>2015-11-28T10:57:43Z</time>
      </trkpt>
      <trkpt lat="48.55371" lon="-2.75499">
        <ele>83.6</ele>
        <time>2015-11-28T10:57:46Z</time>
      </trkpt>
      <trkpt lat="48.55369" lon="-2.75517">
        <ele>83.4</ele>
        <time>2015-11-28T10:57:49Z</time>
      </trkpt>
      <trkpt lat="48.55359" lon="-2.75524">
        <ele>83.2</ele>
        <time>2015-11-28T10:57:52Z</time>
      </trkpt>
      <trkpt lat="48.55351" lon="-2.75531">
        <ele>83</ele>
        <time>2015-11-28T10:57:55Z</time>
      </trkpt>
      <trkpt lat="48.55343" lon="-2.75542">
        <ele>82.9</ele>
        <time>2015-11-28T10:57:58Z</time>
      </trkpt>
      <trkpt lat="48.55336" lon="-2.75554">
        <ele>82.8</ele>
        <time>2015-11-28T10:58:01Z</time>
      </trkpt>
      <trkpt lat="48.55329" lon="-2.75567">
        <ele>82.8</ele>
        <time>2015-11-28T10:58:04Z</time>
      </trkpt>
      <trkpt lat="48.55322" lon="-2.7558">
        <ele>82.8</ele>
        <time>2015-11-28T10:58:07Z</time>
      </trkpt>
      <trkpt lat="48.55317" lon="-2.75595">
        <ele>82.9</ele>
        <time>2015-11-28T10:58:10Z</time>
      </trkpt>
      <trkpt lat="48.55311" lon="-2.75611">
        <ele>83</ele>
        <time>2015-11-28T10:58:13Z</time>
      </trkpt>
      <trkpt lat="48.55306" lon="-2.75626">
        <ele>83.1</ele>
        <time>2015-11-28T10:58:16Z</time>
      </trkpt>
      <trkpt lat="48.553" lon="-2.75642">
        <ele>83.2</ele>
        <time>2015-11-28T10:58:19Z</time>
      </trkpt>
      <trkpt lat="48.55294" lon="-2.75658">
        <ele>83.3</ele>
        <time>2015-11-28T10:58:22Z</time>
      </trkpt>
      <trkpt lat="48.55286" lon="-2.75672">
        <ele>83.3</ele>
        <time>2015-11-28T10:58:25Z</time>
      </trkpt>
      <trkpt lat="48.55275" lon="-2.75685">
        <ele>83.4</ele>
        <time>2015-11-28T10:58:28Z</time>
      </trkpt>
      <trkpt lat="48.55267" lon="-2.75692">
        <ele>83.5</ele>
        <time>2015-11-28T10:58:30Z</time>
      </trkpt>
      <trkpt lat="48.55258" lon="-2.75698">
        <ele>83.5</ele>
        <time>2015-11-28T10:58:32Z</time>
      </trkpt>
      <trkpt lat="48.5525" lon="-2.75704">
        <ele>83.5</ele>
        <time>2015-11-28T10:58:34Z</time>
      </trkpt>
      <trkpt lat="48.55242" lon="-2.75712">
        <ele>83.6</ele>
        <time>2015-11-28T10:58:36Z</time>
      </trkpt>
      <trkpt lat="48.55235" lon="-2.75721">
        <ele>83.6</ele>
        <time>2015-11-28T10:58:38Z</time>
      </trkpt>
      <trkpt lat="48.55225" lon="-2.75734">
        <ele>83.6</ele>
        <time>2015-11-28T10:58:41Z</time>
      </trkpt>
      <trkpt lat="48.55217" lon="-2.75748">
        <ele>83.6</ele>
        <time>2015-11-28T10:58:44Z</time>
      </trkpt>
      <trkpt lat="48.55209" lon="-2.75761">
        <ele>83.7</ele>
        <time>2015-11-28T10:58:47Z</time>
      </trkpt>
      <trkpt lat="48.55203" lon="-2.75776">
        <ele>83.7</ele>
        <time>2015-11-28T10:58:50Z</time>
      </trkpt>
      <trkpt lat="48.55195" lon="-2.75791">
        <ele>83.8</ele>
        <time>2015-11-28T10:58:53Z</time>
      </trkpt>
      <trkpt lat="48.55188" lon="-2.75807">
        <ele>83.8</ele>
        <time>2015-11-28T10:58:56Z</time>
      </trkpt>
      <trkpt lat="48.5518" lon="-2.75823">
        <ele>83.9</ele>
        <time>2015-11-28T10:58:59Z</time>
      </trkpt>
      <trkpt lat="48.55172" lon="-2.75839">
        <ele>83.9</ele>
        <time>2015-11-28T10:59:02Z</time>
      </trkpt>
      <trkpt lat="48.55164" lon="-2.75854">
        <ele>83.9</ele>
        <time>2015-11-28T10:59:05Z</time>
      </trkpt>
      <trkpt lat="48.55155" lon="-2.75868">
        <ele>84</ele>
        <time>2015-11-28T10:59:08Z</time>
      </trkpt>
      <trkpt lat="48.55146" lon="-2.7588">
        <ele>84.2</ele>
        <time>2015-11-28T10:59:11Z</time>
      </trkpt>
      <trkpt lat="48.55135" lon="-2.75887">
        <ele>84.3</ele>
        <time>2015-11-28T10:59:14Z</time>
      </trkpt>
      <trkpt lat="48.55125" lon="-2.75894">
        <ele>84.6</ele>
        <time>2015-11-28T10:59:17Z</time>
      </trkpt>
      <trkpt lat="48.55116" lon="-2.75903">
        <ele>84.8</ele>
        <time>2015-11-28T10:59:20Z</time>
      </trkpt>
      <trkpt lat="48.55107" lon="-2.75913">
        <ele>85.1</ele>
        <time>2015-11-28T10:59:23Z</time>
      </trkpt>
      <trkpt lat="48.55101" lon="-2.75924">
        <ele>85.3</ele>
        <time>2015-11-28T10:59:26Z</time>
      </trkpt>
      <trkpt lat="48.55094" lon="-2.75938">
        <ele>85.7</ele>
        <time>2015-11-28T10:59:30Z</time>
      </trkpt>
      <trkpt lat="48.55088" lon="-2.75951">
        <ele>86.1</ele>
        <time>2015-11-28T10:59:33Z</time>
      </trkpt>
      <trkpt lat="48.55081" lon="-2.75965">
        <ele>86.5</ele>
        <time>2015-11-28T10:59:36Z</time>
      </trkpt>
      <trkpt lat="48.55074" lon="-2.75981">
        <ele>86.8</ele>
        <time>2015-11-28T10:59:39Z</time>
      </trkpt>
      <trkpt lat="48.55068" lon="-2.75998">
        <ele>87</ele>
        <time>2015-11-28T10:59:42Z</time>
      </trkpt>
      <trkpt lat="48.55062" lon="-2.76015">
        <ele>87.3</ele>
        <time>2015-11-28T10:59:45Z</time>
      </trkpt>
      <trkpt lat="48.55058" lon="-2.76034">
        <ele>87.4</ele>
        <time>2015-11-28T10:59:48Z</time>
      </trkpt>
      <trkpt lat="48.55054" lon="-2.76052">
        <ele>87.6</ele>
        <time>2015-11-28T10:59:51Z</time>
      </trkpt>
      <trkpt lat="48.55049" lon="-2.76067">
        <ele>87.6</ele>
        <time>2015-11-28T10:59:54Z</time>
      </trkpt>
      <trkpt lat="48.55043" lon="-2.76078">
        <ele>87.6</ele>
        <time>2015-11-28T10:59:57Z</time>
      </trkpt>
      <trkpt lat="48.55037" lon="-2.76091">
        <ele>87.7</ele>
        <time>2015-11-28T11:00:00Z</time>
      </trkpt>
      <trkpt lat="48.55032" lon="-2.76103">
        <ele>87.7</ele>
        <time>2015-11-28T11:00:03Z</time>
      </trkpt>
      <trkpt lat="48.55025" lon="-2.76115">
        <ele>87.7</ele>
        <time>2015-11-28T11:00:06Z</time>
      </trkpt>
      <trkpt lat="48.55019" lon="-2.76126">
        <ele>87.8</ele>
        <time>2015-11-28T11:00:09Z</time>
      </trkpt>
      <trkpt lat="48.55012" lon="-2.76139">
        <ele>87.9</ele>
        <time>2015-11-28T11:00:12Z</time>
      </trkpt>
      <trkpt lat="48.55004" lon="-2.76156">
        <ele>88</ele>
        <time>2015-11-28T11:00:15Z</time>
      </trkpt>
      <trkpt lat="48.54998" lon="-2.76168">
        <ele>87.8</ele>
        <time>2015-11-28T11:00:17Z</time>
      </trkpt>
      <trkpt lat="48.54991" lon="-2.76181">
        <ele>87.6</ele>
        <time>2015-11-28T11:00:19Z</time>
      </trkpt>
      <trkpt lat="48.54984" lon="-2.76194">
        <ele>87.4</ele>
        <time>2015-11-28T11:00:21Z</time>
      </trkpt>
      <trkpt lat="48.54976" lon="-2.76207">
        <ele>87.3</ele>
        <time>2015-11-28T11:00:23Z</time>
      </trkpt>
      <trkpt lat="48.5497" lon="-2.76219">
        <ele>87.1</ele>
        <time>2015-11-28T11:00:25Z</time>
      </trkpt>
      <trkpt lat="48.54962" lon="-2.76231">
        <ele>87</ele>
        <time>2015-11-28T11:00:27Z</time>
      </trkpt>
      <trkpt lat="48.54955" lon="-2.76243">
        <ele>86.9</ele>
        <time>2015-11-28T11:00:29Z</time>
      </trkpt>
      <trkpt lat="48.54948" lon="-2.76256">
        <ele>86.8</ele>
        <time>2015-11-28T11:00:31Z</time>
      </trkpt>
      <trkpt lat="48.54941" lon="-2.76269">
        <ele>86.6</ele>
        <time>2015-11-28T11:00:33Z</time>
      </trkpt>
      <trkpt lat="48.54934" lon="-2.76281">
        <ele>86.4</ele>
        <time>2015-11-28T11:00:35Z</time>
      </trkpt>
      <trkpt lat="48.54927" lon="-2.76292">
        <ele>86.2</ele>
        <time>2015-11-28T11:00:37Z</time>
      </trkpt>
      <trkpt lat="48.5492" lon="-2.76301">
        <ele>85.8</ele>
        <time>2015-11-28T11:00:39Z</time>
      </trkpt>
      <trkpt lat="48.5492" lon="-2.76315">
        <ele>84.5</ele>
        <time>2015-11-28T11:00:43Z</time>
      </trkpt>
      <trkpt lat="48.54915" lon="-2.7633">
        <ele>83.4</ele>
        <time>2015-11-28T11:00:48Z</time>
      </trkpt>
      <trkpt lat="48.5491" lon="-2.76342">
        <ele>83.4</ele>
        <time>2015-11-28T11:00:52Z</time>
      </trkpt>
      <trkpt lat="48.54907" lon="-2.76357">
        <ele>83.6</ele>
        <time>2015-11-28T11:00:57Z</time>
      </trkpt>
      <trkpt lat="48.54902" lon="-2.76371">
        <ele>84</ele>
        <time>2015-11-28T11:01:02Z</time>
      </trkpt>
      <trkpt lat="48.54898" lon="-2.76387">
        <ele>84.6</ele>
        <time>2015-11-28T11:01:07Z</time>
      </trkpt>
      <trkpt lat="48.54895" lon="-2.76403">
        <ele>85.1</ele>
        <time>2015-11-28T11:01:12Z</time>
      </trkpt>
      <trkpt lat="48.54891" lon="-2.76418">
        <ele>85.5</ele>
        <time>2015-11-28T11:01:16Z</time>
      </trkpt>
      <trkpt lat="48.54885" lon="-2.76432">
        <ele>85.9</ele>
        <time>2015-11-28T11:01:20Z</time>
      </trkpt>
      <trkpt lat="48.54881" lon="-2.76449">
        <ele>86.2</ele>
        <time>2015-11-28T11:01:24Z</time>
      </trkpt>
      <trkpt lat="48.54877" lon="-2.76461">
        <ele>86.4</ele>
        <time>2015-11-28T11:01:27Z</time>
      </trkpt>
      <trkpt lat="48.54872" lon="-2.76474">
        <ele>86.6</ele>
        <time>2015-11-28T11:01:30Z</time>
      </trkpt>
      <trkpt lat="48.54868" lon="-2.76488">
        <ele>86.8</ele>
        <time>2015-11-28T11:01:33Z</time>
      </trkpt>
      <trkpt lat="48.54865" lon="-2.76503">
        <ele>87.1</ele>
        <time>2015-11-28T11:01:36Z</time>
      </trkpt>
      <trkpt lat="48.54861" lon="-2.76517">
        <ele>87.3</ele>
        <time>2015-11-28T11:01:39Z</time>
      </trkpt>
      <trkpt lat="48.54855" lon="-2.7653">
        <ele>87.5</ele>
        <time>2015-11-28T11:01:42Z</time>
      </trkpt>
      <trkpt lat="48.5485" lon="-2.76543">
        <ele>87.7</ele>
        <time>2015-11-28T11:01:45Z</time>
      </trkpt>
      <trkpt lat="48.54845" lon="-2.76556">
        <ele>88</ele>
        <time>2015-11-28T11:01:48Z</time>
      </trkpt>
      <trkpt lat="48.54836" lon="-2.76568">
        <ele>88.5</ele>
        <time>2015-11-28T11:01:52Z</time>
      </trkpt>
      <trkpt lat="48.54826" lon="-2.76575">
        <ele>88.8</ele>
        <time>2015-11-28T11:01:56Z</time>
      </trkpt>
      <trkpt lat="48.54814" lon="-2.76578">
        <ele>89.1</ele>
        <time>2015-11-28T11:02:00Z</time>
      </trkpt>
      <trkpt lat="48.54803" lon="-2.76581">
        <ele>89.4</ele>
        <time>2015-11-28T11:02:04Z</time>
      </trkpt>
      <trkpt lat="48.54794" lon="-2.76582">
        <ele>89.6</ele>
        <time>2015-11-28T11:02:07Z</time>
      </trkpt>
      <trkpt lat="48.54784" lon="-2.76585">
        <ele>89.8</ele>
        <time>2015-11-28T11:02:10Z</time>
      </trkpt>
      <trkpt lat="48.54775" lon="-2.76586">
        <ele>90</ele>
        <time>2015-11-28T11:02:13Z</time>
      </trkpt>
      <trkpt lat="48.54764" lon="-2.76585">
        <ele>90.3</ele>
        <time>2015-11-28T11:02:17Z</time>
      </trkpt>
      <trkpt lat="48.54757" lon="-2.76594">
        <ele>90.4</ele>
        <time>2015-11-28T11:02:20Z</time>
      </trkpt>
      <trkpt lat="48.5475" lon="-2.76602">
        <ele>90.5</ele>
        <time>2015-11-28T11:02:23Z</time>
      </trkpt>
      <trkpt lat="48.54741" lon="-2.76608">
        <ele>90.6</ele>
        <time>2015-11-28T11:02:26Z</time>
      </trkpt>
      <trkpt lat="48.54734" lon="-2.76617">
        <ele>90.6</ele>
        <time>2015-11-28T11:02:29Z</time>
      </trkpt>
      <trkpt lat="48.54726" lon="-2.76628">
        <ele>90.7</ele>
        <time>2015-11-28T11:02:33Z</time>
      </trkpt>
      <trkpt lat="48.54716" lon="-2.76634">
        <ele>90.9</ele>
        <time>2015-11-28T11:02:37Z</time>
      </trkpt>
      <trkpt lat="48.54722" lon="-2.76647">
        <ele>91.3</ele>
        <time>2015-11-28T11:02:45Z</time>
      </trkpt>
      <trkpt lat="48.54732" lon="-2.76647">
        <ele>91.1</ele>
        <time>2015-11-28T11:02:47Z</time>
      </trkpt>
      <trkpt lat="48.54746" lon="-2.76643">
        <ele>90.4</ele>
        <time>2015-11-28T11:02:49Z</time>
      </trkpt>
      <trkpt lat="48.54762" lon="-2.76635">
        <ele>89.5</ele>
        <time>2015-11-28T11:02:51Z</time>
      </trkpt>
      <trkpt lat="48.54771" lon="-2.76632">
        <ele>89</ele>
        <time>2015-11-28T11:02:52Z</time>
      </trkpt>
      <trkpt lat="48.5478" lon="-2.76628">
        <ele>88.6</ele>
        <time>2015-11-28T11:02:53Z</time>
      </trkpt>
      <trkpt lat="48.54789" lon="-2.76625">
        <ele>88.2</ele>
        <time>2015-11-28T11:02:54Z</time>
      </trkpt>
      <trkpt lat="48.54805" lon="-2.7662">
        <ele>87.3</ele>
        <time>2015-11-28T11:02:56Z</time>
      </trkpt>
      <trkpt lat="48.5482" lon="-2.76622">
        <ele>86.4</ele>
        <time>2015-11-28T11:02:58Z</time>
      </trkpt>
      <trkpt lat="48.54829" lon="-2.76628">
        <ele>85.5</ele>
        <time>2015-11-28T11:03:00Z</time>
      </trkpt>
      <trkpt lat="48.54838" lon="-2.76634">
        <ele>84.5</ele>
        <time>2015-11-28T11:03:03Z</time>
      </trkpt>
      <trkpt lat="48.54846" lon="-2.76645">
        <ele>83.6</ele>
        <time>2015-11-28T11:03:07Z</time>
      </trkpt>
      <trkpt lat="48.54851" lon="-2.76658">
        <ele>83.1</ele>
        <time>2015-11-28T11:03:11Z</time>
      </trkpt>
      <trkpt lat="48.54858" lon="-2.76672">
        <ele>82.8</ele>
        <time>2015-11-28T11:03:16Z</time>
      </trkpt>
      <trkpt lat="48.54864" lon="-2.76686">
        <ele>82.9</ele>
        <time>2015-11-28T11:03:21Z</time>
      </trkpt>
      <trkpt lat="48.54871" lon="-2.76696">
        <ele>84</ele>
        <time>2015-11-28T11:03:29Z</time>
      </trkpt>
      <trkpt lat="48.54879" lon="-2.76706">
        <ele>85.3</ele>
        <time>2015-11-28T11:03:35Z</time>
      </trkpt>
      <trkpt lat="48.54887" lon="-2.76711">
        <ele>86.6</ele>
        <time>2015-11-28T11:03:40Z</time>
      </trkpt>
      <trkpt lat="48.54896" lon="-2.76718">
        <ele>88.1</ele>
        <time>2015-11-28T11:03:46Z</time>
      </trkpt>
      <trkpt lat="48.54905" lon="-2.76726">
        <ele>89.6</ele>
        <time>2015-11-28T11:03:52Z</time>
      </trkpt>
      <trkpt lat="48.54915" lon="-2.76733">
        <ele>90.8</ele>
        <time>2015-11-28T11:03:57Z</time>
      </trkpt>
      <trkpt lat="48.54924" lon="-2.76739">
        <ele>91.5</ele>
        <time>2015-11-28T11:04:01Z</time>
      </trkpt>
      <trkpt lat="48.54934" lon="-2.76747">
        <ele>92.3</ele>
        <time>2015-11-28T11:04:06Z</time>
      </trkpt>
      <trkpt lat="48.54943" lon="-2.76755">
        <ele>92.9</ele>
        <time>2015-11-28T11:04:10Z</time>
      </trkpt>
      <trkpt lat="48.54952" lon="-2.76761">
        <ele>93.4</ele>
        <time>2015-11-28T11:04:14Z</time>
      </trkpt>
      <trkpt lat="48.54962" lon="-2.7677">
        <ele>94</ele>
        <time>2015-11-28T11:04:20Z</time>
      </trkpt>
      <trkpt lat="48.54971" lon="-2.76777">
        <ele>94.3</ele>
        <time>2015-11-28T11:04:24Z</time>
      </trkpt>
      <trkpt lat="48.5498" lon="-2.76784">
        <ele>94.8</ele>
        <time>2015-11-28T11:04:28Z</time>
      </trkpt>
      <trkpt lat="48.54989" lon="-2.76792">
        <ele>95.2</ele>
        <time>2015-11-28T11:04:32Z</time>
      </trkpt>
      <trkpt lat="48.54997" lon="-2.768">
        <ele>95.6</ele>
        <time>2015-11-28T11:04:36Z</time>
      </trkpt>
      <trkpt lat="48.55006" lon="-2.76809">
        <ele>95.9</ele>
        <time>2015-11-28T11:04:39Z</time>
      </trkpt>
      <trkpt lat="48.55015" lon="-2.76818">
        <ele>96.1</ele>
        <time>2015-11-28T11:04:42Z</time>
      </trkpt>
      <trkpt lat="48.55023" lon="-2.76826">
        <ele>96.2</ele>
        <time>2015-11-28T11:04:44Z</time>
      </trkpt>
      <trkpt lat="48.5503" lon="-2.76835">
        <ele>96.3</ele>
        <time>2015-11-28T11:04:47Z</time>
      </trkpt>
      <trkpt lat="48.55039" lon="-2.76843">
        <ele>96.5</ele>
        <time>2015-11-28T11:04:50Z</time>
      </trkpt>
      <trkpt lat="48.55048" lon="-2.76848">
        <ele>96.6</ele>
        <time>2015-11-28T11:04:53Z</time>
      </trkpt>
      <trkpt lat="48.5506" lon="-2.76845">
        <ele>96.7</ele>
        <time>2015-11-28T11:04:57Z</time>
      </trkpt>
      <trkpt lat="48.55067" lon="-2.76831">
        <ele>96.9</ele>
        <time>2015-11-28T11:05:01Z</time>
      </trkpt>
      <trkpt lat="48.55072" lon="-2.76818">
        <ele>97.1</ele>
        <time>2015-11-28T11:05:04Z</time>
      </trkpt>
      <trkpt lat="48.55077" lon="-2.76805">
        <ele>97.2</ele>
        <time>2015-11-28T11:05:07Z</time>
      </trkpt>
      <trkpt lat="48.55082" lon="-2.76792">
        <ele>97.3</ele>
        <time>2015-11-28T11:05:10Z</time>
      </trkpt>
      <trkpt lat="48.55088" lon="-2.76779">
        <ele>97.4</ele>
        <time>2015-11-28T11:05:13Z</time>
      </trkpt>
      <trkpt lat="48.55097" lon="-2.76773">
        <ele>97.5</ele>
        <time>2015-11-28T11:05:16Z</time>
      </trkpt>
      <trkpt lat="48.55108" lon="-2.76779">
        <ele>97.6</ele>
        <time>2015-11-28T11:05:19Z</time>
      </trkpt>
      <trkpt lat="48.5512" lon="-2.76785">
        <ele>97.6</ele>
        <time>2015-11-28T11:05:22Z</time>
      </trkpt>
      <trkpt lat="48.5513" lon="-2.76793">
        <ele>97.5</ele>
        <time>2015-11-28T11:05:25Z</time>
      </trkpt>
      <trkpt lat="48.55138" lon="-2.76799">
        <ele>97.5</ele>
        <time>2015-11-28T11:05:27Z</time>
      </trkpt>
      <trkpt lat="48.55147" lon="-2.76806">
        <ele>97.5</ele>
        <time>2015-11-28T11:05:29Z</time>
      </trkpt>
      <trkpt lat="48.55156" lon="-2.76811">
        <ele>97.4</ele>
        <time>2015-11-28T11:05:31Z</time>
      </trkpt>
      <trkpt lat="48.55166" lon="-2.76816">
        <ele>97.3</ele>
        <time>2015-11-28T11:05:33Z</time>
      </trkpt>
      <trkpt lat="48.55176" lon="-2.76822">
        <ele>97.2</ele>
        <time>2015-11-28T11:05:35Z</time>
      </trkpt>
      <trkpt lat="48.55187" lon="-2.76827">
        <ele>97.2</ele>
        <time>2015-11-28T11:05:37Z</time>
      </trkpt>
      <trkpt lat="48.55197" lon="-2.76835">
        <ele>97</ele>
        <time>2015-11-28T11:05:39Z</time>
      </trkpt>
      <trkpt lat="48.55207" lon="-2.76842">
        <ele>96.8</ele>
        <time>2015-11-28T11:05:41Z</time>
      </trkpt>
      <trkpt lat="48.55216" lon="-2.76849">
        <ele>96.7</ele>
        <time>2015-11-28T11:05:43Z</time>
      </trkpt>
      <trkpt lat="48.55225" lon="-2.7684">
        <ele>96.5</ele>
        <time>2015-11-28T11:05:46Z</time>
      </trkpt>
      <trkpt lat="48.55228" lon="-2.76822">
        <ele>96.3</ele>
        <time>2015-11-28T11:05:49Z</time>
      </trkpt>
      <trkpt lat="48.55231" lon="-2.76809">
        <ele>96.2</ele>
        <time>2015-11-28T11:05:51Z</time>
      </trkpt>
      <trkpt lat="48.55235" lon="-2.76791">
        <ele>96</ele>
        <time>2015-11-28T11:05:54Z</time>
      </trkpt>
      <trkpt lat="48.5524" lon="-2.76778">
        <ele>95.9</ele>
        <time>2015-11-28T11:05:56Z</time>
      </trkpt>
      <trkpt lat="48.55245" lon="-2.76765">
        <ele>95.8</ele>
        <time>2015-11-28T11:05:58Z</time>
      </trkpt>
      <trkpt lat="48.5525" lon="-2.76751">
        <ele>95.7</ele>
        <time>2015-11-28T11:06:00Z</time>
      </trkpt>
      <trkpt lat="48.55255" lon="-2.76737">
        <ele>95.7</ele>
        <time>2015-11-28T11:06:02Z</time>
      </trkpt>
      <trkpt lat="48.5526" lon="-2.76723">
        <ele>95.5</ele>
        <time>2015-11-28T11:06:04Z</time>
      </trkpt>
      <trkpt lat="48.55266" lon="-2.76709">
        <ele>95.4</ele>
        <time>2015-11-28T11:06:06Z</time>
      </trkpt>
      <trkpt lat="48.55272" lon="-2.76695">
        <ele>95.3</ele>
        <time>2015-11-28T11:06:08Z</time>
      </trkpt>
      <trkpt lat="48.55278" lon="-2.76681">
        <ele>95.2</ele>
        <time>2015-11-28T11:06:10Z</time>
      </trkpt>
      <trkpt lat="48.55284" lon="-2.76667">
        <ele>95.1</ele>
        <time>2015-11-28T11:06:12Z</time>
      </trkpt>
      <trkpt lat="48.55288" lon="-2.76652">
        <ele>95.1</ele>
        <time>2015-11-28T11:06:14Z</time>
      </trkpt>
      <trkpt lat="48.55291" lon="-2.76638">
        <ele>95</ele>
        <time>2015-11-28T11:06:16Z</time>
      </trkpt>
      <trkpt lat="48.55295" lon="-2.76624">
        <ele>94.9</ele>
        <time>2015-11-28T11:06:18Z</time>
      </trkpt>
      <trkpt lat="48.55303" lon="-2.76617">
        <ele>94.8</ele>
        <time>2015-11-28T11:06:20Z</time>
      </trkpt>
      <trkpt lat="48.55312" lon="-2.7662">
        <ele>94.7</ele>
        <time>2015-11-28T11:06:22Z</time>
      </trkpt>
      <trkpt lat="48.55321" lon="-2.76623">
        <ele>94.6</ele>
        <time>2015-11-28T11:06:24Z</time>
      </trkpt>
      <trkpt lat="48.5533" lon="-2.76623">
        <ele>94.5</ele>
        <time>2015-11-28T11:06:26Z</time>
      </trkpt>
      <trkpt lat="48.55339" lon="-2.76616">
        <ele>94.4</ele>
        <time>2015-11-28T11:06:28Z</time>
      </trkpt>
      <trkpt lat="48.55347" lon="-2.76608">
        <ele>94.4</ele>
        <time>2015-11-28T11:06:30Z</time>
      </trkpt>
      <trkpt lat="48.55355" lon="-2.76598">
        <ele>94.4</ele>
        <time>2015-11-28T11:06:32Z</time>
      </trkpt>
      <trkpt lat="48.55361" lon="-2.76587">
        <ele>94.4</ele>
        <time>2015-11-28T11:06:34Z</time>
      </trkpt>
      <trkpt lat="48.55366" lon="-2.76574">
        <ele>94.4</ele>
        <time>2015-11-28T11:06:36Z</time>
      </trkpt>
      <trkpt lat="48.55372" lon="-2.76561">
        <ele>94.4</ele>
        <time>2015-11-28T11:06:38Z</time>
      </trkpt>
      <trkpt lat="48.55379" lon="-2.76546">
        <ele>94.4</ele>
        <time>2015-11-28T11:06:40Z</time>
      </trkpt>
      <trkpt lat="48.55384" lon="-2.76531">
        <ele>94.4</ele>
        <time>2015-11-28T11:06:42Z</time>
      </trkpt>
      <trkpt lat="48.55388" lon="-2.76516">
        <ele>94.5</ele>
        <time>2015-11-28T11:06:44Z</time>
      </trkpt>
      <trkpt lat="48.55393" lon="-2.76501">
        <ele>94.5</ele>
        <time>2015-11-28T11:06:46Z</time>
      </trkpt>
      <trkpt lat="48.55397" lon="-2.76488">
        <ele>94.6</ele>
        <time>2015-11-28T11:06:48Z</time>
      </trkpt>
      <trkpt lat="48.55402" lon="-2.76475">
        <ele>94.7</ele>
        <time>2015-11-28T11:06:50Z</time>
      </trkpt>
      <trkpt lat="48.55407" lon="-2.76463">
        <ele>94.8</ele>
        <time>2015-11-28T11:06:52Z</time>
      </trkpt>
      <trkpt lat="48.55412" lon="-2.76452">
        <ele>95</ele>
        <time>2015-11-28T11:06:54Z</time>
      </trkpt>
      <trkpt lat="48.55422" lon="-2.76437">
        <ele>95.1</ele>
        <time>2015-11-28T11:06:57Z</time>
      </trkpt>
      <trkpt lat="48.55428" lon="-2.76425">
        <ele>95.1</ele>
        <time>2015-11-28T11:06:59Z</time>
      </trkpt>
      <trkpt lat="48.55434" lon="-2.76413">
        <ele>95</ele>
        <time>2015-11-28T11:07:01Z</time>
      </trkpt>
      <trkpt lat="48.55439" lon="-2.76399">
        <ele>95</ele>
        <time>2015-11-28T11:07:03Z</time>
      </trkpt>
      <trkpt lat="48.55443" lon="-2.76385">
        <ele>95</ele>
        <time>2015-11-28T11:07:05Z</time>
      </trkpt>
      <trkpt lat="48.55449" lon="-2.7637">
        <ele>94.8</ele>
        <time>2015-11-28T11:07:08Z</time>
      </trkpt>
      <trkpt lat="48.55458" lon="-2.76375">
        <ele>94.7</ele>
        <time>2015-11-28T11:07:11Z</time>
      </trkpt>
      <trkpt lat="48.55468" lon="-2.76384">
        <ele>94.6</ele>
        <time>2015-11-28T11:07:14Z</time>
      </trkpt>
      <trkpt lat="48.55481" lon="-2.7639">
        <ele>94.4</ele>
        <time>2015-11-28T11:07:17Z</time>
      </trkpt>
      <trkpt lat="48.5549" lon="-2.76394">
        <ele>94.3</ele>
        <time>2015-11-28T11:07:19Z</time>
      </trkpt>
      <trkpt lat="48.555" lon="-2.76397">
        <ele>94.1</ele>
        <time>2015-11-28T11:07:21Z</time>
      </trkpt>
      <trkpt lat="48.5551" lon="-2.76401">
        <ele>93.9</ele>
        <time>2015-11-28T11:07:23Z</time>
      </trkpt>
      <trkpt lat="48.55519" lon="-2.76404">
        <ele>93.7</ele>
        <time>2015-11-28T11:07:25Z</time>
      </trkpt>
      <trkpt lat="48.55528" lon="-2.76407">
        <ele>93.3</ele>
        <time>2015-11-28T11:07:27Z</time>
      </trkpt>
      <trkpt lat="48.55538" lon="-2.7641">
        <ele>93</ele>
        <time>2015-11-28T11:07:29Z</time>
      </trkpt>
      <trkpt lat="48.55548" lon="-2.76413">
        <ele>92.8</ele>
        <time>2015-11-28T11:07:31Z</time>
      </trkpt>
      <trkpt lat="48.55558" lon="-2.76419">
        <ele>92.5</ele>
        <time>2015-11-28T11:07:33Z</time>
      </trkpt>
      <trkpt lat="48.55568" lon="-2.76428">
        <ele>92.2</ele>
        <time>2015-11-28T11:07:35Z</time>
      </trkpt>
      <trkpt lat="48.55579" lon="-2.76436">
        <ele>91.5</ele>
        <time>2015-11-28T11:07:37Z</time>
      </trkpt>
      <trkpt lat="48.5559" lon="-2.76443">
        <ele>90.9</ele>
        <time>2015-11-28T11:07:39Z</time>
      </trkpt>
      <trkpt lat="48.556" lon="-2.76451">
        <ele>90.2</ele>
        <time>2015-11-28T11:07:41Z</time>
      </trkpt>
      <trkpt lat="48.5561" lon="-2.76453">
        <ele>89.1</ele>
        <time>2015-11-28T11:07:44Z</time>
      </trkpt>
      <trkpt lat="48.55612" lon="-2.76438">
        <ele>88</ele>
        <time>2015-11-28T11:07:47Z</time>
      </trkpt>
      <trkpt lat="48.55615" lon="-2.76423">
        <ele>86.9</ele>
        <time>2015-11-28T11:07:50Z</time>
      </trkpt>
      <trkpt lat="48.5562" lon="-2.76407">
        <ele>85.8</ele>
        <time>2015-11-28T11:07:54Z</time>
      </trkpt>
      <trkpt lat="48.55625" lon="-2.76394">
        <ele>85.1</ele>
        <time>2015-11-28T11:07:57Z</time>
      </trkpt>
      <trkpt lat="48.5563" lon="-2.7638">
        <ele>84.6</ele>
        <time>2015-11-28T11:08:00Z</time>
      </trkpt>
      <trkpt lat="48.55636" lon="-2.76364">
        <ele>84.1</ele>
        <time>2015-11-28T11:08:03Z</time>
      </trkpt>
      <trkpt lat="48.55642" lon="-2.76347">
        <ele>83.8</ele>
        <time>2015-11-28T11:08:06Z</time>
      </trkpt>
      <trkpt lat="48.55647" lon="-2.76329">
        <ele>83.5</ele>
        <time>2015-11-28T11:08:09Z</time>
      </trkpt>
      <trkpt lat="48.55653" lon="-2.76312">
        <ele>83.2</ele>
        <time>2015-11-28T11:08:12Z</time>
      </trkpt>
      <trkpt lat="48.55658" lon="-2.76296">
        <ele>83</ele>
        <time>2015-11-28T11:08:15Z</time>
      </trkpt>
      <trkpt lat="48.55664" lon="-2.76277">
        <ele>82.9</ele>
        <time>2015-11-28T11:08:18Z</time>
      </trkpt>
      <trkpt lat="48.55668" lon="-2.76264">
        <ele>82.8</ele>
        <time>2015-11-28T11:08:20Z</time>
      </trkpt>
      <trkpt lat="48.55673" lon="-2.7625">
        <ele>82.7</ele>
        <time>2015-11-28T11:08:22Z</time>
      </trkpt>
      <trkpt lat="48.55677" lon="-2.76235">
        <ele>82.6</ele>
        <time>2015-11-28T11:08:24Z</time>
      </trkpt>
      <trkpt lat="48.5568" lon="-2.76219">
        <ele>82.5</ele>
        <time>2015-11-28T11:08:26Z</time>
      </trkpt>
      <trkpt lat="48.55681" lon="-2.76204">
        <ele>82.5</ele>
        <time>2015-11-28T11:08:28Z</time>
      </trkpt>
      <trkpt lat="48.55679" lon="-2.7619">
        <ele>82.4</ele>
        <time>2015-11-28T11:08:30Z</time>
      </trkpt>
      <trkpt lat="48.55671" lon="-2.76176">
        <ele>82.3</ele>
        <time>2015-11-28T11:08:33Z</time>
      </trkpt>
      <trkpt lat="48.55661" lon="-2.76163">
        <ele>82.3</ele>
        <time>2015-11-28T11:08:36Z</time>
      </trkpt>
      <trkpt lat="48.55652" lon="-2.76152">
        <ele>82.2</ele>
        <time>2015-11-28T11:08:39Z</time>
      </trkpt>
      <trkpt lat="48.55642" lon="-2.76139">
        <ele>82.3</ele>
        <time>2015-11-28T11:08:42Z</time>
      </trkpt>
      <trkpt lat="48.55633" lon="-2.76126">
        <ele>82.4</ele>
        <time>2015-11-28T11:08:45Z</time>
      </trkpt>
      <trkpt lat="48.55624" lon="-2.76112">
        <ele>82.6</ele>
        <time>2015-11-28T11:08:48Z</time>
      </trkpt>
      <trkpt lat="48.55616" lon="-2.76097">
        <ele>82.8</ele>
        <time>2015-11-28T11:08:51Z</time>
      </trkpt>
      <trkpt lat="48.55608" lon="-2.7608">
        <ele>82.9</ele>
        <time>2015-11-28T11:08:54Z</time>
      </trkpt>
      <trkpt lat="48.55601" lon="-2.76064">
        <ele>83.1</ele>
        <time>2015-11-28T11:08:57Z</time>
      </trkpt>
      <trkpt lat="48.55594" lon="-2.76047">
        <ele>83.2</ele>
        <time>2015-11-28T11:09:00Z</time>
      </trkpt>
      <trkpt lat="48.55589" lon="-2.76035">
        <ele>83.2</ele>
        <time>2015-11-28T11:09:02Z</time>
      </trkpt>
      <trkpt lat="48.55584" lon="-2.76023">
        <ele>83.3</ele>
        <time>2015-11-28T11:09:04Z</time>
      </trkpt>
      <trkpt lat="48.5558" lon="-2.7601">
        <ele>83.3</ele>
        <time>2015-11-28T11:09:06Z</time>
      </trkpt>
      <trkpt lat="48.55576" lon="-2.75997">
        <ele>83.4</ele>
        <time>2015-11-28T11:09:08Z</time>
      </trkpt>
      <trkpt lat="48.55572" lon="-2.75984">
        <ele>83.4</ele>
        <time>2015-11-28T11:09:10Z</time>
      </trkpt>
      <trkpt lat="48.55569" lon="-2.7597">
        <ele>83.5</ele>
        <time>2015-11-28T11:09:12Z</time>
      </trkpt>
      <trkpt lat="48.55565" lon="-2.75956">
        <ele>83.5</ele>
        <time>2015-11-28T11:09:14Z</time>
      </trkpt>
      <trkpt lat="48.55561" lon="-2.75942">
        <ele>83.5</ele>
        <time>2015-11-28T11:09:16Z</time>
      </trkpt>
      <trkpt lat="48.55557" lon="-2.75928">
        <ele>83.5</ele>
        <time>2015-11-28T11:09:18Z</time>
      </trkpt>
      <trkpt lat="48.55555" lon="-2.75914">
        <ele>83.5</ele>
        <time>2015-11-28T11:09:20Z</time>
      </trkpt>
      <trkpt lat="48.55552" lon="-2.759">
        <ele>83.5</ele>
        <time>2015-11-28T11:09:22Z</time>
      </trkpt>
      <trkpt lat="48.55549" lon="-2.75881">
        <ele>83.4</ele>
        <time>2015-11-28T11:09:25Z</time>
      </trkpt>
      <trkpt lat="48.55554" lon="-2.75865">
        <ele>83.3</ele>
        <time>2015-11-28T11:09:28Z</time>
      </trkpt>
      <trkpt lat="48.55562" lon="-2.75855">
        <ele>83.3</ele>
        <time>2015-11-28T11:09:30Z</time>
      </trkpt>
      <trkpt lat="48.55569" lon="-2.75844">
        <ele>83.2</ele>
        <time>2015-11-28T11:09:32Z</time>
      </trkpt>
      <trkpt lat="48.55576" lon="-2.75834">
        <ele>83.1</ele>
        <time>2015-11-28T11:09:34Z</time>
      </trkpt>
      <trkpt lat="48.55582" lon="-2.75823">
        <ele>83.1</ele>
        <time>2015-11-28T11:09:36Z</time>
      </trkpt>
      <trkpt lat="48.5559" lon="-2.75814">
        <ele>83</ele>
        <time>2015-11-28T11:09:39Z</time>
      </trkpt>
      <trkpt lat="48.556" lon="-2.75825">
        <ele>82.8</ele>
        <time>2015-11-28T11:09:43Z</time>
      </trkpt>
      <trkpt lat="48.55609" lon="-2.75839">
        <ele>82.6</ele>
        <time>2015-11-28T11:09:46Z</time>
      </trkpt>
      <trkpt lat="48.55617" lon="-2.75854">
        <ele>82.4</ele>
        <time>2015-11-28T11:09:49Z</time>
      </trkpt>
      <trkpt lat="48.55625" lon="-2.75869">
        <ele>82.2</ele>
        <time>2015-11-28T11:09:52Z</time>
      </trkpt>
      <trkpt lat="48.55637" lon="-2.75872">
        <ele>81.9</ele>
        <time>2015-11-28T11:09:55Z</time>
      </trkpt>
      <trkpt lat="48.55649" lon="-2.75876">
        <ele>81.7</ele>
        <time>2015-11-28T11:09:58Z</time>
      </trkpt>
      <trkpt lat="48.55659" lon="-2.75879">
        <ele>81.5</ele>
        <time>2015-11-28T11:10:00Z</time>
      </trkpt>
      <trkpt lat="48.55672" lon="-2.75881">
        <ele>81.2</ele>
        <time>2015-11-28T11:10:03Z</time>
      </trkpt>
      <trkpt lat="48.55681" lon="-2.75881">
        <ele>81</ele>
        <time>2015-11-28T11:10:05Z</time>
      </trkpt>
      <trkpt lat="48.55691" lon="-2.75881">
        <ele>80.7</ele>
        <time>2015-11-28T11:10:07Z</time>
      </trkpt>
      <trkpt lat="48.55701" lon="-2.75878">
        <ele>80.5</ele>
        <time>2015-11-28T11:10:09Z</time>
      </trkpt>
      <trkpt lat="48.55711" lon="-2.75875">
        <ele>80.3</ele>
        <time>2015-11-28T11:10:11Z</time>
      </trkpt>
      <trkpt lat="48.5572" lon="-2.75871">
        <ele>80.2</ele>
        <time>2015-11-28T11:10:13Z</time>
      </trkpt>
      <trkpt lat="48.55731" lon="-2.75869">
        <ele>80</ele>
        <time>2015-11-28T11:10:15Z</time>
      </trkpt>
      <trkpt lat="48.5574" lon="-2.75867">
        <ele>79.9</ele>
        <time>2015-11-28T11:10:17Z</time>
      </trkpt>
      <trkpt lat="48.5575" lon="-2.75866">
        <ele>79.8</ele>
        <time>2015-11-28T11:10:19Z</time>
      </trkpt>
      <trkpt lat="48.5576" lon="-2.75864">
        <ele>79.8</ele>
        <time>2015-11-28T11:10:21Z</time>
      </trkpt>
      <trkpt lat="48.5577" lon="-2.7586">
        <ele>79.7</ele>
        <time>2015-11-28T11:10:23Z</time>
      </trkpt>
      <trkpt lat="48.55779" lon="-2.75851">
        <ele>79.6</ele>
        <time>2015-11-28T11:10:25Z</time>
      </trkpt>
      <trkpt lat="48.55786" lon="-2.75839">
        <ele>79.6</ele>
        <time>2015-11-28T11:10:27Z</time>
      </trkpt>
      <trkpt lat="48.55793" lon="-2.75826">
        <ele>79.6</ele>
        <time>2015-11-28T11:10:29Z</time>
      </trkpt>
      <trkpt lat="48.558" lon="-2.75813">
        <ele>79.4</ele>
        <time>2015-11-28T11:10:31Z</time>
      </trkpt>
      <trkpt lat="48.55807" lon="-2.75799">
        <ele>79.3</ele>
        <time>2015-11-28T11:10:33Z</time>
      </trkpt>
      <trkpt lat="48.55815" lon="-2.75786">
        <ele>79.1</ele>
        <time>2015-11-28T11:10:35Z</time>
      </trkpt>
      <trkpt lat="48.55823" lon="-2.75774">
        <ele>79</ele>
        <time>2015-11-28T11:10:37Z</time>
      </trkpt>
      <trkpt lat="48.55831" lon="-2.7576">
        <ele>78.9</ele>
        <time>2015-11-28T11:10:39Z</time>
      </trkpt>
      <trkpt lat="48.55838" lon="-2.75746">
        <ele>78.8</ele>
        <time>2015-11-28T11:10:41Z</time>
      </trkpt>
      <trkpt lat="48.55845" lon="-2.75733">
        <ele>78.6</ele>
        <time>2015-11-28T11:10:43Z</time>
      </trkpt>
      <trkpt lat="48.55853" lon="-2.7572">
        <ele>78.5</ele>
        <time>2015-11-28T11:10:45Z</time>
      </trkpt>
      <trkpt lat="48.55861" lon="-2.75708">
        <ele>78.4</ele>
        <time>2015-11-28T11:10:47Z</time>
      </trkpt>
      <trkpt lat="48.5587" lon="-2.75697">
        <ele>78.3</ele>
        <time>2015-11-28T11:10:49Z</time>
      </trkpt>
      <trkpt lat="48.5588" lon="-2.75687">
        <ele>78.1</ele>
        <time>2015-11-28T11:10:51Z</time>
      </trkpt>
      <trkpt lat="48.55891" lon="-2.75678">
        <ele>77.9</ele>
        <time>2015-11-28T11:10:53Z</time>
      </trkpt>
      <trkpt lat="48.55901" lon="-2.7567">
        <ele>77.7</ele>
        <time>2015-11-28T11:10:55Z</time>
      </trkpt>
      <trkpt lat="48.55911" lon="-2.75663">
        <ele>77.5</ele>
        <time>2015-11-28T11:10:57Z</time>
      </trkpt>
      <trkpt lat="48.55923" lon="-2.7566">
        <ele>77.2</ele>
        <time>2015-11-28T11:11:00Z</time>
      </trkpt>
      <trkpt lat="48.55931" lon="-2.7567">
        <ele>77</ele>
        <time>2015-11-28T11:11:03Z</time>
      </trkpt>
      <trkpt lat="48.5594" lon="-2.75678">
        <ele>76.7</ele>
        <time>2015-11-28T11:11:06Z</time>
      </trkpt>
      <trkpt lat="48.55949" lon="-2.75685">
        <ele>76.5</ele>
        <time>2015-11-28T11:11:09Z</time>
      </trkpt>
      <trkpt lat="48.55957" lon="-2.75692">
        <ele>76</ele>
        <time>2015-11-28T11:11:19Z</time>
      </trkpt>
      <trkpt lat="48.55965" lon="-2.75699">
        <ele>75.6</ele>
        <time>2015-11-28T11:11:22Z</time>
      </trkpt>
      <trkpt lat="48.55965" lon="-2.75713">
        <ele>74.6</ele>
        <time>2015-11-28T11:11:26Z</time>
      </trkpt>
      <trkpt lat="48.55959" lon="-2.75724">
        <ele>73.6</ele>
        <time>2015-11-28T11:11:30Z</time>
      </trkpt>
      <trkpt lat="48.55951" lon="-2.7573">
        <ele>72.6</ele>
        <time>2015-11-28T11:11:35Z</time>
      </trkpt>
      <trkpt lat="48.55944" lon="-2.7574">
        <ele>72.1</ele>
        <time>2015-11-28T11:11:39Z</time>
      </trkpt>
      <trkpt lat="48.55938" lon="-2.75753">
        <ele>71.8</ele>
        <time>2015-11-28T11:11:42Z</time>
      </trkpt>
      <trkpt lat="48.55931" lon="-2.75766">
        <ele>71</ele>
        <time>2015-11-28T11:11:45Z</time>
      </trkpt>
      <trkpt lat="48.55923" lon="-2.75776">
        <ele>70.1</ele>
        <time>2015-11-28T11:11:48Z</time>
      </trkpt>
      <trkpt lat="48.55915" lon="-2.75785">
        <ele>69.2</ele>
        <time>2015-11-28T11:11:51Z</time>
      </trkpt>
      <trkpt lat="48.55908" lon="-2.75798">
        <ele>68.4</ele>
        <time>2015-11-28T11:11:54Z</time>
      </trkpt>
      <trkpt lat="48.55899" lon="-2.75807">
        <ele>67.8</ele>
        <time>2015-11-28T11:11:57Z</time>
      </trkpt>
      <trkpt lat="48.5589" lon="-2.75822">
        <ele>67.2</ele>
        <time>2015-11-28T11:12:00Z</time>
      </trkpt>
      <trkpt lat="48.55883" lon="-2.75836">
        <ele>66.7</ele>
        <time>2015-11-28T11:12:03Z</time>
      </trkpt>
      <trkpt lat="48.55878" lon="-2.7585">
        <ele>66.2</ele>
        <time>2015-11-28T11:12:06Z</time>
      </trkpt>
      <trkpt lat="48.5587" lon="-2.75862">
        <ele>66.1</ele>
        <time>2015-11-28T11:12:10Z</time>
      </trkpt>
      <trkpt lat="48.55864" lon="-2.75873">
        <ele>66.5</ele>
        <time>2015-11-28T11:12:15Z</time>
      </trkpt>
      <trkpt lat="48.55857" lon="-2.75888">
        <ele>66.7</ele>
        <time>2015-11-28T11:12:19Z</time>
      </trkpt>
      <trkpt lat="48.5585" lon="-2.75901">
        <ele>67.2</ele>
        <time>2015-11-28T11:12:23Z</time>
      </trkpt>
      <trkpt lat="48.55845" lon="-2.75913">
        <ele>67.6</ele>
        <time>2015-11-28T11:12:27Z</time>
      </trkpt>
      <trkpt lat="48.55842" lon="-2.75927">
        <ele>68.2</ele>
        <time>2015-11-28T11:12:32Z</time>
      </trkpt>
      <trkpt lat="48.55836" lon="-2.75939">
        <ele>68.7</ele>
        <time>2015-11-28T11:12:36Z</time>
      </trkpt>
      <trkpt lat="48.55832" lon="-2.75952">
        <ele>69.1</ele>
        <time>2015-11-28T11:12:40Z</time>
      </trkpt>
      <trkpt lat="48.55828" lon="-2.75965">
        <ele>69.4</ele>
        <time>2015-11-28T11:12:44Z</time>
      </trkpt>
      <trkpt lat="48.55822" lon="-2.75979">
        <ele>69.6</ele>
        <time>2015-11-28T11:12:48Z</time>
      </trkpt>
      <trkpt lat="48.55816" lon="-2.75994">
        <ele>70</ele>
        <time>2015-11-28T11:12:52Z</time>
      </trkpt>
      <trkpt lat="48.55812" lon="-2.7601">
        <ele>70.3</ele>
        <time>2015-11-28T11:12:56Z</time>
      </trkpt>
      <trkpt lat="48.55808" lon="-2.76026">
        <ele>70.5</ele>
        <time>2015-11-28T11:12:59Z</time>
      </trkpt>
      <trkpt lat="48.55801" lon="-2.76039">
        <ele>70.6</ele>
        <time>2015-11-28T11:13:02Z</time>
      </trkpt>
      <trkpt lat="48.55798" lon="-2.76053">
        <ele>70.8</ele>
        <time>2015-11-28T11:13:05Z</time>
      </trkpt>
      <trkpt lat="48.55792" lon="-2.76064">
        <ele>71.2</ele>
        <time>2015-11-28T11:13:08Z</time>
      </trkpt>
      <trkpt lat="48.55789" lon="-2.76081">
        <ele>71.7</ele>
        <time>2015-11-28T11:13:12Z</time>
      </trkpt>
      <trkpt lat="48.55785" lon="-2.76096">
        <ele>72.1</ele>
        <time>2015-11-28T11:13:15Z</time>
      </trkpt>
      <trkpt lat="48.55783" lon="-2.76112">
        <ele>72.4</ele>
        <time>2015-11-28T11:13:19Z</time>
      </trkpt>
      <trkpt lat="48.55783" lon="-2.76128">
        <ele>72.4</ele>
        <time>2015-11-28T11:13:23Z</time>
      </trkpt>
      <trkpt lat="48.55779" lon="-2.76141">
        <ele>72.3</ele>
        <time>2015-11-28T11:13:29Z</time>
      </trkpt>
      <trkpt lat="48.55774" lon="-2.76155">
        <ele>72.8</ele>
        <time>2015-11-28T11:13:36Z</time>
      </trkpt>
      <trkpt lat="48.55771" lon="-2.76171">
        <ele>73.7</ele>
        <time>2015-11-28T11:13:43Z</time>
      </trkpt>
      <trkpt lat="48.55767" lon="-2.76185">
        <ele>73.8</ele>
        <time>2015-11-28T11:13:47Z</time>
      </trkpt>
      <trkpt lat="48.55757" lon="-2.76185">
        <ele>73.8</ele>
        <time>2015-11-28T11:13:52Z</time>
      </trkpt>
      <trkpt lat="48.55752" lon="-2.76197">
        <ele>74.2</ele>
        <time>2015-11-28T11:13:57Z</time>
      </trkpt>
      <trkpt lat="48.55744" lon="-2.76206">
        <ele>74.6</ele>
        <time>2015-11-28T11:14:01Z</time>
      </trkpt>
      <trkpt lat="48.55736" lon="-2.76213">
        <ele>74.4</ele>
        <time>2015-11-28T11:14:03Z</time>
      </trkpt>
      <trkpt lat="48.55735" lon="-2.76229">
        <ele>73.8</ele>
        <time>2015-11-28T11:14:08Z</time>
      </trkpt>
      <trkpt lat="48.55746" lon="-2.76237">
        <ele>73.2</ele>
        <time>2015-11-28T11:14:11Z</time>
      </trkpt>
      <trkpt lat="48.55757" lon="-2.76244">
        <ele>72.2</ele>
        <time>2015-11-28T11:14:14Z</time>
      </trkpt>
      <trkpt lat="48.55765" lon="-2.76249">
        <ele>71</ele>
        <time>2015-11-28T11:14:18Z</time>
      </trkpt>
      <trkpt lat="48.55776" lon="-2.76249">
        <ele>69.9</ele>
        <time>2015-11-28T11:14:23Z</time>
      </trkpt>
      <trkpt lat="48.55785" lon="-2.76246">
        <ele>69.4</ele>
        <time>2015-11-28T11:14:26Z</time>
      </trkpt>
      <trkpt lat="48.55796" lon="-2.76242">
        <ele>68.6</ele>
        <time>2015-11-28T11:14:30Z</time>
      </trkpt>
      <trkpt lat="48.55804" lon="-2.76252">
        <ele>67.9</ele>
        <time>2015-11-28T11:14:36Z</time>
      </trkpt>
      <trkpt lat="48.55808" lon="-2.76267">
        <ele>67.9</ele>
        <time>2015-11-28T11:14:42Z</time>
      </trkpt>
      <trkpt lat="48.55813" lon="-2.76279">
        <ele>68.1</ele>
        <time>2015-11-28T11:14:48Z</time>
      </trkpt>
      <trkpt lat="48.55819" lon="-2.7629">
        <ele>68.6</ele>
        <time>2015-11-28T11:14:54Z</time>
      </trkpt>
      <trkpt lat="48.55824" lon="-2.76303">
        <ele>69.2</ele>
        <time>2015-11-28T11:15:00Z</time>
      </trkpt>
      <trkpt lat="48.55826" lon="-2.7632">
        <ele>70</ele>
        <time>2015-11-28T11:15:07Z</time>
      </trkpt>
      <trkpt lat="48.55835" lon="-2.76326">
        <ele>70.8</ele>
        <time>2015-11-28T11:15:13Z</time>
      </trkpt>
      <trkpt lat="48.55845" lon="-2.76327">
        <ele>72.1</ele>
        <time>2015-11-28T11:15:20Z</time>
      </trkpt>
      <trkpt lat="48.55854" lon="-2.76322">
        <ele>73.3</ele>
        <time>2015-11-28T11:15:26Z</time>
      </trkpt>
      <trkpt lat="48.55862" lon="-2.76319">
        <ele>74.6</ele>
        <time>2015-11-28T11:15:32Z</time>
      </trkpt>
      <trkpt lat="48.55872" lon="-2.76314">
        <ele>76.2</ele>
        <time>2015-11-28T11:15:38Z</time>
      </trkpt>
      <trkpt lat="48.55881" lon="-2.76305">
        <ele>77.9</ele>
        <time>2015-11-28T11:15:44Z</time>
      </trkpt>
      <trkpt lat="48.55888" lon="-2.76295">
        <ele>79</ele>
        <time>2015-11-28T11:15:49Z</time>
      </trkpt>
      <trkpt lat="48.55895" lon="-2.76284">
        <ele>80</ele>
        <time>2015-11-28T11:15:54Z</time>
      </trkpt>
      <trkpt lat="48.55902" lon="-2.76273">
        <ele>80.7</ele>
        <time>2015-11-28T11:15:59Z</time>
      </trkpt>
      <trkpt lat="48.55909" lon="-2.76262">
        <ele>81.2</ele>
        <time>2015-11-28T11:16:04Z</time>
      </trkpt>
      <trkpt lat="48.55915" lon="-2.76249">
        <ele>82</ele>
        <time>2015-11-28T11:16:09Z</time>
      </trkpt>
      <trkpt lat="48.55921" lon="-2.76237">
        <ele>82.5</ele>
        <time>2015-11-28T11:16:13Z</time>
      </trkpt>
      <trkpt lat="48.55925" lon="-2.76221">
        <ele>82.8</ele>
        <time>2015-11-28T11:16:17Z</time>
      </trkpt>
      <trkpt lat="48.55924" lon="-2.76205">
        <ele>83.1</ele>
        <time>2015-11-28T11:16:20Z</time>
      </trkpt>
      <trkpt lat="48.55919" lon="-2.7619">
        <ele>83.3</ele>
        <time>2015-11-28T11:16:23Z</time>
      </trkpt>
      <trkpt lat="48.55915" lon="-2.76175">
        <ele>83.4</ele>
        <time>2015-11-28T11:16:26Z</time>
      </trkpt>
      <trkpt lat="48.55913" lon="-2.76158">
        <ele>83.4</ele>
        <time>2015-11-28T11:16:29Z</time>
      </trkpt>
      <trkpt lat="48.55914" lon="-2.76141">
        <ele>83.3</ele>
        <time>2015-11-28T11:16:32Z</time>
      </trkpt>
      <trkpt lat="48.55919" lon="-2.76129">
        <ele>83.2</ele>
        <time>2015-11-28T11:16:34Z</time>
      </trkpt>
      <trkpt lat="48.55926" lon="-2.76119">
        <ele>83.1</ele>
        <time>2015-11-28T11:16:36Z</time>
      </trkpt>
      <trkpt lat="48.55933" lon="-2.76108">
        <ele>82.9</ele>
        <time>2015-11-28T11:16:38Z</time>
      </trkpt>
      <trkpt lat="48.55938" lon="-2.76097">
        <ele>82.8</ele>
        <time>2015-11-28T11:16:40Z</time>
      </trkpt>
      <trkpt lat="48.55947" lon="-2.76081">
        <ele>82.6</ele>
        <time>2015-11-28T11:16:43Z</time>
      </trkpt>
      <trkpt lat="48.55952" lon="-2.7607">
        <ele>82.6</ele>
        <time>2015-11-28T11:16:45Z</time>
      </trkpt>
      <trkpt lat="48.55958" lon="-2.76058">
        <ele>82.5</ele>
        <time>2015-11-28T11:16:47Z</time>
      </trkpt>
      <trkpt lat="48.55965" lon="-2.76046">
        <ele>82.4</ele>
        <time>2015-11-28T11:16:49Z</time>
      </trkpt>
      <trkpt lat="48.55971" lon="-2.76034">
        <ele>82.2</ele>
        <time>2015-11-28T11:16:51Z</time>
      </trkpt>
      <trkpt lat="48.55979" lon="-2.76022">
        <ele>82</ele>
        <time>2015-11-28T11:16:53Z</time>
      </trkpt>
      <trkpt lat="48.55987" lon="-2.76007">
        <ele>81.8</ele>
        <time>2015-11-28T11:16:55Z</time>
      </trkpt>
      <trkpt lat="48.55994" lon="-2.75994">
        <ele>81.3</ele>
        <time>2015-11-28T11:16:57Z</time>
      </trkpt>
      <trkpt lat="48.56004" lon="-2.75986">
        <ele>80.6</ele>
        <time>2015-11-28T11:16:59Z</time>
      </trkpt>
      <trkpt lat="48.56015" lon="-2.75978">
        <ele>79.9</ele>
        <time>2015-11-28T11:17:01Z</time>
      </trkpt>
      <trkpt lat="48.56028" lon="-2.75969">
        <ele>79.2</ele>
        <time>2015-11-28T11:17:03Z</time>
      </trkpt>
      <trkpt lat="48.56041" lon="-2.75964">
        <ele>78.5</ele>
        <time>2015-11-28T11:17:05Z</time>
      </trkpt>
      <trkpt lat="48.56055" lon="-2.75961">
        <ele>77.7</ele>
        <time>2015-11-28T11:17:07Z</time>
      </trkpt>
      <trkpt lat="48.56069" lon="-2.75958">
        <ele>76.9</ele>
        <time>2015-11-28T11:17:09Z</time>
      </trkpt>
      <trkpt lat="48.5608" lon="-2.75961">
        <ele>76.2</ele>
        <time>2015-11-28T11:17:11Z</time>
      </trkpt>
      <trkpt lat="48.56085" lon="-2.75972">
        <ele>75.3</ele>
        <time>2015-11-28T11:17:13Z</time>
      </trkpt>
      <trkpt lat="48.5609" lon="-2.75985">
        <ele>74.5</ele>
        <time>2015-11-28T11:17:15Z</time>
      </trkpt>
      <trkpt lat="48.56092" lon="-2.76">
        <ele>73.8</ele>
        <time>2015-11-28T11:17:17Z</time>
      </trkpt>
      <trkpt lat="48.56093" lon="-2.76015">
        <ele>73.2</ele>
        <time>2015-11-28T11:17:19Z</time>
      </trkpt>
      <trkpt lat="48.56095" lon="-2.76031">
        <ele>72.7</ele>
        <time>2015-11-28T11:17:21Z</time>
      </trkpt>
      <trkpt lat="48.56095" lon="-2.76046">
        <ele>72.2</ele>
        <time>2015-11-28T11:17:23Z</time>
      </trkpt>
      <trkpt lat="48.56099" lon="-2.76059">
        <ele>71.9</ele>
        <time>2015-11-28T11:17:25Z</time>
      </trkpt>
      <trkpt lat="48.5611" lon="-2.7607">
        <ele>71.4</ele>
        <time>2015-11-28T11:17:28Z</time>
      </trkpt>
      <trkpt lat="48.5612" lon="-2.76075">
        <ele>71.1</ele>
        <time>2015-11-28T11:17:30Z</time>
      </trkpt>
      <trkpt lat="48.56131" lon="-2.76075">
        <ele>70.8</ele>
        <time>2015-11-28T11:17:32Z</time>
      </trkpt>
      <trkpt lat="48.56143" lon="-2.76075">
        <ele>70.4</ele>
        <time>2015-11-28T11:17:34Z</time>
      </trkpt>
      <trkpt lat="48.56155" lon="-2.76076">
        <ele>70.1</ele>
        <time>2015-11-28T11:17:36Z</time>
      </trkpt>
      <trkpt lat="48.56166" lon="-2.76079">
        <ele>69.7</ele>
        <time>2015-11-28T11:17:38Z</time>
      </trkpt>
      <trkpt lat="48.56176" lon="-2.76086">
        <ele>69.4</ele>
        <time>2015-11-28T11:17:40Z</time>
      </trkpt>
      <trkpt lat="48.56181" lon="-2.76101">
        <ele>69</ele>
        <time>2015-11-28T11:17:43Z</time>
      </trkpt>
      <trkpt lat="48.56187" lon="-2.76114">
        <ele>68.8</ele>
        <time>2015-11-28T11:17:46Z</time>
      </trkpt>
      <trkpt lat="48.56196" lon="-2.76125">
        <ele>68.8</ele>
        <time>2015-11-28T11:17:49Z</time>
      </trkpt>
      <trkpt lat="48.56205" lon="-2.76132">
        <ele>69</ele>
        <time>2015-11-28T11:17:52Z</time>
      </trkpt>
      <trkpt lat="48.56214" lon="-2.76141">
        <ele>69.3</ele>
        <time>2015-11-28T11:17:56Z</time>
      </trkpt>
      <trkpt lat="48.56224" lon="-2.76152">
        <ele>69.4</ele>
        <time>2015-11-28T11:17:59Z</time>
      </trkpt>
      <trkpt lat="48.56231" lon="-2.76166">
        <ele>69.5</ele>
        <time>2015-11-28T11:18:02Z</time>
      </trkpt>
      <trkpt lat="48.56238" lon="-2.76176">
        <ele>69.6</ele>
        <time>2015-11-28T11:18:05Z</time>
      </trkpt>
      <trkpt lat="48.56245" lon="-2.76186">
        <ele>69.6</ele>
        <time>2015-11-28T11:18:08Z</time>
      </trkpt>
      <trkpt lat="48.56249" lon="-2.762">
        <ele>69.7</ele>
        <time>2015-11-28T11:18:11Z</time>
      </trkpt>
      <trkpt lat="48.56255" lon="-2.76213">
        <ele>69.9</ele>
        <time>2015-11-28T11:18:14Z</time>
      </trkpt>
      <trkpt lat="48.56263" lon="-2.76226">
        <ele>70</ele>
        <time>2015-11-28T11:18:17Z</time>
      </trkpt>
      <trkpt lat="48.56269" lon="-2.7624">
        <ele>70.1</ele>
        <time>2015-11-28T11:18:20Z</time>
      </trkpt>
      <trkpt lat="48.56277" lon="-2.76252">
        <ele>70.2</ele>
        <time>2015-11-28T11:18:23Z</time>
      </trkpt>
      <trkpt lat="48.56286" lon="-2.76259">
        <ele>70.3</ele>
        <time>2015-11-28T11:18:26Z</time>
      </trkpt>
      <trkpt lat="48.56295" lon="-2.76266">
        <ele>70.4</ele>
        <time>2015-11-28T11:18:29Z</time>
      </trkpt>
      <trkpt lat="48.56299" lon="-2.76278">
        <ele>70.7</ele>
        <time>2015-11-28T11:18:33Z</time>
      </trkpt>
      <trkpt lat="48.56299" lon="-2.76292">
        <ele>70.9</ele>
        <time>2015-11-28T11:18:36Z</time>
      </trkpt>
      <trkpt lat="48.56305" lon="-2.76304">
        <ele>71</ele>
        <time>2015-11-28T11:18:39Z</time>
      </trkpt>
      <trkpt lat="48.56314" lon="-2.76314">
        <ele>71.2</ele>
        <time>2015-11-28T11:18:42Z</time>
      </trkpt>
      <trkpt lat="48.56324" lon="-2.76326">
        <ele>71.4</ele>
        <time>2015-11-28T11:18:45Z</time>
      </trkpt>
      <trkpt lat="48.56332" lon="-2.7634">
        <ele>71.6</ele>
        <time>2015-11-28T11:18:48Z</time>
      </trkpt>
      <trkpt lat="48.56341" lon="-2.76356">
        <ele>71.7</ele>
        <time>2015-11-28T11:18:51Z</time>
      </trkpt>
      <trkpt lat="48.56347" lon="-2.76368">
        <ele>71.6</ele>
        <time>2015-11-28T11:18:53Z</time>
      </trkpt>
      <trkpt lat="48.56358" lon="-2.76377">
        <ele>71.1</ele>
        <time>2015-11-28T11:18:56Z</time>
      </trkpt>
      <trkpt lat="48.56369" lon="-2.7638">
        <ele>70.8</ele>
        <time>2015-11-28T11:18:58Z</time>
      </trkpt>
      <trkpt lat="48.56378" lon="-2.76378">
        <ele>70.4</ele>
        <time>2015-11-28T11:19:00Z</time>
      </trkpt>
      <trkpt lat="48.56385" lon="-2.76363">
        <ele>69.7</ele>
        <time>2015-11-28T11:19:03Z</time>
      </trkpt>
      <trkpt lat="48.56393" lon="-2.76354">
        <ele>68.8</ele>
        <time>2015-11-28T11:19:06Z</time>
      </trkpt>
      <trkpt lat="48.564" lon="-2.76364">
        <ele>67.4</ele>
        <time>2015-11-28T11:19:10Z</time>
      </trkpt>
      <trkpt lat="48.56402" lon="-2.76379">
        <ele>65.7</ele>
        <time>2015-11-28T11:19:16Z</time>
      </trkpt>
      <trkpt lat="48.56409" lon="-2.76394">
        <ele>64.8</ele>
        <time>2015-11-28T11:19:19Z</time>
      </trkpt>
      <trkpt lat="48.56407" lon="-2.7641">
        <ele>63.7</ele>
        <time>2015-11-28T11:19:23Z</time>
      </trkpt>
      <trkpt lat="48.56404" lon="-2.76423">
        <ele>62.3</ele>
        <time>2015-11-28T11:19:30Z</time>
      </trkpt>
      <trkpt lat="48.56404" lon="-2.76439">
        <ele>61.6</ele>
        <time>2015-11-28T11:19:35Z</time>
      </trkpt>
      <trkpt lat="48.56404" lon="-2.76455">
        <ele>61.2</ele>
        <time>2015-11-28T11:19:39Z</time>
      </trkpt>
      <trkpt lat="48.56407" lon="-2.76468">
        <ele>61</ele>
        <time>2015-11-28T11:19:42Z</time>
      </trkpt>
      <trkpt lat="48.56412" lon="-2.76483">
        <ele>60.7</ele>
        <time>2015-11-28T11:19:46Z</time>
      </trkpt>
      <trkpt lat="48.5642" lon="-2.76493">
        <ele>60.5</ele>
        <time>2015-11-28T11:19:50Z</time>
      </trkpt>
      <trkpt lat="48.5641" lon="-2.76498">
        <ele>60.2</ele>
        <time>2015-11-28T11:20:00Z</time>
      </trkpt>
      <trkpt lat="48.56403" lon="-2.76506">
        <ele>60.2</ele>
        <time>2015-11-28T11:20:04Z</time>
      </trkpt>
      <trkpt lat="48.56395" lon="-2.76514">
        <ele>60.5</ele>
        <time>2015-11-28T11:20:08Z</time>
      </trkpt>
      <trkpt lat="48.56384" lon="-2.76524">
        <ele>61.2</ele>
        <time>2015-11-28T11:20:13Z</time>
      </trkpt>
      <trkpt lat="48.56377" lon="-2.76532">
        <ele>61.9</ele>
        <time>2015-11-28T11:20:17Z</time>
      </trkpt>
      <trkpt lat="48.56369" lon="-2.76541">
        <ele>63</ele>
        <time>2015-11-28T11:20:22Z</time>
      </trkpt>
      <trkpt lat="48.5636" lon="-2.76549">
        <ele>64.5</ele>
        <time>2015-11-28T11:20:29Z</time>
      </trkpt>
      <trkpt lat="48.56351" lon="-2.76548">
        <ele>65.4</ele>
        <time>2015-11-28T11:20:34Z</time>
      </trkpt>
      <trkpt lat="48.56341" lon="-2.76544">
        <ele>66</ele>
        <time>2015-11-28T11:20:38Z</time>
      </trkpt>
      <trkpt lat="48.5633" lon="-2.76538">
        <ele>66.5</ele>
        <time>2015-11-28T11:20:42Z</time>
      </trkpt>
      <trkpt lat="48.5632" lon="-2.76531">
        <ele>67.2</ele>
        <time>2015-11-28T11:20:46Z</time>
      </trkpt>
      <trkpt lat="48.56309" lon="-2.76525">
        <ele>68</ele>
        <time>2015-11-28T11:20:50Z</time>
      </trkpt>
      <trkpt lat="48.56299" lon="-2.76518">
        <ele>68.7</ele>
        <time>2015-11-28T11:20:54Z</time>
      </trkpt>
      <trkpt lat="48.56288" lon="-2.7651">
        <ele>69.4</ele>
        <time>2015-11-28T11:20:58Z</time>
      </trkpt>
      <trkpt lat="48.56278" lon="-2.76503">
        <ele>70.1</ele>
        <time>2015-11-28T11:21:02Z</time>
      </trkpt>
      <trkpt lat="48.56267" lon="-2.76497">
        <ele>70.8</ele>
        <time>2015-11-28T11:21:06Z</time>
      </trkpt>
      <trkpt lat="48.56256" lon="-2.76493">
        <ele>71.4</ele>
        <time>2015-11-28T11:21:10Z</time>
      </trkpt>
      <trkpt lat="48.56244" lon="-2.7649">
        <ele>71.9</ele>
        <time>2015-11-28T11:21:14Z</time>
      </trkpt>
      <trkpt lat="48.56233" lon="-2.76487">
        <ele>72.4</ele>
        <time>2015-11-28T11:21:18Z</time>
      </trkpt>
      <trkpt lat="48.56221" lon="-2.76483">
        <ele>72.9</ele>
        <time>2015-11-28T11:21:22Z</time>
      </trkpt>
      <trkpt lat="48.5621" lon="-2.76479">
        <ele>73.5</ele>
        <time>2015-11-28T11:21:26Z</time>
      </trkpt>
      <trkpt lat="48.56199" lon="-2.76475">
        <ele>74.1</ele>
        <time>2015-11-28T11:21:30Z</time>
      </trkpt>
      <trkpt lat="48.5619" lon="-2.76471">
        <ele>74.6</ele>
        <time>2015-11-28T11:21:33Z</time>
      </trkpt>
      <trkpt lat="48.56181" lon="-2.76466">
        <ele>75</ele>
        <time>2015-11-28T11:21:36Z</time>
      </trkpt>
      <trkpt lat="48.56172" lon="-2.76462">
        <ele>75.5</ele>
        <time>2015-11-28T11:21:39Z</time>
      </trkpt>
      <trkpt lat="48.56161" lon="-2.76459">
        <ele>76</ele>
        <time>2015-11-28T11:21:43Z</time>
      </trkpt>
      <trkpt lat="48.5615" lon="-2.76459">
        <ele>76.6</ele>
        <time>2015-11-28T11:21:47Z</time>
      </trkpt>
      <trkpt lat="48.5614" lon="-2.76466">
        <ele>77.3</ele>
        <time>2015-11-28T11:21:51Z</time>
      </trkpt>
      <trkpt lat="48.56133" lon="-2.7648">
        <ele>78.2</ele>
        <time>2015-11-28T11:21:55Z</time>
      </trkpt>
      <trkpt lat="48.56128" lon="-2.76494">
        <ele>78.9</ele>
        <time>2015-11-28T11:21:59Z</time>
      </trkpt>
      <trkpt lat="48.56122" lon="-2.7651">
        <ele>79.6</ele>
        <time>2015-11-28T11:22:03Z</time>
      </trkpt>
      <trkpt lat="48.56117" lon="-2.76525">
        <ele>80.1</ele>
        <time>2015-11-28T11:22:07Z</time>
      </trkpt>
      <trkpt lat="48.56112" lon="-2.76539">
        <ele>80.6</ele>
        <time>2015-11-28T11:22:11Z</time>
      </trkpt>
      <trkpt lat="48.56107" lon="-2.76551">
        <ele>81</ele>
        <time>2015-11-28T11:22:14Z</time>
      </trkpt>
      <trkpt lat="48.56103" lon="-2.76565">
        <ele>81.4</ele>
        <time>2015-11-28T11:22:17Z</time>
      </trkpt>
      <trkpt lat="48.56098" lon="-2.7658">
        <ele>81.7</ele>
        <time>2015-11-28T11:22:20Z</time>
      </trkpt>
      <trkpt lat="48.56094" lon="-2.76598">
        <ele>82</ele>
        <time>2015-11-28T11:22:23Z</time>
      </trkpt>
      <trkpt lat="48.5609" lon="-2.76615">
        <ele>82.2</ele>
        <time>2015-11-28T11:22:26Z</time>
      </trkpt>
      <trkpt lat="48.56085" lon="-2.76632">
        <ele>82.4</ele>
        <time>2015-11-28T11:22:29Z</time>
      </trkpt>
      <trkpt lat="48.56081" lon="-2.7665">
        <ele>82.6</ele>
        <time>2015-11-28T11:22:32Z</time>
      </trkpt>
      <trkpt lat="48.56077" lon="-2.76667">
        <ele>82.7</ele>
        <time>2015-11-28T11:22:35Z</time>
      </trkpt>
      <trkpt lat="48.56073" lon="-2.76684">
        <ele>82.8</ele>
        <time>2015-11-28T11:22:38Z</time>
      </trkpt>
      <trkpt lat="48.56069" lon="-2.76702">
        <ele>82.9</ele>
        <time>2015-11-28T11:22:41Z</time>
      </trkpt>
      <trkpt lat="48.56065" lon="-2.7672">
        <ele>82.9</ele>
        <time>2015-11-28T11:22:44Z</time>
      </trkpt>
      <trkpt lat="48.5606" lon="-2.76738">
        <ele>83</ele>
        <time>2015-11-28T11:22:47Z</time>
      </trkpt>
      <trkpt lat="48.56055" lon="-2.76757">
        <ele>82.8</ele>
        <time>2015-11-28T11:22:50Z</time>
      </trkpt>
      <trkpt lat="48.56052" lon="-2.7677">
        <ele>82.6</ele>
        <time>2015-11-28T11:22:52Z</time>
      </trkpt>
      <trkpt lat="48.56049" lon="-2.76783">
        <ele>82.5</ele>
        <time>2015-11-28T11:22:54Z</time>
      </trkpt>
      <trkpt lat="48.56045" lon="-2.76802">
        <ele>82.3</ele>
        <time>2015-11-28T11:22:57Z</time>
      </trkpt>
      <trkpt lat="48.56042" lon="-2.7682">
        <ele>82.2</ele>
        <time>2015-11-28T11:23:00Z</time>
      </trkpt>
      <trkpt lat="48.56039" lon="-2.76839">
        <ele>82.1</ele>
        <time>2015-11-28T11:23:03Z</time>
      </trkpt>
      <trkpt lat="48.56037" lon="-2.76858">
        <ele>81.9</ele>
        <time>2015-11-28T11:23:06Z</time>
      </trkpt>
      <trkpt lat="48.56035" lon="-2.76874">
        <ele>81.3</ele>
        <time>2015-11-28T11:23:10Z</time>
      </trkpt>
      <trkpt lat="48.56033" lon="-2.76887">
        <ele>80.9</ele>
        <time>2015-11-28T11:23:13Z</time>
      </trkpt>
      <trkpt lat="48.5603" lon="-2.76903">
        <ele>80.6</ele>
        <time>2015-11-28T11:23:16Z</time>
      </trkpt>
      <trkpt lat="48.56027" lon="-2.76921">
        <ele>80.3</ele>
        <time>2015-11-28T11:23:19Z</time>
      </trkpt>
      <trkpt lat="48.56025" lon="-2.76939">
        <ele>80.1</ele>
        <time>2015-11-28T11:23:22Z</time>
      </trkpt>
      <trkpt lat="48.56023" lon="-2.76957">
        <ele>79.9</ele>
        <time>2015-11-28T11:23:25Z</time>
      </trkpt>
      <trkpt lat="48.56021" lon="-2.76973">
        <ele>79.8</ele>
        <time>2015-11-28T11:23:28Z</time>
      </trkpt>
      <trkpt lat="48.56018" lon="-2.76989">
        <ele>79.8</ele>
        <time>2015-11-28T11:23:31Z</time>
      </trkpt>
      <trkpt lat="48.56015" lon="-2.77004">
        <ele>79.9</ele>
        <time>2015-11-28T11:23:34Z</time>
      </trkpt>
      <trkpt lat="48.56011" lon="-2.77018">
        <ele>80.1</ele>
        <time>2015-11-28T11:23:37Z</time>
      </trkpt>
      <trkpt lat="48.56007" lon="-2.77031">
        <ele>80.3</ele>
        <time>2015-11-28T11:23:40Z</time>
      </trkpt>
      <trkpt lat="48.56002" lon="-2.77047">
        <ele>80.6</ele>
        <time>2015-11-28T11:23:44Z</time>
      </trkpt>
      <trkpt lat="48.55997" lon="-2.7706">
        <ele>80.9</ele>
        <time>2015-11-28T11:23:47Z</time>
      </trkpt>
      <trkpt lat="48.55993" lon="-2.77072">
        <ele>81.2</ele>
        <time>2015-11-28T11:23:50Z</time>
      </trkpt>
      <trkpt lat="48.55989" lon="-2.77089">
        <ele>81.7</ele>
        <time>2015-11-28T11:23:54Z</time>
      </trkpt>
      <trkpt lat="48.55986" lon="-2.77102">
        <ele>82.1</ele>
        <time>2015-11-28T11:23:57Z</time>
      </trkpt>
      <trkpt lat="48.55984" lon="-2.77117">
        <ele>82.5</ele>
        <time>2015-11-28T11:24:00Z</time>
      </trkpt>
      <trkpt lat="48.55983" lon="-2.77131">
        <ele>82.8</ele>
        <time>2015-11-28T11:24:03Z</time>
      </trkpt>
      <trkpt lat="48.55983" lon="-2.77146">
        <ele>83.1</ele>
        <time>2015-11-28T11:24:06Z</time>
      </trkpt>
      <trkpt lat="48.55984" lon="-2.77162">
        <ele>83.3</ele>
        <time>2015-11-28T11:24:09Z</time>
      </trkpt>
      <trkpt lat="48.55985" lon="-2.77179">
        <ele>83.5</ele>
        <time>2015-11-28T11:24:12Z</time>
      </trkpt>
      <trkpt lat="48.55987" lon="-2.77197">
        <ele>83.7</ele>
        <time>2015-11-28T11:24:15Z</time>
      </trkpt>
      <trkpt lat="48.55989" lon="-2.77215">
        <ele>83.9</ele>
        <time>2015-11-28T11:24:18Z</time>
      </trkpt>
      <trkpt lat="48.55991" lon="-2.77232">
        <ele>84</ele>
        <time>2015-11-28T11:24:21Z</time>
      </trkpt>
      <trkpt lat="48.55992" lon="-2.7725">
        <ele>84.2</ele>
        <time>2015-11-28T11:24:24Z</time>
      </trkpt>
      <trkpt lat="48.55995" lon="-2.77268">
        <ele>84.4</ele>
        <time>2015-11-28T11:24:27Z</time>
      </trkpt>
      <trkpt lat="48.55997" lon="-2.77285">
        <ele>84.6</ele>
        <time>2015-11-28T11:24:30Z</time>
      </trkpt>
      <trkpt lat="48.55997" lon="-2.77304">
        <ele>84.8</ele>
        <time>2015-11-28T11:24:33Z</time>
      </trkpt>
      <trkpt lat="48.55995" lon="-2.77321">
        <ele>85</ele>
        <time>2015-11-28T11:24:36Z</time>
      </trkpt>
      <trkpt lat="48.55993" lon="-2.77338">
        <ele>85.1</ele>
        <time>2015-11-28T11:24:39Z</time>
      </trkpt>
      <trkpt lat="48.55991" lon="-2.77356">
        <ele>85.2</ele>
        <time>2015-11-28T11:24:42Z</time>
      </trkpt>
      <trkpt lat="48.55988" lon="-2.77373">
        <ele>85.4</ele>
        <time>2015-11-28T11:24:45Z</time>
      </trkpt>
      <trkpt lat="48.55986" lon="-2.7739">
        <ele>85.5</ele>
        <time>2015-11-28T11:24:48Z</time>
      </trkpt>
      <trkpt lat="48.55983" lon="-2.77407">
        <ele>85.6</ele>
        <time>2015-11-28T11:24:51Z</time>
      </trkpt>
      <trkpt lat="48.55979" lon="-2.77423">
        <ele>85.8</ele>
        <time>2015-11-28T11:24:54Z</time>
      </trkpt>
      <trkpt lat="48.55975" lon="-2.77438">
        <ele>85.9</ele>
        <time>2015-11-28T11:24:57Z</time>
      </trkpt>
      <trkpt lat="48.55967" lon="-2.77449">
        <ele>86.1</ele>
        <time>2015-11-28T11:25:00Z</time>
      </trkpt>
      <trkpt lat="48.55957" lon="-2.77455">
        <ele>86.3</ele>
        <time>2015-11-28T11:25:03Z</time>
      </trkpt>
      <trkpt lat="48.55947" lon="-2.77456">
        <ele>86.6</ele>
        <time>2015-11-28T11:25:06Z</time>
      </trkpt>
      <trkpt lat="48.55936" lon="-2.77455">
        <ele>86.9</ele>
        <time>2015-11-28T11:25:09Z</time>
      </trkpt>
      <trkpt lat="48.55919" lon="-2.77457">
        <ele>87.7</ele>
        <time>2015-11-28T11:25:14Z</time>
      </trkpt>
      <trkpt lat="48.55909" lon="-2.77458">
        <ele>88.2</ele>
        <time>2015-11-28T11:25:17Z</time>
      </trkpt>
      <trkpt lat="48.55898" lon="-2.7746">
        <ele>88.8</ele>
        <time>2015-11-28T11:25:21Z</time>
      </trkpt>
      <trkpt lat="48.55888" lon="-2.77463">
        <ele>89.3</ele>
        <time>2015-11-28T11:25:24Z</time>
      </trkpt>
      <trkpt lat="48.55879" lon="-2.77466">
        <ele>89.8</ele>
        <time>2015-11-28T11:25:27Z</time>
      </trkpt>
      <trkpt lat="48.55868" lon="-2.77472">
        <ele>90.5</ele>
        <time>2015-11-28T11:25:31Z</time>
      </trkpt>
      <trkpt lat="48.5586" lon="-2.77476">
        <ele>91</ele>
        <time>2015-11-28T11:25:34Z</time>
      </trkpt>
      <trkpt lat="48.55852" lon="-2.77482">
        <ele>91.6</ele>
        <time>2015-11-28T11:25:37Z</time>
      </trkpt>
      <trkpt lat="48.55843" lon="-2.77494">
        <ele>92.6</ele>
        <time>2015-11-28T11:25:41Z</time>
      </trkpt>
      <trkpt lat="48.55833" lon="-2.77499">
        <ele>93.6</ele>
        <time>2015-11-28T11:25:45Z</time>
      </trkpt>
      <trkpt lat="48.55822" lon="-2.77502">
        <ele>94.4</ele>
        <time>2015-11-28T11:25:49Z</time>
      </trkpt>
      <trkpt lat="48.55811" lon="-2.77505">
        <ele>95.2</ele>
        <time>2015-11-28T11:25:53Z</time>
      </trkpt>
      <trkpt lat="48.55802" lon="-2.77506">
        <ele>95.7</ele>
        <time>2015-11-28T11:25:56Z</time>
      </trkpt>
      <trkpt lat="48.55793" lon="-2.77509">
        <ele>96.3</ele>
        <time>2015-11-28T11:25:59Z</time>
      </trkpt>
      <trkpt lat="48.55784" lon="-2.77512">
        <ele>96.7</ele>
        <time>2015-11-28T11:26:02Z</time>
      </trkpt>
      <trkpt lat="48.55774" lon="-2.77514">
        <ele>97.1</ele>
        <time>2015-11-28T11:26:05Z</time>
      </trkpt>
      <trkpt lat="48.55764" lon="-2.77516">
        <ele>97.5</ele>
        <time>2015-11-28T11:26:08Z</time>
      </trkpt>
      <trkpt lat="48.55755" lon="-2.77525">
        <ele>97.8</ele>
        <time>2015-11-28T11:26:11Z</time>
      </trkpt>
      <trkpt lat="48.5575" lon="-2.77538">
        <ele>98.1</ele>
        <time>2015-11-28T11:26:14Z</time>
      </trkpt>
      <trkpt lat="48.55745" lon="-2.7755">
        <ele>98.3</ele>
        <time>2015-11-28T11:26:17Z</time>
      </trkpt>
      <trkpt lat="48.5574" lon="-2.77563">
        <ele>98.7</ele>
        <time>2015-11-28T11:26:20Z</time>
      </trkpt>
      <trkpt lat="48.55735" lon="-2.77574">
        <ele>99.1</ele>
        <time>2015-11-28T11:26:23Z</time>
      </trkpt>
      <trkpt lat="48.5573" lon="-2.77586">
        <ele>99.5</ele>
        <time>2015-11-28T11:26:26Z</time>
      </trkpt>
      <trkpt lat="48.55725" lon="-2.77598">
        <ele>99.9</ele>
        <time>2015-11-28T11:26:29Z</time>
      </trkpt>
      <trkpt lat="48.55718" lon="-2.77613">
        <ele>100.5</ele>
        <time>2015-11-28T11:26:33Z</time>
      </trkpt>
      <trkpt lat="48.55713" lon="-2.77624">
        <ele>100.9</ele>
        <time>2015-11-28T11:26:36Z</time>
      </trkpt>
      <trkpt lat="48.55707" lon="-2.77636">
        <ele>101.4</ele>
        <time>2015-11-28T11:26:39Z</time>
      </trkpt>
      <trkpt lat="48.557" lon="-2.77648">
        <ele>101.8</ele>
        <time>2015-11-28T11:26:42Z</time>
      </trkpt>
      <trkpt lat="48.55694" lon="-2.7766">
        <ele>102.2</ele>
        <time>2015-11-28T11:26:45Z</time>
      </trkpt>
      <trkpt lat="48.55688" lon="-2.77672">
        <ele>102.5</ele>
        <time>2015-11-28T11:26:48Z</time>
      </trkpt>
      <trkpt lat="48.55682" lon="-2.77684">
        <ele>102.9</ele>
        <time>2015-11-28T11:26:51Z</time>
      </trkpt>
      <trkpt lat="48.55676" lon="-2.77697">
        <ele>103.3</ele>
        <time>2015-11-28T11:26:54Z</time>
      </trkpt>
      <trkpt lat="48.55671" lon="-2.77711">
        <ele>103.7</ele>
        <time>2015-11-28T11:26:57Z</time>
      </trkpt>
      <trkpt lat="48.55667" lon="-2.77724">
        <ele>104</ele>
        <time>2015-11-28T11:27:00Z</time>
      </trkpt>
      <trkpt lat="48.55663" lon="-2.77737">
        <ele>104.4</ele>
        <time>2015-11-28T11:27:03Z</time>
      </trkpt>
      <trkpt lat="48.55659" lon="-2.7775">
        <ele>104.7</ele>
        <time>2015-11-28T11:27:06Z</time>
      </trkpt>
      <trkpt lat="48.55655" lon="-2.77763">
        <ele>105.1</ele>
        <time>2015-11-28T11:27:09Z</time>
      </trkpt>
      <trkpt lat="48.55649" lon="-2.77775">
        <ele>105.5</ele>
        <time>2015-11-28T11:27:12Z</time>
      </trkpt>
      <trkpt lat="48.55643" lon="-2.77787">
        <ele>105.9</ele>
        <time>2015-11-28T11:27:15Z</time>
      </trkpt>
      <trkpt lat="48.55636" lon="-2.77799">
        <ele>106.4</ele>
        <time>2015-11-28T11:27:18Z</time>
      </trkpt>
      <trkpt lat="48.55631" lon="-2.7781">
        <ele>106.9</ele>
        <time>2015-11-28T11:27:21Z</time>
      </trkpt>
      <trkpt lat="48.55624" lon="-2.77822">
        <ele>107.4</ele>
        <time>2015-11-28T11:27:24Z</time>
      </trkpt>
      <trkpt lat="48.55619" lon="-2.77835">
        <ele>107.8</ele>
        <time>2015-11-28T11:27:27Z</time>
      </trkpt>
      <trkpt lat="48.55616" lon="-2.77847">
        <ele>108.2</ele>
        <time>2015-11-28T11:27:30Z</time>
      </trkpt>
      <trkpt lat="48.55612" lon="-2.7786">
        <ele>108.7</ele>
        <time>2015-11-28T11:27:33Z</time>
      </trkpt>
      <trkpt lat="48.55608" lon="-2.77872">
        <ele>109.2</ele>
        <time>2015-11-28T11:27:36Z</time>
      </trkpt>
      <trkpt lat="48.55603" lon="-2.77885">
        <ele>109.7</ele>
        <time>2015-11-28T11:27:39Z</time>
      </trkpt>
      <trkpt lat="48.55599" lon="-2.77897">
        <ele>110.2</ele>
        <time>2015-11-28T11:27:42Z</time>
      </trkpt>
      <trkpt lat="48.55594" lon="-2.7791">
        <ele>110.6</ele>
        <time>2015-11-28T11:27:45Z</time>
      </trkpt>
      <trkpt lat="48.55589" lon="-2.77923">
        <ele>111.1</ele>
        <time>2015-11-28T11:27:48Z</time>
      </trkpt>
      <trkpt lat="48.55583" lon="-2.77935">
        <ele>111.6</ele>
        <time>2015-11-28T11:27:51Z</time>
      </trkpt>
      <trkpt lat="48.55578" lon="-2.77946">
        <ele>112.1</ele>
        <time>2015-11-28T11:27:54Z</time>
      </trkpt>
      <trkpt lat="48.55572" lon="-2.77961">
        <ele>112.5</ele>
        <time>2015-11-28T11:27:57Z</time>
      </trkpt>
      <trkpt lat="48.55567" lon="-2.77976">
        <ele>112.8</ele>
        <time>2015-11-28T11:28:00Z</time>
      </trkpt>
      <trkpt lat="48.55561" lon="-2.7799">
        <ele>113.1</ele>
        <time>2015-11-28T11:28:03Z</time>
      </trkpt>
      <trkpt lat="48.55556" lon="-2.78002">
        <ele>113.5</ele>
        <time>2015-11-28T11:28:06Z</time>
      </trkpt>
      <trkpt lat="48.55551" lon="-2.78014">
        <ele>113.9</ele>
        <time>2015-11-28T11:28:09Z</time>
      </trkpt>
      <trkpt lat="48.55547" lon="-2.78027">
        <ele>114.2</ele>
        <time>2015-11-28T11:28:12Z</time>
      </trkpt>
      <trkpt lat="48.55544" lon="-2.7804">
        <ele>114.6</ele>
        <time>2015-11-28T11:28:15Z</time>
      </trkpt>
      <trkpt lat="48.55539" lon="-2.78057">
        <ele>115</ele>
        <time>2015-11-28T11:28:19Z</time>
      </trkpt>
      <trkpt lat="48.55535" lon="-2.78073">
        <ele>115.5</ele>
        <time>2015-11-28T11:28:23Z</time>
      </trkpt>
      <trkpt lat="48.55531" lon="-2.78087">
        <ele>115.9</ele>
        <time>2015-11-28T11:28:26Z</time>
      </trkpt>
      <trkpt lat="48.55527" lon="-2.78101">
        <ele>116.3</ele>
        <time>2015-11-28T11:28:29Z</time>
      </trkpt>
      <trkpt lat="48.55524" lon="-2.78115">
        <ele>116.6</ele>
        <time>2015-11-28T11:28:32Z</time>
      </trkpt>
      <trkpt lat="48.5552" lon="-2.7813">
        <ele>116.9</ele>
        <time>2015-11-28T11:28:35Z</time>
      </trkpt>
      <trkpt lat="48.55516" lon="-2.78145">
        <ele>117.2</ele>
        <time>2015-11-28T11:28:38Z</time>
      </trkpt>
      <trkpt lat="48.55512" lon="-2.78159">
        <ele>117.6</ele>
        <time>2015-11-28T11:28:41Z</time>
      </trkpt>
      <trkpt lat="48.55508" lon="-2.78173">
        <ele>118</ele>
        <time>2015-11-28T11:28:44Z</time>
      </trkpt>
      <trkpt lat="48.55504" lon="-2.78186">
        <ele>118.4</ele>
        <time>2015-11-28T11:28:47Z</time>
      </trkpt>
      <trkpt lat="48.555" lon="-2.782">
        <ele>118.8</ele>
        <time>2015-11-28T11:28:50Z</time>
      </trkpt>
      <trkpt lat="48.55496" lon="-2.78213">
        <ele>119.2</ele>
        <time>2015-11-28T11:28:53Z</time>
      </trkpt>
      <trkpt lat="48.55491" lon="-2.78227">
        <ele>119.5</ele>
        <time>2015-11-28T11:28:56Z</time>
      </trkpt>
      <trkpt lat="48.55487" lon="-2.78241">
        <ele>119.9</ele>
        <time>2015-11-28T11:28:59Z</time>
      </trkpt>
      <trkpt lat="48.55483" lon="-2.78254">
        <ele>120.2</ele>
        <time>2015-11-28T11:29:02Z</time>
      </trkpt>
      <trkpt lat="48.55478" lon="-2.78266">
        <ele>120.6</ele>
        <time>2015-11-28T11:29:05Z</time>
      </trkpt>
      <trkpt lat="48.55472" lon="-2.78279">
        <ele>120.8</ele>
        <time>2015-11-28T11:29:08Z</time>
      </trkpt>
      <trkpt lat="48.55466" lon="-2.7829">
        <ele>121.1</ele>
        <time>2015-11-28T11:29:11Z</time>
      </trkpt>
      <trkpt lat="48.55459" lon="-2.78301">
        <ele>121.3</ele>
        <time>2015-11-28T11:29:14Z</time>
      </trkpt>
      <trkpt lat="48.55453" lon="-2.78312">
        <ele>121.6</ele>
        <time>2015-11-28T11:29:17Z</time>
      </trkpt>
      <trkpt lat="48.55446" lon="-2.78323">
        <ele>121.9</ele>
        <time>2015-11-28T11:29:20Z</time>
      </trkpt>
      <trkpt lat="48.55438" lon="-2.78334">
        <ele>122.1</ele>
        <time>2015-11-28T11:29:23Z</time>
      </trkpt>
      <trkpt lat="48.55431" lon="-2.78345">
        <ele>122.3</ele>
        <time>2015-11-28T11:29:26Z</time>
      </trkpt>
      <trkpt lat="48.55424" lon="-2.78356">
        <ele>122.6</ele>
        <time>2015-11-28T11:29:29Z</time>
      </trkpt>
      <trkpt lat="48.55417" lon="-2.78367">
        <ele>123</ele>
        <time>2015-11-28T11:29:32Z</time>
      </trkpt>
      <trkpt lat="48.55411" lon="-2.78378">
        <ele>123.3</ele>
        <time>2015-11-28T11:29:35Z</time>
      </trkpt>
      <trkpt lat="48.55404" lon="-2.78389">
        <ele>123.7</ele>
        <time>2015-11-28T11:29:38Z</time>
      </trkpt>
      <trkpt lat="48.55398" lon="-2.784">
        <ele>124.1</ele>
        <time>2015-11-28T11:29:41Z</time>
      </trkpt>
      <trkpt lat="48.55391" lon="-2.78411">
        <ele>124.5</ele>
        <time>2015-11-28T11:29:44Z</time>
      </trkpt>
      <trkpt lat="48.55384" lon="-2.78422">
        <ele>124.8</ele>
        <time>2015-11-28T11:29:47Z</time>
      </trkpt>
      <trkpt lat="48.55376" lon="-2.78433">
        <ele>125.3</ele>
        <time>2015-11-28T11:29:50Z</time>
      </trkpt>
      <trkpt lat="48.55369" lon="-2.78444">
        <ele>125.6</ele>
        <time>2015-11-28T11:29:53Z</time>
      </trkpt>
      <trkpt lat="48.55361" lon="-2.78454">
        <ele>125.9</ele>
        <time>2015-11-28T11:29:56Z</time>
      </trkpt>
      <trkpt lat="48.55353" lon="-2.78463">
        <ele>126.1</ele>
        <time>2015-11-28T11:29:59Z</time>
      </trkpt>
      <trkpt lat="48.55346" lon="-2.78473">
        <ele>126.5</ele>
        <time>2015-11-28T11:30:02Z</time>
      </trkpt>
      <trkpt lat="48.55339" lon="-2.78484">
        <ele>126.9</ele>
        <time>2015-11-28T11:30:05Z</time>
      </trkpt>
      <trkpt lat="48.55331" lon="-2.78495">
        <ele>127.2</ele>
        <time>2015-11-28T11:30:08Z</time>
      </trkpt>
      <trkpt lat="48.55324" lon="-2.78507">
        <ele>127.6</ele>
        <time>2015-11-28T11:30:11Z</time>
      </trkpt>
      <trkpt lat="48.55319" lon="-2.7852">
        <ele>128</ele>
        <time>2015-11-28T11:30:14Z</time>
      </trkpt>
      <trkpt lat="48.55313" lon="-2.78533">
        <ele>128.3</ele>
        <time>2015-11-28T11:30:17Z</time>
      </trkpt>
      <trkpt lat="48.55307" lon="-2.78547">
        <ele>128.5</ele>
        <time>2015-11-28T11:30:20Z</time>
      </trkpt>
      <trkpt lat="48.553" lon="-2.7856">
        <ele>128.7</ele>
        <time>2015-11-28T11:30:23Z</time>
      </trkpt>
      <trkpt lat="48.55294" lon="-2.78574">
        <ele>128.9</ele>
        <time>2015-11-28T11:30:26Z</time>
      </trkpt>
      <trkpt lat="48.55286" lon="-2.78586">
        <ele>129</ele>
        <time>2015-11-28T11:30:29Z</time>
      </trkpt>
      <trkpt lat="48.55278" lon="-2.78596">
        <ele>129.2</ele>
        <time>2015-11-28T11:30:32Z</time>
      </trkpt>
      <trkpt lat="48.55268" lon="-2.78607">
        <ele>129.4</ele>
        <time>2015-11-28T11:30:35Z</time>
      </trkpt>
      <trkpt lat="48.55258" lon="-2.78617">
        <ele>129.6</ele>
        <time>2015-11-28T11:30:38Z</time>
      </trkpt>
      <trkpt lat="48.55249" lon="-2.78627">
        <ele>129.7</ele>
        <time>2015-11-28T11:30:41Z</time>
      </trkpt>
      <trkpt lat="48.55239" lon="-2.78638">
        <ele>129.8</ele>
        <time>2015-11-28T11:30:44Z</time>
      </trkpt>
      <trkpt lat="48.55229" lon="-2.78649">
        <ele>129.9</ele>
        <time>2015-11-28T11:30:47Z</time>
      </trkpt>
      <trkpt lat="48.55219" lon="-2.78661">
        <ele>129.9</ele>
        <time>2015-11-28T11:30:50Z</time>
      </trkpt>
      <trkpt lat="48.55208" lon="-2.78672">
        <ele>130</ele>
        <time>2015-11-28T11:30:53Z</time>
      </trkpt>
      <trkpt lat="48.55197" lon="-2.78685">
        <ele>130</ele>
        <time>2015-11-28T11:30:56Z</time>
      </trkpt>
      <trkpt lat="48.55187" lon="-2.78697">
        <ele>130.1</ele>
        <time>2015-11-28T11:30:59Z</time>
      </trkpt>
      <trkpt lat="48.5518" lon="-2.78706">
        <ele>130.1</ele>
        <time>2015-11-28T11:31:01Z</time>
      </trkpt>
      <trkpt lat="48.55173" lon="-2.78715">
        <ele>130</ele>
        <time>2015-11-28T11:31:03Z</time>
      </trkpt>
      <trkpt lat="48.55166" lon="-2.78724">
        <ele>129.9</ele>
        <time>2015-11-28T11:31:05Z</time>
      </trkpt>
      <trkpt lat="48.55158" lon="-2.78734">
        <ele>129.8</ele>
        <time>2015-11-28T11:31:07Z</time>
      </trkpt>
      <trkpt lat="48.55151" lon="-2.78743">
        <ele>129.7</ele>
        <time>2015-11-28T11:31:09Z</time>
      </trkpt>
      <trkpt lat="48.55144" lon="-2.78753">
        <ele>129.6</ele>
        <time>2015-11-28T11:31:11Z</time>
      </trkpt>
      <trkpt lat="48.55138" lon="-2.78763">
        <ele>129.5</ele>
        <time>2015-11-28T11:31:13Z</time>
      </trkpt>
      <trkpt lat="48.55131" lon="-2.78774">
        <ele>129.4</ele>
        <time>2015-11-28T11:31:15Z</time>
      </trkpt>
      <trkpt lat="48.55125" lon="-2.78785">
        <ele>129.4</ele>
        <time>2015-11-28T11:31:17Z</time>
      </trkpt>
      <trkpt lat="48.5512" lon="-2.78797">
        <ele>129.3</ele>
        <time>2015-11-28T11:31:19Z</time>
      </trkpt>
      <trkpt lat="48.55115" lon="-2.78809">
        <ele>129.2</ele>
        <time>2015-11-28T11:31:21Z</time>
      </trkpt>
      <trkpt lat="48.55111" lon="-2.78822">
        <ele>129.2</ele>
        <time>2015-11-28T11:31:23Z</time>
      </trkpt>
      <trkpt lat="48.55107" lon="-2.78834">
        <ele>129.2</ele>
        <time>2015-11-28T11:31:25Z</time>
      </trkpt>
      <trkpt lat="48.55103" lon="-2.78847">
        <ele>129.1</ele>
        <time>2015-11-28T11:31:27Z</time>
      </trkpt>
      <trkpt lat="48.551" lon="-2.7886">
        <ele>129</ele>
        <time>2015-11-28T11:31:29Z</time>
      </trkpt>
      <trkpt lat="48.55096" lon="-2.78872">
        <ele>129</ele>
        <time>2015-11-28T11:31:31Z</time>
      </trkpt>
      <trkpt lat="48.55091" lon="-2.7889">
        <ele>128.9</ele>
        <time>2015-11-28T11:31:34Z</time>
      </trkpt>
      <trkpt lat="48.55087" lon="-2.78908">
        <ele>128.8</ele>
        <time>2015-11-28T11:31:37Z</time>
      </trkpt>
      <trkpt lat="48.55086" lon="-2.78927">
        <ele>128.7</ele>
        <time>2015-11-28T11:31:40Z</time>
      </trkpt>
      <trkpt lat="48.55084" lon="-2.78944">
        <ele>128.7</ele>
        <time>2015-11-28T11:31:43Z</time>
      </trkpt>
      <trkpt lat="48.55077" lon="-2.78957">
        <ele>128.6</ele>
        <time>2015-11-28T11:31:46Z</time>
      </trkpt>
      <trkpt lat="48.55066" lon="-2.78954">
        <ele>128.6</ele>
        <time>2015-11-28T11:31:49Z</time>
      </trkpt>
      <trkpt lat="48.55054" lon="-2.78951">
        <ele>128.6</ele>
        <time>2015-11-28T11:31:52Z</time>
      </trkpt>
      <trkpt lat="48.55042" lon="-2.78955">
        <ele>128.5</ele>
        <time>2015-11-28T11:31:55Z</time>
      </trkpt>
      <trkpt lat="48.55032" lon="-2.78958">
        <ele>128.4</ele>
        <time>2015-11-28T11:31:57Z</time>
      </trkpt>
      <trkpt lat="48.55023" lon="-2.78962">
        <ele>128.3</ele>
        <time>2015-11-28T11:31:59Z</time>
      </trkpt>
      <trkpt lat="48.55013" lon="-2.78965">
        <ele>128</ele>
        <time>2015-11-28T11:32:01Z</time>
      </trkpt>
      <trkpt lat="48.55003" lon="-2.78967">
        <ele>127.8</ele>
        <time>2015-11-28T11:32:03Z</time>
      </trkpt>
      <trkpt lat="48.54989" lon="-2.7897">
        <ele>127.6</ele>
        <time>2015-11-28T11:32:06Z</time>
      </trkpt>
      <trkpt lat="48.54977" lon="-2.78976">
        <ele>127.4</ele>
        <time>2015-11-28T11:32:09Z</time>
      </trkpt>
      <trkpt lat="48.54968" lon="-2.78986">
        <ele>127.2</ele>
        <time>2015-11-28T11:32:12Z</time>
      </trkpt>
      <trkpt lat="48.54962" lon="-2.79001">
        <ele>127</ele>
        <time>2015-11-28T11:32:15Z</time>
      </trkpt>
      <trkpt lat="48.54957" lon="-2.79019">
        <ele>126.9</ele>
        <time>2015-11-28T11:32:18Z</time>
      </trkpt>
      <trkpt lat="48.54951" lon="-2.79035">
        <ele>126.8</ele>
        <time>2015-11-28T11:32:21Z</time>
      </trkpt>
      <trkpt lat="48.54946" lon="-2.7905">
        <ele>126.7</ele>
        <time>2015-11-28T11:32:24Z</time>
      </trkpt>
      <trkpt lat="48.5494" lon="-2.79067">
        <ele>126.7</ele>
        <time>2015-11-28T11:32:27Z</time>
      </trkpt>
      <trkpt lat="48.54933" lon="-2.79083">
        <ele>126.6</ele>
        <time>2015-11-28T11:32:30Z</time>
      </trkpt>
      <trkpt lat="48.54928" lon="-2.79098">
        <ele>126.6</ele>
        <time>2015-11-28T11:32:33Z</time>
      </trkpt>
      <trkpt lat="48.54925" lon="-2.79114">
        <ele>126.5</ele>
        <time>2015-11-28T11:32:36Z</time>
      </trkpt>
      <trkpt lat="48.54923" lon="-2.79132">
        <ele>126.5</ele>
        <time>2015-11-28T11:32:39Z</time>
      </trkpt>
      <trkpt lat="48.54921" lon="-2.79146">
        <ele>126.5</ele>
        <time>2015-11-28T11:32:41Z</time>
      </trkpt>
      <trkpt lat="48.54918" lon="-2.79159">
        <ele>126.5</ele>
        <time>2015-11-28T11:32:43Z</time>
      </trkpt>
      <trkpt lat="48.54913" lon="-2.79177">
        <ele>126.4</ele>
        <time>2015-11-28T11:32:46Z</time>
      </trkpt>
      <trkpt lat="48.54908" lon="-2.79195">
        <ele>126.4</ele>
        <time>2015-11-28T11:32:49Z</time>
      </trkpt>
      <trkpt lat="48.54904" lon="-2.79212">
        <ele>126.4</ele>
        <time>2015-11-28T11:32:52Z</time>
      </trkpt>
      <trkpt lat="48.549" lon="-2.79231">
        <ele>126.4</ele>
        <time>2015-11-28T11:32:55Z</time>
      </trkpt>
      <trkpt lat="48.54897" lon="-2.79245">
        <ele>126.4</ele>
        <time>2015-11-28T11:32:57Z</time>
      </trkpt>
      <trkpt lat="48.54892" lon="-2.79262">
        <ele>126.4</ele>
        <time>2015-11-28T11:33:00Z</time>
      </trkpt>
      <trkpt lat="48.54888" lon="-2.7928">
        <ele>126.4</ele>
        <time>2015-11-28T11:33:03Z</time>
      </trkpt>
      <trkpt lat="48.54885" lon="-2.79297">
        <ele>126.4</ele>
        <time>2015-11-28T11:33:06Z</time>
      </trkpt>
      <trkpt lat="48.54883" lon="-2.79314">
        <ele>126.4</ele>
        <time>2015-11-28T11:33:09Z</time>
      </trkpt>
      <trkpt lat="48.54884" lon="-2.79332">
        <ele>126.4</ele>
        <time>2015-11-28T11:33:12Z</time>
      </trkpt>
      <trkpt lat="48.54885" lon="-2.79351">
        <ele>126.4</ele>
        <time>2015-11-28T11:33:15Z</time>
      </trkpt>
      <trkpt lat="48.54884" lon="-2.79367">
        <ele>126.3</ele>
        <time>2015-11-28T11:33:18Z</time>
      </trkpt>
      <trkpt lat="48.54887" lon="-2.79381">
        <ele>126.4</ele>
        <time>2015-11-28T11:33:21Z</time>
      </trkpt>
      <trkpt lat="48.54884" lon="-2.79396">
        <ele>126.4</ele>
        <time>2015-11-28T11:33:28Z</time>
      </trkpt>
      <trkpt lat="48.54877" lon="-2.79411">
        <ele>126.4</ele>
        <time>2015-11-28T11:33:32Z</time>
      </trkpt>
      <trkpt lat="48.54868" lon="-2.79414">
        <ele>126.4</ele>
        <time>2015-11-28T11:33:35Z</time>
      </trkpt>
      <trkpt lat="48.54857" lon="-2.79408">
        <ele>126.4</ele>
        <time>2015-11-28T11:33:38Z</time>
      </trkpt>
      <trkpt lat="48.54845" lon="-2.79409">
        <ele>126.4</ele>
        <time>2015-11-28T11:33:41Z</time>
      </trkpt>
      <trkpt lat="48.54833" lon="-2.79407">
        <ele>126.4</ele>
        <time>2015-11-28T11:33:44Z</time>
      </trkpt>
      <trkpt lat="48.54821" lon="-2.79405">
        <ele>126.4</ele>
        <time>2015-11-28T11:33:47Z</time>
      </trkpt>
      <trkpt lat="48.5481" lon="-2.79408">
        <ele>126.4</ele>
        <time>2015-11-28T11:33:50Z</time>
      </trkpt>
      <trkpt lat="48.54801" lon="-2.7942">
        <ele>126.4</ele>
        <time>2015-11-28T11:33:53Z</time>
      </trkpt>
      <trkpt lat="48.54794" lon="-2.79429">
        <ele>126.4</ele>
        <time>2015-11-28T11:33:55Z</time>
      </trkpt>
      <trkpt lat="48.54785" lon="-2.79442">
        <ele>126.4</ele>
        <time>2015-11-28T11:33:58Z</time>
      </trkpt>
      <trkpt lat="48.54775" lon="-2.79454">
        <ele>126.4</ele>
        <time>2015-11-28T11:34:01Z</time>
      </trkpt>
      <trkpt lat="48.54766" lon="-2.79467">
        <ele>126.2</ele>
        <time>2015-11-28T11:34:04Z</time>
      </trkpt>
      <trkpt lat="48.54757" lon="-2.7948">
        <ele>126.1</ele>
        <time>2015-11-28T11:34:07Z</time>
      </trkpt>
      <trkpt lat="48.5475" lon="-2.7949">
        <ele>126</ele>
        <time>2015-11-28T11:34:09Z</time>
      </trkpt>
      <trkpt lat="48.54741" lon="-2.79504">
        <ele>125.9</ele>
        <time>2015-11-28T11:34:12Z</time>
      </trkpt>
      <trkpt lat="48.54732" lon="-2.79519">
        <ele>125.8</ele>
        <time>2015-11-28T11:34:15Z</time>
      </trkpt>
      <trkpt lat="48.54726" lon="-2.79536">
        <ele>125.6</ele>
        <time>2015-11-28T11:34:18Z</time>
      </trkpt>
      <trkpt lat="48.54723" lon="-2.79555">
        <ele>125.5</ele>
        <time>2015-11-28T11:34:21Z</time>
      </trkpt>
      <trkpt lat="48.54721" lon="-2.79574">
        <ele>125.4</ele>
        <time>2015-11-28T11:34:24Z</time>
      </trkpt>
      <trkpt lat="48.5472" lon="-2.79594">
        <ele>125.3</ele>
        <time>2015-11-28T11:34:27Z</time>
      </trkpt>
      <trkpt lat="48.5472" lon="-2.79613">
        <ele>125.2</ele>
        <time>2015-11-28T11:34:30Z</time>
      </trkpt>
      <trkpt lat="48.54718" lon="-2.79633">
        <ele>125.2</ele>
        <time>2015-11-28T11:34:33Z</time>
      </trkpt>
      <trkpt lat="48.54717" lon="-2.79653">
        <ele>125.1</ele>
        <time>2015-11-28T11:34:36Z</time>
      </trkpt>
      <trkpt lat="48.54715" lon="-2.79673">
        <ele>125.1</ele>
        <time>2015-11-28T11:34:39Z</time>
      </trkpt>
      <trkpt lat="48.54712" lon="-2.79686">
        <ele>125.1</ele>
        <time>2015-11-28T11:34:41Z</time>
      </trkpt>
      <trkpt lat="48.5471" lon="-2.797">
        <ele>125.1</ele>
        <time>2015-11-28T11:34:43Z</time>
      </trkpt>
      <trkpt lat="48.54707" lon="-2.79714">
        <ele>125</ele>
        <time>2015-11-28T11:34:45Z</time>
      </trkpt>
      <trkpt lat="48.54703" lon="-2.79727">
        <ele>125</ele>
        <time>2015-11-28T11:34:47Z</time>
      </trkpt>
      <trkpt lat="48.547" lon="-2.7974">
        <ele>125</ele>
        <time>2015-11-28T11:34:49Z</time>
      </trkpt>
      <trkpt lat="48.54693" lon="-2.79758">
        <ele>125</ele>
        <time>2015-11-28T11:34:52Z</time>
      </trkpt>
      <trkpt lat="48.54688" lon="-2.7977">
        <ele>125</ele>
        <time>2015-11-28T11:34:54Z</time>
      </trkpt>
      <trkpt lat="48.54684" lon="-2.79783">
        <ele>125</ele>
        <time>2015-11-28T11:34:56Z</time>
      </trkpt>
      <trkpt lat="48.54679" lon="-2.79795">
        <ele>124.9</ele>
        <time>2015-11-28T11:34:58Z</time>
      </trkpt>
      <trkpt lat="48.54675" lon="-2.79807">
        <ele>124.8</ele>
        <time>2015-11-28T11:35:00Z</time>
      </trkpt>
      <trkpt lat="48.54669" lon="-2.79825">
        <ele>124.7</ele>
        <time>2015-11-28T11:35:03Z</time>
      </trkpt>
      <trkpt lat="48.54665" lon="-2.79838">
        <ele>124.6</ele>
        <time>2015-11-28T11:35:05Z</time>
      </trkpt>
      <trkpt lat="48.54662" lon="-2.79852">
        <ele>124.5</ele>
        <time>2015-11-28T11:35:07Z</time>
      </trkpt>
      <trkpt lat="48.5466" lon="-2.79866">
        <ele>124.4</ele>
        <time>2015-11-28T11:35:09Z</time>
      </trkpt>
      <trkpt lat="48.5466" lon="-2.7988">
        <ele>124.3</ele>
        <time>2015-11-28T11:35:11Z</time>
      </trkpt>
      <trkpt lat="48.54657" lon="-2.79894">
        <ele>124.2</ele>
        <time>2015-11-28T11:35:13Z</time>
      </trkpt>
      <trkpt lat="48.54652" lon="-2.79906">
        <ele>124.1</ele>
        <time>2015-11-28T11:35:15Z</time>
      </trkpt>
      <trkpt lat="48.54645" lon="-2.79921">
        <ele>124</ele>
        <time>2015-11-28T11:35:18Z</time>
      </trkpt>
      <trkpt lat="48.54637" lon="-2.79936">
        <ele>123.9</ele>
        <time>2015-11-28T11:35:21Z</time>
      </trkpt>
      <trkpt lat="48.54629" lon="-2.79952">
        <ele>123.8</ele>
        <time>2015-11-28T11:35:24Z</time>
      </trkpt>
      <trkpt lat="48.54623" lon="-2.79963">
        <ele>123.8</ele>
        <time>2015-11-28T11:35:26Z</time>
      </trkpt>
      <trkpt lat="48.54614" lon="-2.79978">
        <ele>123.7</ele>
        <time>2015-11-28T11:35:29Z</time>
      </trkpt>
      <trkpt lat="48.54604" lon="-2.79991">
        <ele>123.7</ele>
        <time>2015-11-28T11:35:32Z</time>
      </trkpt>
      <trkpt lat="48.54593" lon="-2.8">
        <ele>123.7</ele>
        <time>2015-11-28T11:35:35Z</time>
      </trkpt>
      <trkpt lat="48.54584" lon="-2.80006">
        <ele>123.7</ele>
        <time>2015-11-28T11:35:37Z</time>
      </trkpt>
      <trkpt lat="48.54573" lon="-2.80014">
        <ele>123.7</ele>
        <time>2015-11-28T11:35:40Z</time>
      </trkpt>
      <trkpt lat="48.54561" lon="-2.80021">
        <ele>123.7</ele>
        <time>2015-11-28T11:35:43Z</time>
      </trkpt>
      <trkpt lat="48.5455" lon="-2.8003">
        <ele>123.7</ele>
        <time>2015-11-28T11:35:46Z</time>
      </trkpt>
      <trkpt lat="48.54542" lon="-2.80043">
        <ele>123.7</ele>
        <time>2015-11-28T11:35:49Z</time>
      </trkpt>
      <trkpt lat="48.54538" lon="-2.8006">
        <ele>123.8</ele>
        <time>2015-11-28T11:35:52Z</time>
      </trkpt>
      <trkpt lat="48.54538" lon="-2.8008">
        <ele>123.9</ele>
        <time>2015-11-28T11:35:55Z</time>
      </trkpt>
      <trkpt lat="48.54539" lon="-2.80095">
        <ele>124</ele>
        <time>2015-11-28T11:35:57Z</time>
      </trkpt>
      <trkpt lat="48.5454" lon="-2.80111">
        <ele>124</ele>
        <time>2015-11-28T11:35:59Z</time>
      </trkpt>
      <trkpt lat="48.54542" lon="-2.80128">
        <ele>124</ele>
        <time>2015-11-28T11:36:01Z</time>
      </trkpt>
      <trkpt lat="48.54544" lon="-2.80144">
        <ele>124</ele>
        <time>2015-11-28T11:36:03Z</time>
      </trkpt>
      <trkpt lat="48.54546" lon="-2.8016">
        <ele>123.9</ele>
        <time>2015-11-28T11:36:05Z</time>
      </trkpt>
      <trkpt lat="48.54548" lon="-2.80176">
        <ele>123.9</ele>
        <time>2015-11-28T11:36:07Z</time>
      </trkpt>
      <trkpt lat="48.54548" lon="-2.8019">
        <ele>123.7</ele>
        <time>2015-11-28T11:36:09Z</time>
      </trkpt>
      <trkpt lat="48.54546" lon="-2.80204">
        <ele>123.6</ele>
        <time>2015-11-28T11:36:11Z</time>
      </trkpt>
      <trkpt lat="48.54538" lon="-2.80212">
        <ele>123.4</ele>
        <time>2015-11-28T11:36:13Z</time>
      </trkpt>
      <trkpt lat="48.54528" lon="-2.80214">
        <ele>123.2</ele>
        <time>2015-11-28T11:36:15Z</time>
      </trkpt>
      <trkpt lat="48.54516" lon="-2.80211">
        <ele>123</ele>
        <time>2015-11-28T11:36:17Z</time>
      </trkpt>
      <trkpt lat="48.54503" lon="-2.80203">
        <ele>122.8</ele>
        <time>2015-11-28T11:36:19Z</time>
      </trkpt>
      <trkpt lat="48.5449" lon="-2.80206">
        <ele>122.7</ele>
        <time>2015-11-28T11:36:21Z</time>
      </trkpt>
      <trkpt lat="48.54477" lon="-2.80206">
        <ele>122.5</ele>
        <time>2015-11-28T11:36:23Z</time>
      </trkpt>
      <trkpt lat="48.54465" lon="-2.80205">
        <ele>122.5</ele>
        <time>2015-11-28T11:36:25Z</time>
      </trkpt>
      <trkpt lat="48.54454" lon="-2.80202">
        <ele>122.5</ele>
        <time>2015-11-28T11:36:27Z</time>
      </trkpt>
      <trkpt lat="48.54443" lon="-2.80198">
        <ele>122.7</ele>
        <time>2015-11-28T11:36:29Z</time>
      </trkpt>
      <trkpt lat="48.54434" lon="-2.80194">
        <ele>122.8</ele>
        <time>2015-11-28T11:36:31Z</time>
      </trkpt>
      <trkpt lat="48.54422" lon="-2.8019">
        <ele>123.1</ele>
        <time>2015-11-28T11:36:34Z</time>
      </trkpt>
      <trkpt lat="48.5441" lon="-2.80186">
        <ele>123.4</ele>
        <time>2015-11-28T11:36:37Z</time>
      </trkpt>
      <trkpt lat="48.54399" lon="-2.80184">
        <ele>123.8</ele>
        <time>2015-11-28T11:36:40Z</time>
      </trkpt>
      <trkpt lat="48.54389" lon="-2.80183">
        <ele>124.1</ele>
        <time>2015-11-28T11:36:43Z</time>
      </trkpt>
      <trkpt lat="48.54378" lon="-2.80186">
        <ele>124.4</ele>
        <time>2015-11-28T11:36:46Z</time>
      </trkpt>
      <trkpt lat="48.54369" lon="-2.80191">
        <ele>124.6</ele>
        <time>2015-11-28T11:36:49Z</time>
      </trkpt>
      <trkpt lat="48.5436" lon="-2.80198">
        <ele>124.9</ele>
        <time>2015-11-28T11:36:52Z</time>
      </trkpt>
      <trkpt lat="48.54353" lon="-2.80208">
        <ele>125.2</ele>
        <time>2015-11-28T11:36:55Z</time>
      </trkpt>
      <trkpt lat="48.54347" lon="-2.8022">
        <ele>125.5</ele>
        <time>2015-11-28T11:36:58Z</time>
      </trkpt>
      <trkpt lat="48.5434" lon="-2.80234">
        <ele>125.8</ele>
        <time>2015-11-28T11:37:01Z</time>
      </trkpt>
      <trkpt lat="48.54335" lon="-2.8025">
        <ele>126</ele>
        <time>2015-11-28T11:37:04Z</time>
      </trkpt>
      <trkpt lat="48.54331" lon="-2.80267">
        <ele>126.2</ele>
        <time>2015-11-28T11:37:07Z</time>
      </trkpt>
      <trkpt lat="48.54328" lon="-2.80286">
        <ele>126.5</ele>
        <time>2015-11-28T11:37:10Z</time>
      </trkpt>
      <trkpt lat="48.54325" lon="-2.80304">
        <ele>126.7</ele>
        <time>2015-11-28T11:37:13Z</time>
      </trkpt>
      <trkpt lat="48.54323" lon="-2.80323">
        <ele>127</ele>
        <time>2015-11-28T11:37:16Z</time>
      </trkpt>
      <trkpt lat="48.54322" lon="-2.8034">
        <ele>127.4</ele>
        <time>2015-11-28T11:37:19Z</time>
      </trkpt>
      <trkpt lat="48.54321" lon="-2.80359">
        <ele>127.7</ele>
        <time>2015-11-28T11:37:22Z</time>
      </trkpt>
      <trkpt lat="48.54319" lon="-2.80377">
        <ele>128</ele>
        <time>2015-11-28T11:37:25Z</time>
      </trkpt>
      <trkpt lat="48.54317" lon="-2.80395">
        <ele>128.3</ele>
        <time>2015-11-28T11:37:28Z</time>
      </trkpt>
      <trkpt lat="48.54315" lon="-2.80414">
        <ele>128.5</ele>
        <time>2015-11-28T11:37:31Z</time>
      </trkpt>
      <trkpt lat="48.54312" lon="-2.80433">
        <ele>128.7</ele>
        <time>2015-11-28T11:37:34Z</time>
      </trkpt>
      <trkpt lat="48.54309" lon="-2.80451">
        <ele>128.9</ele>
        <time>2015-11-28T11:37:37Z</time>
      </trkpt>
      <trkpt lat="48.54305" lon="-2.80468">
        <ele>129.1</ele>
        <time>2015-11-28T11:37:40Z</time>
      </trkpt>
      <trkpt lat="48.54303" lon="-2.80486">
        <ele>129.2</ele>
        <time>2015-11-28T11:37:43Z</time>
      </trkpt>
      <trkpt lat="48.543" lon="-2.80504">
        <ele>129.3</ele>
        <time>2015-11-28T11:37:46Z</time>
      </trkpt>
      <trkpt lat="48.54294" lon="-2.80519">
        <ele>129.4</ele>
        <time>2015-11-28T11:37:49Z</time>
      </trkpt>
      <trkpt lat="48.54285" lon="-2.8053">
        <ele>129.5</ele>
        <time>2015-11-28T11:37:52Z</time>
      </trkpt>
      <trkpt lat="48.54273" lon="-2.80528">
        <ele>129.6</ele>
        <time>2015-11-28T11:37:55Z</time>
      </trkpt>
      <trkpt lat="48.54264" lon="-2.80522">
        <ele>129.7</ele>
        <time>2015-11-28T11:37:57Z</time>
      </trkpt>
      <trkpt lat="48.54254" lon="-2.80512">
        <ele>129.7</ele>
        <time>2015-11-28T11:38:00Z</time>
      </trkpt>
      <trkpt lat="48.54243" lon="-2.805">
        <ele>129.8</ele>
        <time>2015-11-28T11:38:03Z</time>
      </trkpt>
      <trkpt lat="48.54232" lon="-2.80489">
        <ele>129.9</ele>
        <time>2015-11-28T11:38:06Z</time>
      </trkpt>
      <trkpt lat="48.54224" lon="-2.80482">
        <ele>130</ele>
        <time>2015-11-28T11:38:08Z</time>
      </trkpt>
      <trkpt lat="48.54215" lon="-2.80475">
        <ele>130</ele>
        <time>2015-11-28T11:38:10Z</time>
      </trkpt>
      <trkpt lat="48.54207" lon="-2.80468">
        <ele>130.1</ele>
        <time>2015-11-28T11:38:12Z</time>
      </trkpt>
      <trkpt lat="48.54199" lon="-2.80462">
        <ele>130.2</ele>
        <time>2015-11-28T11:38:14Z</time>
      </trkpt>
      <trkpt lat="48.54191" lon="-2.80455">
        <ele>130.3</ele>
        <time>2015-11-28T11:38:16Z</time>
      </trkpt>
      <trkpt lat="48.54182" lon="-2.80449">
        <ele>130.4</ele>
        <time>2015-11-28T11:38:18Z</time>
      </trkpt>
      <trkpt lat="48.54173" lon="-2.80442">
        <ele>130.4</ele>
        <time>2015-11-28T11:38:20Z</time>
      </trkpt>
      <trkpt lat="48.54164" lon="-2.80434">
        <ele>130.5</ele>
        <time>2015-11-28T11:38:22Z</time>
      </trkpt>
      <trkpt lat="48.54155" lon="-2.80427">
        <ele>130.6</ele>
        <time>2015-11-28T11:38:24Z</time>
      </trkpt>
      <trkpt lat="48.54146" lon="-2.8042">
        <ele>130.6</ele>
        <time>2015-11-28T11:38:26Z</time>
      </trkpt>
      <trkpt lat="48.54137" lon="-2.80413">
        <ele>130.7</ele>
        <time>2015-11-28T11:38:28Z</time>
      </trkpt>
      <trkpt lat="48.54129" lon="-2.80407">
        <ele>130.7</ele>
        <time>2015-11-28T11:38:30Z</time>
      </trkpt>
      <trkpt lat="48.5412" lon="-2.80401">
        <ele>130.8</ele>
        <time>2015-11-28T11:38:32Z</time>
      </trkpt>
      <trkpt lat="48.54109" lon="-2.80394">
        <ele>130.8</ele>
        <time>2015-11-28T11:38:35Z</time>
      </trkpt>
      <trkpt lat="48.54099" lon="-2.80399">
        <ele>130.8</ele>
        <time>2015-11-28T11:38:38Z</time>
      </trkpt>
      <trkpt lat="48.54092" lon="-2.80415">
        <ele>130.9</ele>
        <time>2015-11-28T11:38:41Z</time>
      </trkpt>
      <trkpt lat="48.54087" lon="-2.80427">
        <ele>130.9</ele>
        <time>2015-11-28T11:38:43Z</time>
      </trkpt>
      <trkpt lat="48.54082" lon="-2.80438">
        <ele>130.9</ele>
        <time>2015-11-28T11:38:45Z</time>
      </trkpt>
      <trkpt lat="48.54078" lon="-2.80451">
        <ele>131</ele>
        <time>2015-11-28T11:38:47Z</time>
      </trkpt>
      <trkpt lat="48.54073" lon="-2.80463">
        <ele>131</ele>
        <time>2015-11-28T11:38:49Z</time>
      </trkpt>
      <trkpt lat="48.54069" lon="-2.80476">
        <ele>131.1</ele>
        <time>2015-11-28T11:38:51Z</time>
      </trkpt>
      <trkpt lat="48.54066" lon="-2.8049">
        <ele>131.1</ele>
        <time>2015-11-28T11:38:53Z</time>
      </trkpt>
      <trkpt lat="48.54063" lon="-2.80503">
        <ele>131.2</ele>
        <time>2015-11-28T11:38:55Z</time>
      </trkpt>
      <trkpt lat="48.5406" lon="-2.80517">
        <ele>131.3</ele>
        <time>2015-11-28T11:38:57Z</time>
      </trkpt>
      <trkpt lat="48.54058" lon="-2.80531">
        <ele>131.4</ele>
        <time>2015-11-28T11:38:59Z</time>
      </trkpt>
      <trkpt lat="48.54057" lon="-2.80545">
        <ele>131.5</ele>
        <time>2015-11-28T11:39:01Z</time>
      </trkpt>
      <trkpt lat="48.54056" lon="-2.8056">
        <ele>131.6</ele>
        <time>2015-11-28T11:39:03Z</time>
      </trkpt>
      <trkpt lat="48.54056" lon="-2.80574">
        <ele>131.7</ele>
        <time>2015-11-28T11:39:05Z</time>
      </trkpt>
      <trkpt lat="48.54057" lon="-2.80588">
        <ele>131.8</ele>
        <time>2015-11-28T11:39:07Z</time>
      </trkpt>
      <trkpt lat="48.54059" lon="-2.80608">
        <ele>132</ele>
        <time>2015-11-28T11:39:10Z</time>
      </trkpt>
      <trkpt lat="48.54064" lon="-2.8062">
        <ele>132.2</ele>
        <time>2015-11-28T11:39:13Z</time>
      </trkpt>
      <trkpt lat="48.54074" lon="-2.80612">
        <ele>132.5</ele>
        <time>2015-11-28T11:39:17Z</time>
      </trkpt>
      <trkpt lat="48.54084" lon="-2.80616">
        <ele>133</ele>
        <time>2015-11-28T11:39:22Z</time>
      </trkpt>
      <trkpt lat="48.54088" lon="-2.80621">
        <ele>133.6</ele>
        <time>2015-11-28T11:39:27Z</time>
      </trkpt>
    </trkseg>
  </trk>
</gpx>